[[{"header":{"parameterUnit":"m.s-1","parameterCategory":1,"la1":30.6,"la2":28.766,"lo1":-90.7593,"lo2":-88.6598,"dy":0.0162,"dx":0.0183,"nx":116,"ny":114,"refTime":"2023-03-25T00:00:00:Z","depth":0,"parameterNumber":2,"parameterNumberName":"U-component_of_WINDS"},"data":[0.0,0.0,0.0,0.0,0.0,0.0,0.0,0.0,0.0,0.0,0.0,0.0,0.0,0.0,0.0,0.0,0.0,0.0,0.0,0.0,0.0,0.0,0.0,0.0,0.0,0.0,0.0,0.0,0.0,0.0,0.0,0.0,0.0,0.0,0.0,0.0,0.0,0.0,0.0,0.0,0.0,0.0,0.0,0.0,0.0,0.0,0.0,0.0,0.0,0.0,0.0,0.0,0.0,0.0,0.0,0.0,0.0,0.0,0.0,0.0,0.0,0.0,0.0,0.0,0.0,0.0,0.0,0.0,0.0,0.0,0.0,0.0,0.0,0.0,0.0,0.0,0.0,0.0,0.0,0.0,0.0,0.0,0.0,0.0,0.0,0.0,0.0,0.0,0.0,0.0,0.0,0.0,0.0,0.0,0.0,0.0,0.0,0.0,0.0,0.0,0.0,0.0,0.0,0.0,0.0,0.0,0.0,0.0,0.0,0.0,0.0,0.0,0.0,0.0,0.0,0.0,0.0,0.0,0.0,0.0,0.0,0.0,0.0,0.0,0.0,0.0,0.0,0.0,0.0,0.0,0.0,0.0,0.0,0.0,0.0,0.0,0.0,0.0,0.0,0.0,0.0,0.0,0.0,0.0,0.0,0.0,0.0,0.0,0.0,0.0,0.0,0.0,0.0,0.0,0.0,0.0,0.0,0.0,0.0,0.0,0.0,0.0,0.0,0.0,0.0,0.0,0.0,0.0,0.0,0.0,0.0,0.0,0.0,0.0,0.0,0.0,0.0,0.0,0.0,0.0,0.0,0.0,0.0,0.0,0.0,0.0,0.0,0.0,0.0,0.0,0.0,0.0,0.0,0.0,0.0,0.0,0.0,0.0,0.0,0.0,0.0,0.0,0.0,0.0,0.0,0.0,0.0,0.0,0.0,0.0,0.0,0.0,0.0,0.0,0.0,0.0,0.0,0.0,0.0,0.0,0.0,0.0,0.0,0.0,0.0,0.0,0.0,0.0,0.0,0.0,0.0,0.0,0.0,0.0,0.0,0.0,0.0,0.0,0.0,0.0,0.0,0.0,0.0,0.0,0.0,0.0,0.0,0.0,0.0,0.0,0.0,0.0,0.0,0.0,0.0,0.0,0.0,0.0,0.0,0.0,0.0,0.0,0.0,0.0,0.0,0.0,0.0,0.0,0.0,0.0,0.0,0.0,0.0,0.0,0.0,0.0,0.0,0.0,0.0,0.0,0.0,0.0,0.0,0.0,0.0,0.0,0.0,0.0,0.0,0.0,0.0,0.0,0.0,0.0,0.0,0.0,0.0,0.0,0.0,0.0,0.0,0.0,0.0,0.0,0.0,0.0,0.0,0.0,0.0,0.0,0.0,0.0,0.0,0.0,0.0,0.0,0.0,0.0,0.0,0.0,0.0,0.0,0.0,0.0,0.0,0.0,0.0,0.0,0.0,0.0,0.0,0.0,0.0,0.0,0.0,0.0,0.0,0.0,0.0,0.0,0.0,0.0,0.0,0.0,0.0,0.0,0.0,0.0,0.0,0.0,0.0,0.0,0.0,0.0,0.0,0.0,0.0,0.0,0.0,0.0,0.0,0.0,0.0,0.0,0.0,0.0,0.0,0.0,0.0,0.0,0.0,0.0,0.0,0.0,0.0,0.0,0.0,0.0,0.0,0.0,0.0,0.0,0.0,0.0,0.0,0.0,0.0,0.0,0.0,0.0,0.0,0.0,0.0,0.0,0.0,0.0,0.0,0.0,0.0,0.0,0.0,0.0,0.0,0.0,0.0,0.0,0.0,0.0,0.0,0.0,0.0,0.0,0.0,0.0,0.0,0.0,0.0,0.0,0.0,0.0,0.0,0.0,0.0,0.0,0.0,0.0,0.0,0.0,0.0,0.0,0.0,0.0,0.0,0.0,0.0,0.0,0.0,0.0,0.0,0.0,0.0,0.0,0.0,0.0,0.0,0.0,0.0,0.0,0.0,0.0,0.0,0.0,0.0,0.0,0.0,0.0,0.0,0.0,0.0,0.0,0.0,0.0,0.0,0.0,0.0,0.0,0.0,0.0,0.0,0.0,0.0,0.0,0.0,0.0,0.0,0.0,0.0,0.0,0.0,0.0,0.0,0.0,0.0,0.0,0.0,0.0,0.0,0.0,0.0,0.0,0.0,0.0,0.0,0.0,0.0,0.0,0.0,0.0,0.0,0.0,0.0,0.0,0.0,0.0,0.0,0.0,0.0,0.0,0.0,0.0,0.0,0.0,0.0,0.0,0.0,0.0,0.0,0.0,0.0,0.0,0.0,0.0,0.0,0.0,0.0,0.0,0.0,0.0,0.0,0.0,0.0,0.0,0.0,0.0,0.0,0.0,0.0,0.0,0.0,0.0,0.0,0.0,0.0,0.0,0.0,0.0,0.0,0.0,0.0,0.0,0.0,0.0,0.0,0.0,0.0,0.0,0.0,0.0,0.0,0.0,0.0,0.0,0.0,0.0,0.0,0.0,0.0,0.0,0.0,0.0,0.0,0.0,0.0,0.0,0.0,0.0,0.0,0.0,0.0,0.0,0.0,0.0,0.0,0.0,0.0,0.0,0.0,0.0,0.0,0.0,0.0,0.0,0.0,0.0,0.0,0.0,0.0,0.0,0.0,0.0,0.0,0.0,0.0,0.0,0.0,0.0,0.0,0.0,0.0,0.0,0.0,0.0,0.0,0.0,0.0,0.0,0.0,0.0,0.0,0.0,0.0,0.0,0.0,0.0,0.0,0.0,0.0,0.0,0.0,0.0,0.0,0.0,0.0,0.0,0.0,0.0,0.0,0.0,0.0,0.0,0.0,0.0,0.0,0.0,0.0,0.0,0.0,0.0,0.0,0.0,0.0,0.0,0.0,0.0,0.0,0.0,0.0,0.0,0.0,0.0,0.0,0.0,0.0,0.0,0.0,0.0,0.0,0.0,0.0,0.0,0.0,0.0,0.0,0.0,0.0,0.0,0.0,0.0,0.0,0.0,0.0,0.0,0.0,0.0,0.0,0.0,0.0,0.0,0.0,0.0,0.0,0.0,0.0,0.0,0.0,0.0,0.0,0.0,0.0,0.0,0.0,0.0,0.0,0.0,0.0,0.0,0.0,0.0,0.0,0.0,0.0,0.0,0.0,0.0,0.0,0.0,0.0,0.0,0.0,0.0,0.0,0.0,0.0,0.0,0.0,0.0,0.0,0.0,0.0,0.0,0.0,0.0,0.0,0.0,0.0,0.0,0.0,0.0,0.0,0.0,0.0,0.0,0.0,0.0,0.0,0.0,0.0,0.0,0.0,0.0,0.0,0.0,0.0,0.0,0.0,0.0,0.0,0.0,0.0,0.0,0.0,0.0,0.0,0.0,0.0,0.0,0.0,0.0,0.0,0.0,0.0,0.0,0.0,0.0,0.0,0.0,0.0,0.0,0.0,0.0,0.0,0.0,0.0,0.0,0.0,0.0,0.0,0.0,0.0,0.0,0.0,0.0,0.0,0.0,0.0,0.0,0.0,0.0,0.0,0.0,0.0,0.0,0.0,0.0,0.0,0.0,0.0,0.0,0.0,0.0,0.0,0.0,0.0,0.0,0.0,0.0,0.0,0.0,0.0,0.0,0.0,0.0,0.0,0.0,0.0,0.0,0.0,0.0,0.0,0.0,0.0,0.0,0.0,0.0,0.0,0.0,0.0,0.0,0.0,0.0,0.0,0.0,0.0,0.0,0.0,0.0,0.0,0.0,0.0,0.0,0.0,0.0,0.0,0.0,0.0,0.0,0.0,0.0,0.0,0.0,0.0,0.0,0.0,0.0,0.0,0.0,0.0,0.0,0.0,0.0,0.0,0.0,0.0,0.0,0.0,0.0,0.0,0.0,0.0,0.0,0.0,0.0,0.0,0.0,0.0,0.0,0.0,0.0,0.0,0.0,0.0,0.0,0.0,0.0,0.0,0.0,0.0,0.0,0.0,0.0,0.0,0.0,0.0,0.0,0.0,0.0,0.0,0.0,0.0,0.0,0.0,0.0,0.0,0.0,0.0,0.0,0.0,0.0,0.0,0.0,0.0,0.0,0.0,0.0,0.0,0.0,0.0,0.0,0.0,0.0,0.0,0.0,0.0,0.0,0.0,0.0,0.0,0.0,0.0,0.0,0.0,0.0,0.0,0.0,0.0,0.0,0.0,0.0,0.0,0.0,0.0,0.0,0.0,0.0,0.0,0.0,0.0,0.0,0.0,0.0,0.0,0.0,0.0,0.0,0.0,0.0,0.0,0.0,0.0,0.0,0.0,0.0,0.0,0.0,0.0,0.0,0.0,0.0,0.0,0.0,0.0,0.0,0.0,0.0,0.0,0.0,0.0,0.0,0.0,0.0,0.0,0.0,0.0,0.0,0.0,0.0,0.0,0.0,0.0,0.0,0.0,0.0,0.0,0.0,0.0,0.0,0.0,0.0,0.0,0.0,0.0,0.0,0.0,0.0,0.0,0.0,0.0,0.0,0.0,0.0,0.0,0.0,0.0,0.0,0.0,0.0,0.0,0.0,0.0,0.0,0.0,0.0,0.0,0.0,0.0,0.0,0.0,0.0,0.0,0.0,0.0,0.0,0.0,0.0,0.0,0.0,0.0,0.0,0.0,0.0,0.0,0.0,0.0,0.0,0.0,0.0,0.0,0.0,0.0,0.0,0.0,0.0,0.0,0.0,0.0,0.0,0.0,0.0,0.0,0.0,0.0,0.0,0.0,0.0,0.0,0.0,0.0,0.0,0.0,0.0,0.0,0.0,0.0,0.0,0.0,0.0,0.0,0.0,0.0,0.0,0.0,0.0,0.0,0.0,0.0,0.0,0.0,0.0,0.0,0.0,0.0,0.0,0.0,0.0,0.0,0.0,0.0,0.0,0.0,0.0,0.0,0.0,0.0,0.0,0.0,0.0,0.0,0.0,0.0,0.0,0.0,0.0,0.0,0.0,0.0,0.0,0.0,0.0,0.0,0.0,0.0,0.0,0.0,0.0,0.0,0.0,0.0,0.0,0.0,0.0,0.0,0.0,0.0,0.0,0.0,0.0,0.0,0.0,0.0,0.0,0.0,0.0,0.0,0.0,0.0,0.0,0.0,0.0,0.0,0.0,0.0,0.0,0.0,0.0,0.0,0.0,0.0,0.0,0.0,0.0,0.0,0.0,0.0,0.0,0.0,0.0,0.0,0.0,0.0,0.0,0.0,0.0,0.0,0.0,0.0,0.0,0.0,0.0,0.0,0.0,0.0,0.0,0.0,0.0,0.0,0.0,0.0,0.0,0.0,0.0,0.0,0.0,0.0,0.0,0.0,0.0,0.0,0.0,0.0,0.0,0.0,0.0,0.0,0.0,0.0,0.0,0.0,0.0,0.0,0.0,0.0,0.0,0.0,0.0,0.0,0.0,0.0,0.0,0.0,0.0,0.0,0.0,0.0,0.0,0.0,0.0,0.0,0.0,0.0,0.0,0.0,0.0,0.0,0.0,0.0,0.0,0.0,0.0,0.0,0.0,0.0,0.0,0.0,0.0,0.0,0.0,0.0,0.0,0.0,0.0,0.0,0.0,0.0,0.0,0.0,0.0,0.0,0.0,0.0,0.0,0.0,0.0,0.0,0.0,0.0,0.0,0.0,0.0,0.0,0.0,0.0,0.0,0.0,0.0,0.0,0.0,0.0,0.0,0.0,0.0,0.0,0.0,0.0,0.0,0.0,0.0,0.0,0.0,0.0,0.0,0.0,0.0,0.0,0.0,0.0,0.0,0.0,0.0,0.0,0.0,0.0,0.0,0.0,0.0,0.0,0.0,0.0,0.0,0.0,0.0,0.0,0.0,0.0,0.0,0.0,0.0,0.0,0.0,0.0,0.0,0.0,0.0,0.0,0.0,0.0,0.0,0.0,0.0,0.0,0.0,0.0,0.0,0.0,0.0,0.0,0.0,0.0,0.0,0.0,0.0,0.0,0.0,0.0,0.0,0.0,0.0,0.0,0.0,0.0,0.0,0.0,0.0,0.0,0.0,0.0,0.0,0.0,0.0,0.0,0.0,0.0,0.0,0.0,0.0,0.0,0.0,0.0,0.0,0.0,0.0,-4.0645,0.0,0.0,0.0,0.0,0.0,0.0,0.0,0.0,0.0,0.0,0.0,0.0,0.0,0.0,0.0,0.0,0.0,0.0,0.0,0.0,0.0,0.0,0.0,0.0,0.0,0.0,0.0,0.0,0.0,0.0,0.0,0.0,0.0,0.0,0.0,0.0,0.0,0.0,0.0,0.0,0.0,0.0,-3.4722,-3.5014,0.0,0.0,0.0,0.0,0.0,0.0,0.0,0.0,0.0,0.0,0.0,0.0,0.0,0.0,0.0,0.0,0.0,0.0,0.0,0.0,0.0,0.0,0.0,0.0,0.0,0.0,0.0,0.0,0.0,0.0,0.0,0.0,0.0,0.0,0.0,0.0,0.0,0.0,0.0,0.0,0.0,0.0,0.0,0.0,0.0,0.0,0.0,0.0,0.0,0.0,0.0,0.0,0.0,0.0,0.0,0.0,0.0,0.0,0.0,0.0,0.0,0.0,0.0,0.0,0.0,0.0,0.0,0.0,0.0,0.0,0.0,0.0,-4.1692,0.0,0.0,0.0,0.0,0.0,0.0,0.0,0.0,0.0,0.0,0.0,0.0,0.0,0.0,0.0,0.0,0.0,0.0,0.0,0.0,0.0,0.0,0.0,0.0,0.0,0.0,0.0,0.0,0.0,0.0,0.0,0.0,0.0,0.0,0.0,0.0,0.0,0.0,0.0,0.0,0.0,-3.4218,-3.4738,-3.62,0.0,0.0,0.0,0.0,0.0,0.0,0.0,0.0,0.0,0.0,0.0,0.0,0.0,0.0,0.0,0.0,0.0,0.0,0.0,0.0,0.0,0.0,0.0,0.0,0.0,0.0,0.0,0.0,0.0,0.0,0.0,0.0,0.0,0.0,0.0,0.0,0.0,0.0,0.0,0.0,0.0,0.0,0.0,0.0,0.0,0.0,0.0,0.0,0.0,0.0,0.0,0.0,0.0,0.0,0.0,0.0,0.0,0.0,0.0,0.0,0.0,0.0,0.0,0.0,-4.5654,-4.5926,-4.6219,-4.6355,-4.6433,-4.6316,-4.415,-4.3064,-4.2826,-4.2666,0.0,0.0,0.0,0.0,0.0,0.0,0.0,0.0,0.0,0.0,0.0,0.0,0.0,0.0,0.0,0.0,0.0,0.0,0.0,0.0,0.0,0.0,0.0,0.0,0.0,0.0,0.0,0.0,0.0,0.0,0.0,0.0,0.0,0.0,0.0,0.0,0.0,-3.6186,-3.6751,-3.6635,-3.7106,-3.7918,-3.4847,0.0,0.0,0.0,0.0,0.0,0.0,0.0,0.0,0.0,0.0,0.0,0.0,0.0,0.0,0.0,0.0,0.0,0.0,0.0,0.0,0.0,0.0,0.0,0.0,0.0,0.0,0.0,0.0,0.0,0.0,0.0,0.0,0.0,0.0,0.0,0.0,0.0,0.0,0.0,0.0,0.0,0.0,0.0,-4.1107,-4.1107,0.0,0.0,0.0,0.0,0.0,0.0,0.0,0.0,0.0,0.0,0.0,0.0,0.0,-4.5338,-4.6975,-4.7735,-4.7793,-4.717,-4.8631,-4.8222,-4.6238,-4.6975,-4.7326,-4.7306,-4.6956,0.0,-4.4499,-4.3743,0.0,0.0,0.0,0.0,0.0,0.0,0.0,0.0,0.0,0.0,0.0,0.0,0.0,0.0,0.0,0.0,0.0,0.0,0.0,0.0,0.0,0.0,0.0,0.0,0.0,0.0,0.0,0.0,0.0,0.0,0.0,0.0,0.0,0.0,0.0,0.0,-3.6082,-3.6281,-3.7098,-3.6592,-3.6577,-3.6888,-3.5412,-3.4951,-3.5263,-3.4808,0.0,0.0,0.0,0.0,0.0,0.0,0.0,0.0,0.0,0.0,0.0,0.0,0.0,0.0,0.0,0.0,0.0,0.0,0.0,0.0,0.0,0.0,0.0,0.0,0.0,0.0,0.0,0.0,0.0,0.0,0.0,0.0,0.0,0.0,0.0,0.0,0.0,0.0,0.0,-4.1497,-4.1614,-4.1146,-4.1497,-4.1594,0.0,0.0,0.0,0.0,0.0,0.0,0.0,0.0,0.0,-4.4894,-4.6761,-4.791,-4.8222,-4.9547,-5.0268,-5.0365,-5.0618,-5.0404,-4.9781,-4.9683,-4.9644,-4.9644,-4.9644,-4.8915,-4.7629,-4.5802,-4.4012,-4.236,0.0,0.0,0.0,0.0,-4.1099,-4.1109,0.0,0.0,0.0,0.0,0.0,0.0,0.0,0.0,0.0,0.0,0.0,0.0,0.0,0.0,0.0,-3.6677,0.0,0.0,0.0,0.0,0.0,0.0,0.0,0.0,0.0,0.0,0.0,-3.6794,-3.6377,-3.6829,-3.8113,-3.7456,-3.7381,-3.779,-3.7605,-3.7167,-3.6469,-3.5392,-3.4546,0.0,0.0,0.0,0.0,0.0,0.0,0.0,0.0,0.0,0.0,0.0,0.0,0.0,0.0,0.0,0.0,0.0,0.0,0.0,0.0,0.0,0.0,0.0,0.0,0.0,0.0,0.0,0.0,0.0,0.0,0.0,0.0,0.0,0.0,0.0,0.0,0.0,0.0,-4.1984,-4.2257,-4.1224,-4.2202,-4.2549,0.0,0.0,0.0,0.0,0.0,0.0,-4.516,-4.6468,-4.6975,-4.655,-4.9216,-5.0482,-5.0112,-5.1787,-5.284,-5.3268,-5.284,-5.2742,-5.2898,-5.2041,-5.1632,-5.1612,-5.1398,-5.0813,-4.9823,-4.7499,-4.5289,-4.3324,-4.2887,-4.2318,-4.1738,-4.1757,-4.1772,-4.1762,0.0,0.0,0.0,0.0,0.0,0.0,0.0,0.0,0.0,0.0,0.0,0.0,0.0,0.0,-3.8474,-3.8474,-3.8513,-3.8164,0.0,0.0,0.0,0.0,0.0,0.0,0.0,0.0,0.0,-3.5958,-3.6746,-3.8416,-4.0909,-4.0851,-4.1688,-4.3169,-4.2351,-4.0606,-3.8175,-3.6524,-3.5771,-3.5603,0.0,0.0,0.0,0.0,0.0,0.0,0.0,0.0,0.0,0.0,0.0,0.0,0.0,0.0,0.0,0.0,0.0,0.0,0.0,0.0,0.0,0.0,0.0,0.0,0.0,0.0,0.0,0.0,0.0,0.0,0.0,0.0,0.0,0.0,0.0,0.0,0.0,0.0,0.0,-4.1283,-4.3273,0.0,0.0,0.0,0.0,-4.5884,-4.6004,-4.7072,-4.9547,-4.9761,-5.017,-5.095,-5.1943,-5.2859,-5.3638,-5.5372,-5.584,-5.5076,-5.586,-5.5392,-5.381,-5.2937,-5.2528,-5.2489,-5.1671,-5.0813,-4.9878,-4.8148,-4.6862,-4.5836,-4.418,-4.3513,-4.3482,-4.3554,-4.3573,-4.3572,0.0,0.0,0.0,0.0,0.0,0.0,0.0,0.0,0.0,0.0,0.0,0.0,0.0,-3.8415,-3.8806,-3.9331,-3.937,-3.8786,-3.7384,0.0,0.0,0.0,0.0,0.0,0.0,0.0,-3.6481,-3.8418,-3.8729,-3.9918,-4.1945,-4.1944,-4.2537,-4.3592,-4.3286,-4.2617,-4.1563,-3.8705,-3.6872,-3.5846,-3.5554,-3.438,0.0,0.0,0.0,0.0,0.0,0.0,0.0,0.0,0.0,0.0,0.0,0.0,0.0,0.0,0.0,0.0,0.0,0.0,0.0,0.0,0.0,0.0,0.0,0.0,0.0,0.0,0.0,0.0,0.0,0.0,0.0,0.0,0.0,0.0,0.0,0.0,0.0,-4.4442,-4.6624,0.0,-4.6585,-4.6761,-4.7209,-4.7832,-4.8358,-4.904,-4.9956,-5.1593,-5.2411,-5.2138,-5.4574,-5.5509,-5.4745,-5.6425,-5.7126,-5.6795,-5.6035,-5.5626,-5.5509,-5.3502,-5.2606,-5.2547,-5.169,-5.1125,-5.0755,-4.9586,-4.7949,-4.6141,-4.5514,-4.4582,-4.3613,-4.3684,-4.3691,-4.3709,0.0,0.0,0.0,0.0,0.0,0.0,0.0,0.0,0.0,0.0,0.0,-3.7061,-3.8804,-3.9528,-4.0093,-4.0639,-4.0405,-3.9409,-3.7438,0.0,0.0,0.0,-3.3261,-3.3638,-3.5092,-3.5701,-3.7246,-3.9803,-4.0095,-4.1265,-4.3236,-4.3244,-4.3686,-4.4486,-4.4482,-4.4482,-4.4312,-4.1707,-3.9468,-3.7579,-3.6693,-3.5804,-3.4957,0.0,0.0,0.0,0.0,0.0,0.0,0.0,0.0,0.0,0.0,0.0,0.0,0.0,0.0,0.0,0.0,0.0,0.0,0.0,0.0,0.0,0.0,0.0,0.0,0.0,0.0,0.0,0.0,0.0,0.0,0.0,0.0,0.0,0.0,-4.5241,-4.6975,-4.6667,-4.9157,-5.0443,-4.9313,-4.9469,-4.9898,-5.0482,-5.1008,-5.1573,-5.2158,-5.4087,-5.4788,-5.3931,-5.6386,-5.7165,-5.6054,-5.7145,-5.7559,-5.7286,-5.6171,-5.5626,-5.5548,-5.3522,-5.2606,-5.2547,-5.169,-5.13,-5.1222,-5.0365,-4.8845,-4.7053,-4.6745,-4.5757,-4.4471,-4.4537,-4.4569,-4.449,0.0,0.0,0.0,0.0,0.0,0.0,0.0,0.0,0.0,0.0,-3.669,-3.7909,-3.9642,-4.14,-4.2435,-4.2396,-4.1576,-3.9977,-3.7438,-3.4802,0.0,0.0,-3.213,-3.2597,-3.3533,-3.5248,-3.7381,-3.9959,-4.0819,-4.2516,-4.4976,-4.4976,-4.5424,-4.6244,-4.6243,-4.6234,-4.615,-4.5332,-4.3556,-4.1071,-3.8416,-3.7835,-3.826,0.0,0.0,0.0,0.0,0.0,0.0,0.0,0.0,0.0,0.0,0.0,0.0,0.0,0.0,0.0,0.0,0.0,0.0,0.0,0.0,0.0,0.0,0.0,0.0,0.0,0.0,0.0,0.0,0.0,0.0,0.0,0.0,0.0,-4.3718,-4.6702,-4.8573,-4.7793,-5.0696,-5.2099,-5.0404,-5.1008,-5.2197,-5.3853,-5.4009,-5.473,-5.637,-5.7247,-5.7325,-5.6526,-5.7286,-5.7695,-5.7656,-5.7715,-5.7345,-5.6546,-5.6507,-5.5626,-5.3989,-5.3034,-5.2606,-5.2586,-5.169,-5.1281,-5.1183,-5.0346,-4.9508,-4.867,-4.7832,-4.6969,-4.6191,-4.6198,-4.6249,-4.6051,0.0,0.0,0.0,0.0,0.0,0.0,0.0,0.0,0.0,0.0,-3.7276,-3.886,-4.0561,-4.2298,-4.3099,-4.2454,-4.103,-3.9078,-3.6519,0.0,0.0,0.0,-3.2714,-3.4334,-3.7108,-3.8205,-4.0335,-4.3576,-4.3814,-4.493,-4.6864,-4.6815,-4.6914,-4.7148,-4.7146,-4.6788,-4.6237,-4.6627,-4.6371,-4.5464,-4.2206,-4.0273,-3.9289,0.0,0.0,0.0,0.0,0.0,0.0,0.0,0.0,0.0,0.0,0.0,0.0,0.0,0.0,0.0,0.0,0.0,0.0,0.0,0.0,0.0,0.0,0.0,0.0,0.0,0.0,0.0,0.0,0.0,0.0,0.0,-4.5027,-4.6429,-4.6429,-4.8845,-5.0989,-5.2021,-5.4593,-5.6113,-5.5626,-5.5801,-5.5899,-5.5782,-5.6327,-5.6327,-5.5606,-5.6912,-5.7325,-5.6526,-5.7286,-5.7423,-5.6838,-5.8046,-5.8217,-5.7364,-5.678,-5.6546,-5.6561,-5.3833,-5.2937,-5.3463,-5.1943,-5.095,-5.035,-5.015,-4.9192,-4.7832,-4.7579,-4.6969,-4.6191,-4.6198,-4.623,-4.6134,0.0,0.0,0.0,0.0,0.0,0.0,0.0,0.0,0.0,0.0,-3.7702,-3.9208,-4.0912,-4.2007,-4.2415,-4.1908,-3.9956,-3.7809,-3.5603,0.0,0.0,0.0,-3.4178,-3.6306,-3.904,-4.0288,-4.224,-4.499,-4.499,-4.5714,-4.7042,-4.7018,-4.7003,-4.7004,-4.738,-4.7246,-4.6835,-4.8066,-4.8376,-4.7903,-4.6238,-4.4743,-4.3312,-4.1518,-4.0935,-4.0941,-3.9893,-4.0057,-4.0684,-4.0315,0.0,0.0,0.0,0.0,0.0,0.0,0.0,0.0,0.0,0.0,0.0,0.0,0.0,0.0,0.0,0.0,0.0,0.0,0.0,0.0,0.0,0.0,0.0,0.0,-4.7106,-4.8923,-5.0034,-5.1768,-5.3444,-5.4827,-5.6912,-5.81,-5.7734,-5.7695,-5.7364,-5.6565,-5.6935,-5.6775,-5.5801,-5.699,-5.7501,-5.7013,-5.7462,-5.7832,-5.8085,-5.7633,-5.7516,-5.7676,-5.6132,-5.5665,-5.6035,-5.3677,-5.2879,-5.3288,-5.1904,-5.0825,-5.003,-4.9686,-4.8735,0.0,0.0,0.0,0.0,0.0,-4.6262,-4.6183,0.0,0.0,0.0,0.0,0.0,0.0,0.0,0.0,0.0,0.0,0.0,-3.9334,-4.0795,-4.1129,-4.1129,-4.0836,-3.857,-3.6404,0.0,0.0,-3.2773,-3.3943,-3.6384,-3.8551,-4.0346,-4.2006,-4.3684,-4.5421,-4.5342,-4.5734,-4.6573,-4.6573,-4.6534,-4.6475,-4.7354,-4.7698,-4.775,-4.9508,-4.9804,-4.9178,-5.0037,-4.9755,-4.8363,-4.4465,-4.3855,-4.4802,-4.2492,-4.2203,-4.2734,-4.1761,0.0,0.0,0.0,0.0,0.0,0.0,0.0,0.0,0.0,0.0,0.0,0.0,0.0,0.0,0.0,0.0,0.0,0.0,0.0,0.0,0.0,0.0,0.0,0.0,-4.9276,-5.1312,-5.3845,-5.5026,-5.586,-5.6429,-5.7988,-5.8665,-5.7773,-5.7695,-5.7403,-5.6682,-5.6643,-5.6643,-5.6643,0.0,0.0,0.0,0.0,-5.8451,-5.9717,-5.7009,-5.623,-5.7379,-5.5236,-5.4145,-5.4004,-5.3034,-5.2606,-5.2547,-5.169,-5.0784,-4.9889,-4.9113,-4.8237,-4.7356,-4.7357,-4.6895,-4.6228,-4.6277,-4.63,-4.6183,0.0,0.0,0.0,0.0,0.0,0.0,0.0,0.0,0.0,-3.8287,-3.9641,-4.046,-4.0093,-4.1303,-4.1322,-3.9255,-3.734,-3.5504,0.0,0.0,-3.4471,-3.7459,-3.9372,-4.1498,-4.3936,-4.5012,-4.6378,-4.8076,-4.7412,-4.753,-4.831,-4.831,-4.7978,-4.7372,-4.8193,-4.8568,-4.867,-5.0406,-5.1054,-5.0978,-5.1859,-5.0838,-4.8623,-4.7105,-4.6712,-4.6821,-4.5637,-4.5771,-4.6255,-4.4676,-4.5205,-4.6125,-4.388,-4.3627,0.0,0.0,0.0,0.0,0.0,0.0,0.0,0.0,0.0,0.0,0.0,0.0,0.0,0.0,0.0,0.0,0.0,0.0,0.0,-4.9298,-5.1586,-5.3808,-5.5723,-5.7318,-5.7827,-5.6643,-5.7988,-5.8665,-5.7773,-5.7695,-5.7637,-5.7481,-5.7481,-5.7481,-5.7481,-5.8276,-5.8431,-5.7715,-5.8373,-5.7925,-5.621,-5.7574,-5.7399,-5.5684,0.0,0.0,-5.4901,-5.3327,-5.2606,-5.2547,-5.169,-5.0433,-4.9033,-4.8864,-4.7905,-4.6523,-4.6523,-4.6426,-4.6288,-4.6291,-4.63,-4.628,0.0,0.0,0.0,0.0,0.0,0.0,0.0,0.0,0.0,0.0,-3.9825,-4.0179,-3.9834,-4.0153,-3.9564,-3.7476,-3.5699,0.0,-3.4081,-3.4861,-3.6891,-4.0346,-4.2142,-4.4075,-4.6259,-4.712,-4.7959,-4.8798,-4.8835,-4.905,-4.9442,-4.9442,-4.9462,-4.952,-4.9911,-5.034,-5.0848,-5.2156,-5.2448,-5.2097,-5.2528,-5.1663,-5.0016,-4.9137,-4.8808,-4.8687,-4.7812,-4.7499,-4.7301,-4.6034,-4.6172,-4.6601,-4.4881,-4.4626,-4.4782,0.0,0.0,0.0,0.0,0.0,0.0,0.0,0.0,0.0,0.0,0.0,0.0,0.0,0.0,-4.5387,-4.6665,0.0,-5.0019,-5.1772,-5.3461,-5.5015,-5.6323,-5.7596,-5.8246,-5.7801,-5.8886,-5.9133,-5.7832,-5.7695,-5.754,-5.713,-5.7481,-5.7695,-5.7695,-5.81,-5.8548,-5.8996,-5.7769,-5.7301,-5.7749,-5.6444,-5.6015,-5.6444,-5.5606,-5.5431,-5.5782,-5.4048,-5.3245,-5.3176,-5.1869,-5.0599,-4.9388,-4.8555,-4.7457,-4.6297,-4.6297,-4.6302,-4.6306,-4.629,-4.63,-4.63,0.0,0.0,0.0,0.0,0.0,0.0,0.0,0.0,0.0,0.0,-3.9824,-3.9754,-3.9748,-3.8937,-3.7662,0.0,0.0,0.0,-3.5389,-3.6911,-3.939,-4.3001,-4.468,-4.6396,-4.8308,-4.8818,-4.9228,-4.956,-5.0087,-5.0358,-5.0358,-5.0358,-5.0729,-5.1414,-5.159,-5.2136,-5.3014,-5.3873,-5.3854,-5.3192,-5.3016,-5.2429,-5.1531,-5.0494,-5.0108,-5.0019,-4.9294,-4.8397,-4.7421,-4.6775,-4.6558,-4.64,-4.5526,-4.5363,-4.5265,-4.4055,-4.3196,0.0,0.0,0.0,0.0,0.0,0.0,0.0,0.0,-4.3274,-4.3704,-4.5595,-4.6554,-4.7608,-4.9462,-5.0963,-5.2477,-5.4197,-5.5039,-5.5758,-5.6636,-5.736,-5.8041,-5.869,-5.9377,-5.9172,-5.7617,-5.7481,-5.7267,-5.678,-5.7325,-5.7851,-5.8183,-5.8042,-5.8665,-6.0243,-5.7457,-5.7107,-5.9542,-5.5587,-5.4807,-5.7184,-5.5314,-5.5041,-5.6195,-5.4625,-5.3816,-5.3543,-5.1822,-5.0598,-4.9724,-4.8224,-4.71,-4.63,-4.63,-4.6293,-4.6303,-4.6308,-4.63,-4.63,0.0,0.0,0.0,0.0,0.0,0.0,0.0,0.0,0.0,0.0,0.0,0.0,0.0,0.0,0.0,0.0,0.0,-3.5526,-3.8004,-3.9019,-4.142,-4.5675,-4.6788,-4.8465,-5.0926,-5.0299,-5.0711,-5.2255,-5.159,-5.1258,-5.1258,-5.1258,-5.1316,-5.1433,-5.2214,-5.3034,-5.3912,-5.4771,-5.5103,-5.4947,-5.4166,-5.3327,-5.2372,-5.0729,-5.0108,-5.0094,-4.9993,-4.894,-4.7575,-4.7476,-4.7455,-4.7299,-4.6438,-4.669,-4.6825,-4.4406,-4.3626,-4.3196,-4.1558,-4.181,-4.2728,-4.3509,-4.3626,-4.4153,0.0,-4.6417,-4.6554,-4.9011,-4.9616,-5.0436,-5.2956,-5.3583,-5.4257,-5.5954,-5.6307,-5.6659,-5.7538,-5.7731,-5.7839,-5.792,-5.7977,-5.7637,-5.6721,-5.6624,-5.6896,-5.752,-5.7656,-5.8373,-5.9932,-5.9269,-5.9289,-6.0263,-5.9172,-5.8042,-5.6935,-5.7052,-5.6561,-5.5485,-5.5976,-5.5918,-5.5314,-5.4333,-5.3479,-5.2648,-5.0973,-4.9746,-4.8884,-4.7969,-4.71,-4.63,-4.63,-4.6302,-4.6305,-4.6302,-4.63,-4.63,0.0,0.0,0.0,0.0,0.0,0.0,0.0,0.0,0.0,0.0,0.0,0.0,0.0,0.0,0.0,0.0,0.0,-3.5931,-3.9096,-4.0561,-4.3235,-4.7569,-4.8584,-5.0028,-5.2117,-5.1804,-5.2214,-5.3463,-5.36,-5.3678,-5.3678,-5.3678,-5.3932,-5.442,-5.4283,-5.4693,-5.5493,-5.5357,-5.53,-5.522,-5.4342,-5.3171,-5.1863,-5.1121,-4.9618,-4.7959,-4.8465,-4.7859,0.0,0.0,-4.6083,-4.6025,-4.5656,-4.5792,-4.5773,-4.4172,-4.3705,-4.3645,-4.343,-4.3274,-4.3489,-4.4875,-4.5207,-4.5753,-4.7822,-4.8017,-4.8486,-5.1082,-5.2019,-5.2858,-5.4459,-5.5162,-5.5732,-5.6447,-5.6956,-5.7229,-5.7112,-5.7068,-5.6679,-5.5703,-5.5535,-5.5743,-5.6433,-5.6507,-5.6838,-5.7637,-5.8159,-5.8996,-6.0224,-5.9464,-5.962,-6.1003,-5.8276,-5.7165,-5.7949,-5.6308,-5.5645,-5.5957,-5.5801,-5.5542,-5.5188,-5.4828,-5.3931,-5.2614,-5.1929,-5.0825,-4.9535,-4.9192,-4.8269,-4.7061,-4.7061,-4.6749,-4.63,-4.63,-4.63,-4.63,0.0,0.0,0.0,0.0,0.0,0.0,0.0,0.0,0.0,0.0,0.0,0.0,0.0,0.0,0.0,0.0,-3.5569,-3.6524,-3.9548,-4.1367,-4.4038,-4.7864,-4.909,-5.0475,-5.2213,-5.2483,-5.3124,-5.4255,-5.5094,-5.5523,-5.5523,-5.5523,-5.5854,-5.6439,-5.609,-5.6272,-5.6838,-5.625,-5.5981,-5.5864,-5.4537,-5.3093,-5.1668,-5.0711,-4.8662,-4.6378,-4.7002,-4.6378,0.0,0.0,-4.4484,-4.4327,-4.4563,-4.4641,-4.4465,-4.3606,-4.3177,-4.3177,-4.4055,-4.4172,-4.4484,-4.6222,-4.7002,-4.7783,-4.9481,-5.0067,-5.077,-5.2663,-5.3756,-5.4556,-5.5181,-5.5611,-5.6118,-5.6821,-5.7231,-5.7348,-5.6977,-5.6702,-5.5971,-5.451,-5.4096,-5.4416,-5.5659,-5.6211,-5.6838,-5.7637,-5.8509,-5.9386,-6.0243,-5.925,-5.9445,-6.1198,-5.7555,-5.6678,-5.8977,-5.6093,-5.5244,-5.6492,-5.5867,-5.5558,-5.5548,-5.5088,-5.4082,-5.2687,-5.2458,-5.1355,-4.9753,-5.0007,-4.8972,-4.7276,-4.7508,-4.7061,-4.63,-4.63,-4.63,-4.63,0.0,0.0,0.0,0.0,0.0,0.0,0.0,0.0,0.0,0.0,0.0,0.0,0.0,0.0,-3.856,-3.6994,-3.6831,-3.7626,-3.9479,-4.1178,-4.3301,-4.5964,-4.7664,-4.9354,-5.1114,-5.1913,-5.3151,-5.4873,-5.5682,-5.609,-5.609,-5.609,-5.609,-5.6155,-5.7108,-5.754,-5.7587,-5.7677,-5.7719,-5.7504,-5.5005,-5.3463,-5.2294,-4.8974,-4.7139,-4.63,-4.6339,0.0,0.0,-4.345,-4.3177,-4.263,-4.3469,-4.3744,-4.3567,-4.2708,-4.1849,-4.1363,-4.224,-4.3684,-4.5381,-4.7137,-4.8777,-5.0436,-5.2175,-5.3249,-5.3854,-5.3932,-5.4654,-5.5259,-5.53,-5.4635,-5.4888,-5.7367,-5.7133,-5.6899,-5.766,-5.7094,-5.6247,-5.529,-5.4471,-5.3984,-5.3974,-5.5513,-5.6838,-5.7637,-5.8509,-5.9386,-6.0243,-5.8665,-5.8529,-6.0282,-5.7812,-5.7286,-5.8977,-5.7286,-5.6457,-5.6506,-5.6467,-5.6469,-5.6417,-5.4785,-5.3547,-5.2646,-5.1804,-5.0457,-4.8896,-4.9753,-4.8603,-4.6417,-4.7276,-4.7061,-4.63,-4.63,-4.63,-4.63,0.0,0.0,0.0,0.0,0.0,0.0,0.0,0.0,0.0,0.0,0.0,0.0,0.0,0.0,0.0,0.0,-3.7535,-3.7674,-3.9489,-4.1169,-4.2752,-4.422,-4.6989,-4.9043,-5.0215,-5.1078,-5.2341,-5.4031,-5.4303,-5.4744,-5.5307,-5.5307,-5.5592,-5.6117,-5.6457,-5.6592,-5.6617,-5.6745,-5.6799,-5.665,-5.4757,-5.3132,-5.1531,-4.8681,-4.6339,-4.4504,0.0,0.0,0.0,-4.2064,-4.1773,-4.1597,-4.1875,-4.1971,-4.2027,-4.2318,-4.3001,-4.3997,-4.5459,-4.751,-4.9657,-5.1414,-5.2702,-5.3854,-5.5025,-5.5064,-5.4869,-5.4869,-5.3717,-5.2897,-5.3465,-5.2858,-5.2936,-5.4947,-5.6469,-5.7309,-5.7035,-5.7231,-5.6434,-5.3849,-5.3294,-5.2675,-5.1484,-5.3442,-5.5372,-5.6799,-5.7183,-5.7944,-5.9352,-5.832,-5.8237,-5.9406,-5.754,-5.7033,-5.8124,-5.7053,-5.6491,-5.6489,-5.5905,-5.5664,-5.5676,-5.4517,-5.3514,-5.2685,-5.2392,-5.1277,-4.9694,-4.9987,-4.8933,-4.7198,-4.7489,-4.7061,-4.63,-4.63,-4.63,-4.63,0.0,0.0,0.0,0.0,0.0,0.0,0.0,0.0,0.0,0.0,0.0,0.0,0.0,0.0,0.0,0.0,0.0,-3.813,-3.8972,-4.0604,-4.1778,-4.2333,-4.5079,-4.6972,-4.7831,-4.8386,-4.951,-5.1208,-5.1499,-5.208,-5.2945,-5.3255,-5.3681,-5.4184,-5.4553,-5.4872,-5.5131,-5.4975,-5.5097,-5.5205,-5.2994,-5.1284,-4.9755,-4.7198,-4.4972,0.0,0.0,0.0,0.0,-4.1285,-4.1109,-4.1109,-4.1094,-4.1093,-4.1324,-4.2513,-4.3879,-4.5517,-4.7859,-5.0145,-5.2351,-5.442,-5.5571,-5.6255,-5.6547,-5.6391,-5.5669,-5.3815,-5.2605,-5.157,-5.0596,-5.0204,-5.0594,-5.2331,-5.3971,-5.5298,-5.602,-5.604,-5.5396,-5.3817,-5.3089,-5.2374,-5.1573,-5.2967,-5.4511,-5.5928,-5.6616,-5.7438,-5.8518,-5.7743,-5.7668,-5.8543,-5.7219,-5.6898,-5.7736,-5.6907,-5.6495,-5.6486,-5.5957,-5.5726,-5.5728,-5.4537,-5.3698,-5.3132,-5.2507,-5.1258,-4.9655,-4.9967,-4.8933,-4.7178,-4.7489,-4.7061,-4.63,-4.63,-4.63,-4.63,0.0,0.0,0.0,0.0,0.0,0.0,0.0,0.0,0.0,0.0,0.0,0.0,0.0,0.0,0.0,0.0,0.0,0.0,-3.8123,-3.9592,-4.0477,-4.0439,-4.2143,-4.3451,-4.422,-4.4278,-4.5124,-4.6827,-4.7605,-4.8413,-4.9279,-5.0106,-5.0539,-5.0606,-5.1573,-5.2407,-5.3093,-5.246,-5.2704,-5.3221,-4.9901,-4.8148,-4.7233,-4.468,0.0,0.0,0.0,-4.1226,-4.1226,-4.1187,-4.1207,-4.1226,-4.1226,-4.1265,-4.1617,-4.3276,-4.4543,-4.6103,-4.9343,-5.1629,-5.3698,-5.6177,-5.7328,-5.7641,-5.686,-5.7113,-5.6118,-5.1139,-5.1277,-5.1064,-4.6983,-4.6944,-4.8094,-4.9811,-5.0241,-5.1548,-5.4888,-5.4012,-5.3602,-5.5181,-5.3934,-5.3268,-5.4068,-5.4127,-5.4461,-5.5269,0.0,-5.7697,-5.7724,-5.6951,-5.6875,-5.7702,-5.6932,-5.6904,-5.7724,-5.6905,-5.6502,-5.65,-5.6561,-5.6586,-5.6489,-5.4771,-5.3971,-5.3834,-5.2136,-5.0418,-4.8857,-4.9694,-4.8564,-4.6378,-4.7217,-4.7022,-4.63,-4.63,-4.63,-4.63,0.0,0.0,0.0,0.0,0.0,0.0,0.0,0.0,0.0,0.0,0.0,0.0,0.0,0.0,0.0,0.0,0.0,0.0,-3.8977,-3.9938,-4.0227,-3.9631,-4.1854,-4.3201,-4.3393,-4.3989,-4.4836,-4.5932,-4.6144,-4.6682,-4.7548,-4.7759,-4.8182,-4.8759,-4.9035,-4.9255,-4.9446,-4.9388,-4.9479,-4.9523,0.0,-4.6648,-4.6276,0.0,0.0,0.0,0.0,-4.3042,-4.2944,-4.2298,-4.2497,-4.3048,-4.3043,-4.3474,-4.4082,-4.4545,-4.7549,-5.0926,-5.1804,-5.5162,-5.8597,-5.9261,-5.9104,-5.8538,-5.7699,-5.5689,-5.3268,-5.0631,-4.8426,-4.6632,-4.5539,-4.6046,-4.7393,-4.9714,-5.2273,-5.4517,-5.6059,-5.6957,-5.7172,-5.6352,-5.6411,-5.6352,-5.5962,-5.5942,-5.6261,-5.7076,-5.6345,-5.6152,-5.6796,-5.6616,-5.6591,-5.6818,-5.6628,-5.6612,-5.6826,-5.6601,-5.6539,-5.6579,-5.6591,-5.6255,-5.5591,-5.4498,-5.3659,-5.2975,-5.1863,-5.0418,-4.8818,-4.9032,-4.8017,-4.6319,-4.6534,-4.6495,-4.63,-4.63,-4.63,-4.63,0.0,0.0,0.0,0.0,0.0,0.0,0.0,0.0,0.0,0.0,0.0,0.0,0.0,0.0,0.0,0.0,0.0,0.0,0.0,-4.0054,-4.015,-3.9342,-4.0662,-4.1604,-4.195,-4.1681,-4.2316,-4.3932,0.0,0.0,-4.524,-4.524,-4.547,-4.5913,-4.5913,-4.6105,-4.6402,-4.6143,0.0,0.0,0.0,0.0,0.0,0.0,0.0,0.0,-4.3679,-4.3957,-4.425,-4.4153,-4.4175,-4.4275,-4.4271,-4.5132,-4.6363,-4.7471,-5.0399,-5.36,-5.5103,-5.7894,-6.049,-6.0861,-6.0022,-5.8675,-5.7074,-5.4637,-5.1785,-4.8523,-4.6632,-4.5226,-4.4075,-4.4563,-4.587,-4.8076,-5.0399,-5.2741,-5.5123,-5.6274,-5.7074,-5.7641,-5.7758,-5.7777,-5.7699,-5.7699,-5.7875,-5.8343,-5.7111,-5.6711,-5.7595,-5.7284,-5.707,-5.7069,-5.6738,-5.6542,-5.6542,-5.6536,-5.6564,-5.6606,-5.6216,-5.5767,-5.5261,-5.399,-5.3151,-5.2646,0.0,-5.0418,-4.8798,-4.8798,-4.7803,-4.63,-4.63,-4.63,-4.63,-4.63,-4.63,-4.63,0.0,0.0,0.0,0.0,0.0,0.0,0.0,0.0,0.0,0.0,0.0,0.0,0.0,0.0,0.0,0.0,0.0,0.0,0.0,0.0,0.0,0.0,-3.9457,-3.9785,-4.0477,-3.9084,-3.9411,-4.1643,-4.0873,-4.1266,0.0,0.0,0.0,0.0,0.0,0.0,0.0,0.0,0.0,0.0,0.0,0.0,0.0,0.0,0.0,0.0,-4.3962,-4.4524,-4.5304,-4.6183,-4.5968,-4.5381,-4.5615,-4.6864,-4.874,-5.1063,-5.3229,-5.5493,-5.848,-6.008,-6.1076,-6.172,-6.0312,-5.8128,-5.5689,-5.3426,-5.0516,-4.5792,-4.5421,-4.5226,-4.2845,-4.3294,-4.4602,-4.6358,-4.7451,-4.9519,-5.36,-5.4361,-5.565,-5.8731,-5.8636,-5.8616,-5.9375,-5.9239,-5.9141,-5.9261,-5.8363,-5.8121,-5.8881,-5.8201,-5.7752,-5.7632,-5.6951,-5.6606,-5.6606,-5.6606,-5.6547,-5.6411,-5.5669,-5.524,-5.5064,-5.3446,-5.2704,-5.2646,-5.1785,0.0,-4.8798,-4.8798,-4.7803,-4.63,-4.63,-4.63,-4.63,-4.63,-4.63,-4.63,0.0,0.0,0.0,0.0,0.0,0.0,0.0,0.0,0.0,0.0,-4.095,-4.0496,0.0,0.0,0.0,0.0,0.0,0.0,0.0,0.0,0.0,0.0,-4.0285,-4.0362,-4.0496,-4.0227,-4.0285,-4.0727,-4.0573,-4.065,0.0,0.0,0.0,0.0,0.0,0.0,0.0,0.0,0.0,0.0,0.0,0.0,0.0,0.0,0.0,0.0,-4.5542,-4.5948,-4.6202,-4.7081,-4.7274,-4.7391,-4.8777,-5.0418,-5.2038,-5.321,-5.6274,-5.9417,-6.0002,-6.1857,-6.3496,-6.2911,-5.9885,-5.6547,-5.4654,-5.0692,-4.6749,-4.4406,-4.4055,-4.3782,-4.2611,-4.4289,-4.6397,-4.8096,-4.9696,-5.1765,-5.4674,-5.6274,-5.7621,-5.8946,-6.0234,-6.1074,-6.123,-5.9941,-5.9397,-6.0119,-5.8695,-5.7877,-5.802,-5.7879,-5.7506,-5.6829,-5.6667,-5.6606,-5.6606,-5.6606,-5.6235,-5.5513,-5.5376,-5.4927,-5.4186,-5.3171,-5.2704,-5.2646,-5.1785,0.0,-4.8798,-4.8798,-4.7803,-4.63,-4.63,-4.63,-4.63,-4.63,-4.63,-4.63,0.0,0.0,0.0,0.0,0.0,0.0,0.0,-4.1527,-4.1962,-4.2431,-4.2104,-4.1681,-4.1219,-4.0766,-4.0496,0.0,0.0,0.0,0.0,0.0,0.0,0.0,0.0,0.0,0.0,-4.1623,-4.2047,-4.2478,0.0,-4.2066,-4.2478,-4.2047,-4.1854,-4.1873,-4.2297,-4.2489,-4.2508,-4.2912,0.0,-4.3132,-4.3589,-4.3775,0.0,0.0,0.0,0.0,0.0,-4.6243,-4.6436,-4.7315,-4.7606,-4.7977,-5.0104,-5.198,-5.3717,-5.5474,-5.807,-6.0607,-6.1505,-6.3008,-6.3984,-6.2657,-5.9436,-5.5903,-5.3249,-4.9716,-4.6358,-4.4153,-4.4055,-4.425,-4.384,-4.4777,-4.6183,-4.79,-4.9228,-5.1121,-5.4186,-5.5708,-5.7309,-5.9514,-6.0119,-6.0527,-6.0978,-5.9866,-5.928,-5.969,-5.8948,-5.848,-5.848,-5.805,-5.7426,-5.6626,-5.6606,-5.6606,-5.6606,-5.6606,-5.6157,-5.53,-5.483,-5.4166,-5.3288,-5.2429,-5.2019,-5.1999,-5.159,0.0,-4.8798,-4.8798,-4.7803,-4.63,-4.63,-4.63,-4.63,-4.63,-4.63,-4.63,0.0,0.0,0.0,0.0,0.0,0.0,0.0,-4.1962,-4.2393,-4.3239,-4.3355,-4.3028,-4.2181,-4.1296,-4.0708,0.0,0.0,0.0,0.0,0.0,0.0,0.0,0.0,0.0,0.0,0.0,0.0,-4.3758,-4.3316,0.0,0.0,0.0,0.0,0.0,-4.3278,-4.3355,-4.3374,-4.3566,-4.3643,0.0,0.0,-4.4586,0.0,0.0,0.0,0.0,0.0,-4.6112,-4.635,-4.7257,-4.7548,-4.793,-5.0343,-5.2305,-5.4186,-5.6567,-5.8753,-6.0783,-6.252,-6.3633,-6.3887,-6.2149,-5.8987,-5.5415,-5.1921,-4.9013,-4.6417,-4.4153,-4.4387,-4.499,-4.499,-4.5148,-4.5792,-4.7352,-4.8135,-4.9696,-5.2975,-5.4342,-5.6157,-5.9222,-5.93,-5.9378,-6.0061,-5.9339,-5.8812,-5.8812,-5.8656,-5.8636,-5.8812,-5.8011,-5.725,-5.6626,-5.6606,-5.6606,-5.6606,-5.6411,-5.5884,-5.5005,-5.4147,-5.3268,-5.2392,-5.1707,-5.1394,-5.1394,-5.1394,0.0,0.0,-4.8798,-4.7803,-4.63,-4.63,-4.63,-4.63,-4.63,-4.63,-4.63,0.0,0.0,0.0,0.0,0.0,0.0,0.0,-4.247,-4.3278,-4.4085,-4.4182,-4.3874,-4.3066,-4.22,-4.1354,0.0,0.0,0.0,0.0,0.0,0.0,0.0,0.0,0.0,0.0,0.0,0.0,-4.2019,-4.2758,0.0,0.0,0.0,0.0,0.0,0.0,-4.4182,-4.4239,-4.5037,0.0,0.0,0.0,0.0,0.0,0.0,0.0,0.0,0.0,-4.5925,-4.6081,-4.7081,-4.7349,-4.7588,-4.9524,-5.1361,-5.3173,-5.5007,-5.7836,-6.0783,-6.252,-6.3633,-6.3887,-6.2149,-5.8538,-5.4517,-5.1002,-4.7645,-4.4953,-4.3918,-4.4387,-4.499,-4.499,-4.5656,-4.6495,-4.745,-4.7664,-4.8621,-5.1277,-5.3073,-5.483,-5.6723,-5.8226,-5.9122,-5.92,-5.8421,-5.7914,-5.7914,-5.7231,-5.7153,-5.7875,-5.7153,-5.6684,-5.6606,-5.6606,-5.6606,-5.6606,-5.5806,-5.4986,-5.4108,-5.3249,-5.2351,-5.1511,-5.1433,-5.1394,-5.1394,-5.1394,0.0,0.0,-4.8798,-4.7803,-4.63,-4.63,-4.63,-4.63,-4.63,-4.63,-4.63,0.0,0.0,0.0,0.0,0.0,0.0,-4.1681,-4.2547,-4.3393,-4.4182,-4.4759,-4.4759,-4.3912,-4.3085,-4.2027,-4.0612,0.0,0.0,0.0,0.0,0.0,0.0,0.0,0.0,0.0,0.0,-4.3566,-4.4085,-4.4432,0.0,0.0,0.0,0.0,0.0,0.0,-4.5075,-4.5114,-4.546,0.0,0.0,0.0,0.0,0.0,0.0,0.0,0.0,0.0,0.0,-4.5968,-4.6358,-4.6465,-4.6551,-4.7301,-4.8392,-5.005,-5.341,-5.6095,-5.8504,-6.0815,-6.2071,-6.2325,-6.0566,-5.7309,-5.36,-5.0106,-4.7471,-4.5539,-4.466,-4.5187,-4.5773,-4.5773,-4.6066,-4.6417,-4.6768,-4.6827,-4.753,-4.956,-5.0438,-5.2097,-5.5415,-5.5942,-5.6626,-5.8168,-5.7562,-5.686,-5.6333,-5.6001,-5.5728,-5.5513,-5.6196,-5.6118,-5.5064,-5.5532,-5.5571,-5.5044,-5.4693,-5.4088,-5.321,-5.288,-5.2234,-5.1394,-5.1394,-5.1394,-5.1394,-5.1394,0.0,0.0,-4.9577,-4.8584,-4.7081,-4.7081,-4.6768,-4.63,-4.63,-4.63,-4.63,0.0,0.0,0.0,0.0,0.0,-4.0785,-4.1681,-4.2547,-4.3393,-4.4182,-4.4836,-4.5075,-4.472,-4.3508,-4.2335,-4.1362,-4.0804,0.0,0.0,0.0,0.0,0.0,0.0,0.0,0.0,0.0,-4.4355,-4.5229,-4.5479,-4.5594,0.0,0.0,-4.5594,-4.5594,0.0,0.0,0.0,0.0,0.0,0.0,0.0,0.0,0.0,0.0,0.0,0.0,0.0,0.0,0.0,0.0,0.0,-4.5821,-4.5858,-4.6253,-4.7448,-5.1147,-5.3658,-5.5775,-5.8178,-5.9505,-5.9844,-5.8343,-5.5571,-5.2448,-4.9481,-4.749,-4.6124,-4.5519,-4.587,-4.63,-4.63,-4.63,-4.63,-4.63,-4.63,-4.6807,-4.8232,-4.8642,-5.0028,-5.3366,-5.3444,-5.4147,-5.645,-5.6391,-5.5845,-5.4986,-5.4927,-5.442,-5.3288,-5.4888,-5.5279,-5.4049,-5.4596,-5.4615,-5.401,-5.3737,-5.3307,-5.2704,-5.245,-5.198,-5.1394,-5.1394,-5.1394,-5.1394,-5.1394,0.0,0.0,-5.0104,-4.9245,-4.7938,-4.7684,-4.7217,-4.6651,-4.6397,-4.63,-4.63,0.0,0.0,0.0,0.0,0.0,0.0,-4.1681,-4.2547,-4.3393,-4.4182,-4.4316,-4.4643,-4.5498,-4.3335,-4.2162,-4.3008,-4.1497,0.0,0.0,0.0,0.0,0.0,0.0,0.0,0.0,0.0,-4.3508,-4.4316,-4.519,-4.5594,-4.5594,-4.5594,-4.5594,-4.5594,0.0,0.0,0.0,0.0,0.0,0.0,0.0,0.0,0.0,0.0,0.0,0.0,0.0,0.0,0.0,0.0,0.0,0.0,0.0,-4.5723,-4.6007,-4.799,-5.0451,-5.2917,-5.4675,-5.5889,-5.645,-5.5552,-5.3366,-5.0965,-4.9208,-4.749,-4.63,-4.628,-4.628,-4.63,-4.63,-4.63,-4.63,-4.63,-4.63,-4.6612,-4.7489,-4.8291,-4.915,-5.0046,-5.0906,-5.2117,-5.3873,-5.481,-5.4947,-5.4088,-5.401,0.0,-5.1511,-5.3073,-5.4029,-5.401,-5.401,-5.401,-5.401,-5.3132,-5.2704,-5.2685,-5.1824,-5.1414,-5.1394,-5.1394,-5.1394,-5.1394,0.0,0.0,0.0,-5.0104,-4.9577,-4.8701,-4.7918,-4.7586,-4.7489,-4.6612,-4.63,-4.63,0.0,0.0,0.0,0.0,0.0,0.0,0.0,-4.1643,-4.2324,-4.2625,-4.3134,-4.3577,-4.3866,-4.2691,-4.1963,-4.2181,-4.1162,0.0,0.0,0.0,0.0,0.0,0.0,0.0,0.0,-4.3508,-4.4335,-4.519,-4.546,-4.5594,-4.5594,-4.5594,-4.5594,-4.5594,-4.5594,-4.5594,0.0,0.0,0.0,0.0,0.0,0.0,0.0,0.0,0.0,0.0,0.0,0.0,0.0,0.0,0.0,0.0,0.0,0.0,0.0,-4.6333,-4.8004,-5.0025,-5.1876,-5.2641,-5.2848,-5.2575,-5.104,-4.9325,-4.8232,-4.712,-4.63,-4.63,-4.63,-4.63,-4.63,-4.63,-4.63,-4.63,-4.63,-4.6397,-4.6671,-4.7432,-4.874,-5.075,-5.3346,-5.5162,-5.5728,-5.5493,-5.4947,-5.4068,-5.3444,-5.2605,-5.1453,-5.1921,-5.2214,-5.2214,-5.28,-5.2839,-5.2234,-5.1941,-5.1804,-5.1804,-5.1531,-5.1394,-5.1394,-5.1394,-5.1394,0.0,0.0,0.0,0.0,-5.0984,-5.0477,-4.9597,-4.8759,-4.8427,-4.833,-4.749,-4.7198,-4.7198,0.0,0.0,0.0,0.0,0.0,0.0,0.0,-4.1321,-4.1896,-4.1977,-4.2422,-4.2943,-4.355,-4.2314,-4.1673,-4.2247,-4.1181,0.0,0.0,0.0,0.0,0.0,0.0,0.0,-4.3528,-4.4047,-4.472,-4.5594,-4.5932,-4.5913,-4.5614,-4.5932,-4.5913,-4.5594,-4.5594,-4.5594,0.0,0.0,0.0,0.0,0.0,0.0,-4.5612,0.0,0.0,0.0,0.0,0.0,0.0,0.0,0.0,0.0,0.0,0.0,0.0,0.0,-4.64,-4.7615,-4.9168,-4.9886,-5.0177,-5.0177,-4.9218,-4.8147,-4.764,-4.6893,-4.63,-4.63,-4.63,-4.63,-4.63,-4.63,-4.63,-4.63,-4.63,-4.63,-4.63,-4.7042,-4.8308,-5.0184,-5.2917,-5.4635,-5.4635,-5.4439,-5.4088,-5.3541,-5.2702,-5.196,-5.1433,-5.1394,-5.1394,-5.1394,-5.1921,-5.1941,-5.1414,-5.1394,-5.1394,-5.1394,-5.1394,-5.1394,-5.1394,-5.1394,-5.1394,0.0,0.0,0.0,0.0,-5.0906,-5.0399,-4.9538,-4.8681,-4.8349,-4.8291,-4.7781,-4.7606,-4.7606,0.0,0.0,0.0,0.0,0.0,0.0,0.0,-4.1396,-4.1944,-4.2014,-4.2006,-4.2578,-4.4072,-4.2117,-4.1293,-4.2799,0.0,0.0,0.0,0.0,0.0,0.0,0.0,0.0,-4.4259,-4.4355,-4.4778,-4.5594,-4.6471,-4.649,-4.571,-4.6586,-4.6528,-4.5691,-4.5691,-4.5671,-4.5594,-4.5594,-4.5594,-4.5594,-4.5594,-4.5603,0.0,0.0,0.0,0.0,0.0,0.0,0.0,0.0,0.0,0.0,0.0,0.0,0.0,0.0,0.0,0.0,0.0,-4.763,-4.8314,-4.8314,-4.781,-4.7306,-4.7306,-4.6774,0.0,-4.63,-4.63,-4.63,-4.63,-4.63,-4.63,-4.63,-4.63,-4.63,-4.63,-4.7159,-4.8074,-4.8896,-5.0516,-5.155,-5.1492,-5.2214,-5.2704,-5.2704,-5.1882,-5.1394,-5.1394,-5.1394,-5.1394,-5.1394,-5.1336,-5.1336,-5.1394,-5.1394,-5.1394,-5.1394,-5.1394,-5.1375,-5.1316,-5.1316,-5.1277,0.0,0.0,0.0,0.0,-5.0007,-4.954,-4.872,-4.7918,-4.7625,-4.7684,-4.7625,-4.7606,-4.7606,0.0,0.0,0.0,0.0,0.0,0.0,0.0,0.0,0.0,0.0,-4.119,-4.1338,-4.1699,-4.1111,-4.0845,0.0,0.0,0.0,0.0,0.0,0.0,0.0,0.0,0.0,-4.4278,-4.4951,-4.5402,-4.5594,-4.6471,-4.6797,-4.6605,-4.7432,-4.7375,-4.6586,-4.6586,-4.622,-4.5594,-4.5594,-4.5594,-4.5594,-4.5594,-4.566,0.0,0.0,0.0,0.0,-4.6173,-4.6147,0.0,0.0,0.0,0.0,0.0,0.0,0.0,0.0,-4.5594,-4.5642,-4.5896,0.0,-4.6422,-4.6422,-4.6411,-4.641,0.0,-4.6345,-4.63,-4.63,-4.63,-4.63,-4.63,-4.63,-4.63,-4.63,-4.63,-4.63,-4.63,-4.8154,-4.9831,-5.0692,-5.2331,-5.3132,-5.2468,-5.2587,-5.2704,-5.2704,-5.1882,-5.1394,-5.1394,-5.1394,-5.1394,-5.1394,-5.0748,-5.0729,-5.1394,-5.1394,-5.1394,-5.1394,-5.1394,-5.1043,-5.0416,-5.0416,-5.0048,0.0,0.0,0.0,-4.9111,-4.9111,-4.8974,-4.872,-4.7918,-4.7978,-4.8447,-4.782,-4.7606,-4.7606,0.0,0.0,0.0,0.0,0.0,0.0,0.0,0.0,0.0,0.0,0.0,-4.1009,-4.0959,-4.0889,0.0,0.0,0.0,0.0,0.0,0.0,0.0,0.0,0.0,-4.4047,-4.4874,-4.5364,-4.5594,-4.5594,-4.6471,-4.6701,-4.6317,-4.7163,-4.7105,-4.6297,-4.6297,-4.6028,-4.5594,-4.566,-4.5692,-4.568,-4.5737,0.0,0.0,0.0,0.0,0.0,-4.6247,-4.6201,0.0,-4.5949,-4.5863,-4.5789,0.0,0.0,0.0,0.0,-4.5594,-4.5594,-4.5594,-4.5643,-4.5712,-4.5786,-4.59,-4.6013,-4.6091,-4.6209,-4.63,-4.63,-4.63,-4.63,-4.63,-4.63,-4.63,-4.63,-4.63,-4.6436,-4.6846,-4.8074,-4.9401,-5.0653,-5.1646,-5.2175,0.0,-5.2097,-5.2097,-5.2097,-5.1668,-5.1238,-5.0828,-5.0809,-5.0614,-5.0223,-4.9755,-4.993,-5.0809,-5.0418,-5.0204,-5.0204,-5.0204,-4.9969,-4.9501,-4.9501,-4.9247,0.0,0.0,0.0,-4.8252,-4.8252,-4.8017,-4.7608,-4.7178,-4.7276,-4.7647,-4.7606,-4.7606,-4.7606,0.0,0.0,0.0,0.0,0.0,0.0,0.0,0.0,0.0,0.0,0.0,0.0,0.0,0.0,0.0,0.0,0.0,0.0,0.0,0.0,0.0,0.0,-4.3932,-4.4701,-4.5575,-4.5594,-4.5594,-4.5594,-4.6605,-4.6644,-4.5825,-4.6817,-4.6759,-4.5787,-4.5671,-4.5594,-4.5603,-4.5742,-4.5807,-4.5821,-4.5875,0.0,0.0,0.0,0.0,0.0,0.0,0.0,0.0,-4.5959,-4.5861,-4.5783,-4.5651,0.0,0.0,0.0,0.0,0.0,-4.5594,-4.5612,-4.5651,-4.5771,-4.5853,-4.593,-4.6064,-4.6209,-4.63,-4.63,-4.63,-4.63,-4.63,-4.63,-4.63,-4.63,-4.6417,-4.6807,-4.7664,-4.7899,-4.8504,-4.9928,-5.0221,0.0,-5.1141,-5.1199,-5.1199,-5.1199,-5.1082,-5.0672,-4.9948,-4.9909,-4.9558,-4.8818,-4.8681,-4.8974,-4.9714,-4.9111,-4.8798,-4.8798,-4.8798,-4.874,-4.8623,-4.8623,-4.8545,-4.8427,0.0,0.0,-4.7391,-4.7391,-4.6963,-4.63,-4.63,-4.63,-4.6397,-4.7139,-4.7391,-4.7391,0.0,0.0,0.0,0.0,0.0,0.0,0.0,0.0,0.0,0.0,0.0,0.0,0.0,0.0,0.0,0.0,0.0,0.0,0.0,0.0,0.0,-4.4124,-4.422,-4.4701,-4.5575,-4.5594,-4.5594,-4.5594,-4.7163,-4.7509,-4.674,-4.8298,-4.8182,-4.6682,-4.5932,-4.5594,-4.5603,-4.5742,-4.5807,-4.5821,-4.5875,0.0,0.0,0.0,0.0,0.0,0.0,0.0,0.0,-4.5982,-4.5886,-4.5852,-4.5661,0.0,0.0,0.0,0.0,0.0,-4.5594,-4.5684,-4.5778,-4.58,-4.5853,-4.593,-4.6064,-4.6209,-4.63,-4.63,-4.63,-4.63,-4.63,-4.63,-4.63,-4.63,-4.6924,-4.7686,-4.8505,-4.9245,-4.9811,-5.0065,0.0,-5.0965,-5.0358,-5.0299,-5.0299,-5.0299,-4.9618,-4.913,-4.9013,-4.8993,-4.8935,-4.8798,-4.8135,-4.784,-4.7977,-4.8525,-4.8798,-4.8798,-4.8798,-4.8447,-4.7781,-4.7781,-4.7373,-4.6671,0.0,-4.6612,-4.6495,-4.6495,-4.6417,-4.63,-4.63,-4.63,-4.6319,-4.6456,-4.6495,-4.6495,0.0,0.0,0.0,0.0,0.0,0.0,0.0,0.0,0.0,0.0,0.0,0.0,0.0,0.0,0.0,0.0,0.0,0.0,0.0,0.0,-4.4998,-4.4998,-4.4998,-4.519,-4.5594,-4.5594,-4.5825,-4.6297,-4.7067,-4.725,-4.6904,-4.7201,-4.6932,-4.6182,-4.5787,-4.5646,-4.5704,-4.5803,-4.59,-4.5964,0.0,0.0,0.0,0.0,0.0,0.0,0.0,0.0,0.0,0.0,-4.5951,-4.5886,-4.5754,0.0,0.0,0.0,0.0,0.0,-4.561,-4.5725,-4.5838,-4.5846,-4.5929,-4.6045,-4.6178,-4.6267,-4.63,-4.63,-4.63,-4.63,-4.63,-4.63,-4.6456,-4.6924,-4.7332,-4.7879,-4.8681,-4.915,-4.9577,0.0,0.0,-5.0534,-5.0143,-5.0104,-4.9909,-4.9423,-4.9032,-4.8603,-4.8174,-4.8154,-4.7939,-4.7451,-4.7081,-4.6905,-4.6905,-4.7256,-4.7451,-4.7451,-4.7451,-4.7256,-4.6905,-4.6905,-4.6671,-4.63,0.0,-4.63,-4.63,-4.63,-4.63,-4.63,-4.63,-4.63,-4.63,-4.63,-4.63,-4.63,0.0,0.0,0.0,0.0,0.0,0.0,0.0,0.0,0.0,0.0,0.0,0.0,0.0,0.0,0.0,0.0,0.0,0.0,0.0,-4.4638,-4.5426,-4.5594,-4.5594,-4.5594,-4.5594,-4.5594,-4.6028,-4.6904,-4.6904,-4.6904,-4.6885,-4.6009,-4.5594,-4.5594,-4.5594,-4.5676,-4.5794,-4.5869,-4.5983,-4.6105,0.0,0.0,0.0,0.0,0.0,0.0,0.0,0.0,0.0,0.0,0.0,0.0,0.0,0.0,0.0,-4.5654,-4.5718,-4.5764,-4.5643,-4.577,-4.5939,-4.5915,-4.6,-4.6138,-4.6271,-4.63,-4.63,-4.63,-4.63,-4.63,-4.63,-4.63,-4.6515,-4.7198,-4.7617,-4.8138,-4.8938,-4.9045,-4.9349,-5.0204,-5.0179,-5.0069,-5.005,-4.9903,-4.944,-4.8584,-4.833,-4.7959,-4.7334,-4.7295,-4.6983,-4.6319,-4.63,-4.63,-4.63,-4.63,-4.63,-4.63,-4.63,-4.63,-4.63,-4.63,-4.63,-4.63,-4.63,-4.63,-4.63,-4.63,-4.63,-4.63,-4.63,-4.63,-4.63,-4.63,-4.63,-4.63,0.0,0.0,0.0,0.0,0.0,0.0,0.0,0.0,0.0,0.0,0.0,0.0,0.0,0.0,0.0,0.0,0.0,0.0,0.0,-4.4504,-4.4877,-4.5565,-4.5594,-4.5594,-4.5594,-4.5594,-4.6028,-4.6904,-4.6904,-4.6904,-4.6885,-4.6009,-4.5594,-4.5594,-4.5594,-4.5676,-4.5794,-4.5869,-4.5983,-4.6105,-4.6245,0.0,0.0,0.0,0.0,0.0,0.0,0.0,0.0,0.0,0.0,0.0,0.0,0.0,-4.5629,-4.5749,-4.578,-4.5778,-4.5646,-4.5841,-4.6057,-4.593,-4.6,-4.6138,-4.6271,-4.63,-4.63,-4.63,-4.63,-4.63,-4.63,-4.63,-4.6319,-4.6378,-4.7644,-4.8908,-4.971,0.0,-5.0031,-5.0837,-5.0387,-4.9987,-4.9925,-4.9299,-4.8564,-4.7742,-4.6944,-4.6456,-4.6397,-4.6397,-4.6358,-4.63,-4.63,-4.63,-4.63,-4.63,-4.63,-4.63,-4.63,-4.63,-4.63,-4.63,-4.63,-4.63,-4.63,-4.63,-4.63,-4.63,-4.63,-4.63,-4.63,-4.63,-4.63,-4.63,-4.63,-4.63,0.0,0.0,0.0,0.0,0.0,0.0,0.0,0.0,0.0,0.0,0.0,0.0,0.0,0.0,0.0,0.0,0.0,0.0,0.0,-4.4787,-4.5427,-4.5718,-4.5651,-4.5594,-4.5594,-4.5594,-4.6259,-4.7663,-4.7154,-4.6904,-4.6885,-4.6009,-4.5594,-4.5594,-4.5692,-4.578,-4.5863,-4.5973,-4.6102,-4.6238,-4.6275,-4.63,0.0,0.0,0.0,0.0,0.0,0.0,0.0,0.0,-4.6132,-4.6027,-4.6011,-4.5906,-4.5809,-4.5842,-4.585,-4.5841,-4.5796,-4.5945,-4.6089,-4.6045,-4.6131,-4.624,-4.6298,-4.6729,-4.6944,-4.6417,-4.6729,-4.6944,-4.6397,-4.6238,-4.6351,-4.6897,-4.7883,-4.8682,-4.8983,-4.9473,-4.9698,-4.9465,-4.9307,-4.8966,-4.8397,-4.8164,-4.7705,-4.6866,-4.6495,-4.63,-4.63,-4.63,-4.63,-4.63,-4.63,-4.63,-4.63,-4.63,-4.63,-4.63,-4.63,-4.63,-4.63,-4.63,-4.63,-4.63,-4.63,-4.63,-4.63,-4.63,-4.63,-4.63,-4.63,-4.63,-4.63,-4.63,-4.63,-4.6378,0.0,0.0,0.0,0.0,0.0,0.0,0.0,0.0,0.0,0.0,0.0,0.0,0.0,0.0,0.0,0.0,0.0,0.0,-4.3536,-4.4992,-4.5834,-4.5803,-4.5688,-4.5738,-4.599,-4.5748,-4.6297,-4.7721,-4.7173,-4.6759,-4.649,-4.5883,-4.5594,-4.5603,-4.5734,-4.5848,-4.591,-4.6045,-4.6181,-4.6305,-4.6305,-4.6306,0.0,0.0,0.0,0.0,0.0,0.0,0.0,0.0,-4.6215,-4.611,-4.6156,-4.6043,-4.592,-4.5939,-4.5966,-4.5959,-4.5901,-4.6025,-4.6139,-4.6109,-4.6209,-4.63,-4.63,-4.6963,-4.743,-4.6827,-4.7178,-4.7231,-4.6048,-4.5975,-4.6286,-4.6847,-4.7552,-4.8114,-4.8404,-4.8697,-4.8761,-4.8412,-4.8275,-4.7961,-4.7399,-4.7453,-4.7182,-4.6358,-4.6046,0.0,0.0,-4.5636,-4.5617,-4.587,-4.589,-4.6027,-4.63,-4.63,-4.63,-4.63,-4.63,-4.63,-4.63,-4.63,-4.63,-4.63,-4.63,-4.63,-4.63,-4.63,-4.63,-4.63,-4.63,-4.63,-4.63,-4.63,-4.63,-4.6417,0.0,0.0,0.0,0.0,0.0,0.0,0.0,0.0,0.0,0.0,0.0,0.0,0.0,0.0,0.0,0.0,0.0,0.0,-4.3611,-4.5117,-4.5944,-4.5809,-4.5739,-4.6061,-4.6874,-4.6028,-4.6009,-4.6885,-4.6885,-4.6451,-4.5594,-4.5594,-4.5594,-4.5603,-4.5734,-4.5848,-4.591,-4.6049,-4.6187,-4.6293,-4.6293,-4.6296,-4.6301,0.0,0.0,0.0,0.0,0.0,0.0,0.0,-4.6202,-4.6136,-4.6264,-4.6126,-4.5939,-4.6053,-4.61,-4.6073,-4.5933,-4.6092,-4.6271,-4.6138,-4.6209,-4.63,-4.63,-4.6963,-4.7606,-4.7606,-4.7586,-4.7028,-4.5154,-4.5514,-4.6053,-4.592,-4.6526,-4.7301,-4.8147,-4.7477,-4.7192,-4.799,-4.7488,-4.71,-4.7179,-4.7294,-4.7083,-4.6337,-4.548,0.0,0.0,-4.4172,-4.4094,-4.4971,-4.499,-4.5421,-4.628,-4.63,-4.63,-4.63,-4.63,-4.63,-4.63,-4.63,-4.63,-4.63,-4.63,-4.63,-4.63,-4.63,-4.63,-4.63,-4.63,-4.63,-4.63,-4.63,-4.63,-4.6436,0.0,0.0,0.0,0.0,0.0,0.0,0.0,0.0,0.0,0.0,0.0,0.0,0.0,0.0,0.0,0.0,0.0,0.0,-4.4586,-4.5521,-4.6033,-4.5935,-4.5835,-4.5858,-4.6042,-4.5766,-4.5729,-4.599,-4.599,-4.5845,-4.5594,-4.5594,-4.5643,-4.5742,-4.5835,-4.5934,-4.6053,-4.6172,-4.6262,-4.6294,-4.6297,-4.6301,-4.6302,0.0,0.0,0.0,0.0,0.0,0.0,0.0,0.0,0.0,-4.6289,-4.6217,-4.6123,-4.6219,-4.6143,-4.6049,-4.616,-4.6175,-4.6176,-4.6238,-4.6273,-4.63,-4.63,-4.6963,-4.7606,-4.7606,-4.712,-4.6483,-4.5839,-4.5857,-4.5934,-4.5835,-4.6449,-4.6818,-4.645,-4.6679,-4.6759,-4.6394,-4.6252,-4.5977,-4.5412,-4.6048,-4.5933,-4.4561,0.0,0.0,0.0,-4.384,-4.4094,-4.4971,-4.499,-4.5421,-4.628,-4.63,-4.63,-4.63,-4.63,-4.63,-4.63,-4.63,-4.63,-4.63,-4.63,-4.63,-4.63,-4.63,-4.63,-4.63,-4.63,-4.63,-4.63,-4.63,-4.63,-4.6515,0.0,0.0,0.0,0.0,0.0,0.0,0.0,0.0,0.0,0.0,-4.1191,0.0,0.0,0.0,0.0,0.0,0.0,0.0,0.0,-4.5724,-4.6111,-4.604,-4.5883,-4.5759,-4.5657,-4.5622,-4.5594,-4.5594,-4.5594,-4.5594,-4.5594,-4.5594,-4.5668,-4.5794,-4.5869,-4.5968,-4.6115,-4.6238,-4.6296,-4.6301,-4.6303,-4.6305,-4.6306,0.0,0.0,0.0,0.0,0.0,0.0,0.0,0.0,0.0,-4.6308,-4.6267,-4.6242,-4.6288,-4.621,-4.6145,-4.6272,-4.6236,-4.6206,-4.6275,-4.63,-4.63,-4.63,-4.6963,-4.7606,-4.7606,-4.7178,-4.6652,-4.6111,-4.5945,-4.5869,-4.5749,-4.6086,-4.6201,-4.5671,-4.6047,-4.6182,-4.5671,-4.5668,-4.5404,-4.4645,-4.5133,-4.4993,0.0,0.0,0.0,0.0,-4.2864,-4.3079,-4.3938,-4.3975,-4.4387,-4.5265,-4.5617,-4.5773,-4.5792,-4.6124,-4.63,-4.63,-4.63,-4.63,-4.63,-4.63,-4.63,-4.63,-4.63,-4.63,-4.63,-4.63,-4.63,-4.63,-4.63,-4.63,-4.6495,0.0,0.0,0.0,0.0,0.0,0.0,0.0,0.0,0.0,0.0,-4.1191,-4.1504,0.0,0.0,0.0,0.0,0.0,0.0,0.0,-4.5791,-4.6183,-4.611,-4.5915,-4.5743,-4.562,-4.5603,-4.5614,-4.5594,-4.5594,-4.5594,-4.5594,-4.5612,-4.5692,-4.5815,-4.5886,-4.599,-4.6139,-4.6243,-4.6301,-4.6307,-4.6307,-4.6308,-4.6308,-4.6308,0.0,0.0,0.0,0.0,0.0,0.0,0.0,0.0,-4.6308,-4.6308,-4.6308,-4.6307,-4.6305,-4.6301,-4.6295,-4.6308,-4.63,-4.63,-4.63,-4.63,-4.63,-4.6905,-4.7489,-4.7489,-4.7489,-4.717,-4.6095,-4.5899,-4.582,-4.5635,-4.5594,-4.5594,-4.5594,-4.5594,-4.5575,-4.5498,-4.5479,-4.5161,-4.4342,-4.4405,-4.4185,0.0,0.0,0.0,0.0,-4.1537,-4.1498,-4.2376,-4.2396,-4.2825,-4.3686,-4.4563,-4.499,-4.501,-4.587,-4.63,-4.63,-4.63,-4.63,-4.63,-4.63,-4.63,-4.63,-4.63,-4.63,-4.63,-4.63,-4.63,-4.63,-4.63,-4.63,-4.6417,0.0,0.0,0.0,0.0,0.0,0.0,0.0,0.0,0.0,0.0,0.0,0.0,0.0,0.0,0.0,0.0,0.0,0.0,0.0,-4.619,-4.6259,-4.6181,-4.6,-4.5835,-4.5757,-4.5722,-4.5648,-4.5594,-4.5594,-4.5594,-4.5594,-4.5715,-4.5796,-4.5872,-4.5994,-4.6137,-4.6264,-4.6281,-4.6306,-4.6307,-4.6308,-4.6308,-4.6308,-4.6308,-4.6308,0.0,0.0,0.0,0.0,0.0,0.0,0.0,-4.6308,-4.6308,-4.6308,-4.6308,-4.6307,-4.6301,-4.6301,-4.6293,-4.63,-4.63,-4.63,-4.63,-4.63,-4.6456,-4.6573,-4.6573,-4.6573,-4.6448,-4.5979,-4.5899,-4.582,-4.5635,-4.5594,-4.5594,-4.5594,-4.5594,-4.5344,-4.4662,-4.4586,-4.4017,-4.2595,-4.3189,0.0,0.0,0.0,0.0,-4.142,-4.1207,-4.1498,-4.2376,-4.2396,-4.2825,-4.3686,-4.4563,-4.499,0.0,-4.587,-4.63,-4.63,-4.63,-4.63,-4.63,-4.63,-4.63,-4.63,-4.63,-4.63,-4.63,-4.63,-4.63,-4.63,-4.63,-4.63,-4.6417,0.0,0.0,0.0,0.0,0.0,0.0,0.0,0.0,0.0,0.0,0.0,0.0,0.0,0.0,0.0,0.0,0.0,0.0,0.0,0.0,-4.6264,-4.6158,-4.6053,-4.5959,-4.5852,-4.5822,-4.5776,-4.5735,-4.57,-4.566,-4.5594,-4.5734,-4.5828,-4.5906,-4.6033,-4.6165,-4.6301,-4.6306,-4.6307,-4.6308,-4.6308,-4.6308,-4.6308,-4.6308,-4.6308,-4.6308,-4.6308,0.0,0.0,0.0,0.0,0.0,0.0,0.0,-4.6308,-4.6308,-4.6307,-4.6304,-4.63,-4.6293,-4.6306,-4.6302,-4.63,-4.63,-4.63,-4.6303,-4.6306,-4.6306,-4.6303,-4.6214,-4.594,-4.5899,-4.582,-4.5635,-4.5594,-4.5594,-4.5594,-4.5594,-4.5287,-4.4393,-4.4297,-4.3657,-4.2008,-4.2418,0.0,0.0,0.0,-4.1576,-4.1129,-4.1109,-4.1304,-4.1752,-4.1771,-4.2006,-4.2456,-4.3723,-4.4387,-4.4387,-4.5675,-4.63,-4.63,-4.63,-4.63,-4.63,-4.63,-4.63,-4.63,-4.63,-4.63,-4.63,-4.63,-4.63,-4.63,-4.63,-4.63,-4.6358,0.0,0.0,0.0,0.0,0.0,0.0,0.0,0.0,0.0,0.0,0.0,0.0,0.0,0.0,0.0,0.0,0.0,0.0,0.0,0.0,0.0,-4.5908,-4.6037,-4.6059,-4.5933,-4.5915,-4.5915,-4.5899,-4.5841,-4.5766,-4.5637,-4.5773,-4.5863,-4.5938,-4.6063,-4.6103,-4.6072,-4.6073,-4.6074,-4.6074,-4.6074,-4.6172,-4.6308,-4.6308,-4.6308,-4.6308,-4.6308,-4.6308,-4.6308,-4.6308,0.0,0.0,0.0,0.0,-4.6308,-4.6308,-4.619,-4.611,-4.6259,-4.6295,-4.6291,-4.6303,-4.63,-4.63,-4.63,-4.6306,-4.6254,-4.6117,-4.6191,-4.6219,-4.5949,-4.5905,-4.582,-4.5635,-4.5594,-4.5556,-4.5402,-4.5383,-4.4998,-4.3989,-4.3874,-4.3258,-4.172,0.0,0.0,0.0,0.0,-4.1109,-4.1109,-4.1109,-4.1109,-4.1109,-4.1109,-4.1109,-4.1109,-4.2827,-4.3705,-4.3725,-4.546,-4.63,-4.63,-4.63,-4.63,-4.63,-4.63,-4.63,-4.63,-4.63,-4.63,-4.63,-4.63,-4.63,-4.63,-4.63,-4.63,-4.63,0.0,0.0,0.0,0.0,0.0,0.0,0.0,0.0,0.0,0.0,-4.1191,-4.1504,0.0,0.0,0.0,0.0,0.0,0.0,0.0,0.0,0.0,-4.5152,-4.5802,-4.6145,-4.6076,-4.6025,-4.5949,-4.5899,-4.5889,-4.5883,-4.5855,-4.589,-4.5942,-4.6078,-4.6212,-4.5855,-4.5174,-4.5175,-4.5176,-4.5176,-4.5176,-4.5625,-4.6308,-4.6308,-4.6308,-4.6308,-4.6308,-4.6308,-4.6308,-4.6308,-4.6308,0.0,0.0,0.0,-4.6308,-4.6308,-4.5761,-4.535,-4.6091,-4.6301,-4.6291,-4.6303,-4.63,-4.63,-4.63,-4.6306,-4.6097,-4.5336,-4.5764,-4.621,-4.5953,-4.5901,-4.582,-4.5635,-4.5594,-4.5344,-4.4586,-4.447,-4.3893,-4.2316,-4.2135,-4.1758,-4.0766,0.0,0.0,0.0,-4.0998,-4.1109,-4.1109,-4.1109,-4.1109,-4.1109,-4.1109,-4.1109,-4.1109,-4.2827,-4.3705,-4.3725,-4.546,-4.63,-4.63,-4.63,-4.63,-4.63,-4.63,-4.63,-4.63,-4.63,-4.63,-4.63,-4.63,-4.63,-4.63,-4.63,-4.63,-4.63,0.0,0.0,0.0,0.0,0.0,0.0,0.0,0.0,0.0,0.0,0.0,-4.1328,0.0,0.0,0.0,0.0,0.0,0.0,0.0,0.0,0.0,-4.5703,-4.6071,-4.624,-4.6207,-4.6189,-4.6147,-4.6128,-4.6049,-4.6059,-4.6128,-4.6044,-4.603,-4.6104,-4.6241,-4.6093,-4.5703,-4.5215,-4.5,-4.5,-4.5,-4.5234,-4.5566,-4.5566,-4.5879,-4.623,-4.5742,-4.5898,-4.6308,-4.6308,-4.6308,-4.6308,-4.6308,0.0,0.0,0.0,-4.6035,-4.5702,-4.5602,-4.5577,-4.5569,-4.5579,-4.5948,-4.63,-4.63,-4.6291,-4.6045,-4.5184,-4.5305,-4.5504,-4.5274,-4.5609,-4.585,-4.5687,-4.5631,-4.5306,-4.4412,-4.4297,-4.3682,-4.2,-4.1788,-4.1482,-4.0691,0.0,0.0,0.0,-4.1035,-4.1109,-4.1109,-4.1109,-4.1109,-4.1109,-4.1109,-4.1324,-4.181,-4.306,-4.4193,-4.5168,-4.5929,-4.63,-4.63,-4.63,-4.63,-4.63,-4.63,-4.63,-4.63,-4.63,-4.63,-4.63,-4.63,-4.63,-4.63,-4.63,-4.63,-4.63,0.0,0.0,0.0,0.0,0.0,0.0,0.0,0.0,0.0,0.0,0.0,0.0,0.0,0.0,0.0,0.0,0.0,0.0,0.0,0.0,0.0,-4.5937,-4.5976,-4.6074,-4.6307,-4.6305,-4.6301,-4.6295,-4.6191,-4.6197,-4.6303,-4.6192,-4.6145,-4.6168,-4.6265,-4.6171,-4.5918,-4.5039,-4.4668,-4.4648,-4.4433,-4.4473,-4.4668,-4.4668,-4.5078,-4.5547,-4.4902,-4.5234,-4.5976,-4.5976,-4.6113,-4.6308,-4.6308,-4.6308,0.0,0.0,0.0,-4.5722,-4.4645,-4.4504,-4.4675,-4.4665,-4.5151,-4.5698,-4.5929,-4.5781,-4.5436,-4.4797,-4.4662,-4.4531,-4.4148,-4.4723,-4.5295,-4.536,-4.5164,-4.4754,-4.4083,-4.3814,-4.3209,-4.195,-4.1604,-4.1262,-4.0739,0.0,0.0,0.0,-4.1066,-4.1109,-4.1109,-4.1109,-4.1109,-4.1109,-4.1304,-4.1732,-4.2396,-4.3489,-4.4797,-4.63,-4.63,-4.63,-4.63,-4.63,-4.63,-4.63,-4.63,-4.63,-4.63,-4.63,-4.63,-4.63,-4.63,-4.63,-4.63,-4.63,-4.63,-4.63,0.0,0.0,0.0,0.0,0.0,0.0,0.0,0.0,0.0,0.0,0.0,0.0,-4.2246,-4.1699,-4.1562,-4.2324,-4.1797,-4.1738,-4.2558,-4.332,-4.416,-4.5039,-4.5078,0.0,-4.6287,-4.6307,-4.6305,-4.6301,-4.6281,-4.6283,-4.6307,-4.6287,-4.6288,-4.6289,-4.6308,-4.584,-4.5019,-4.4141,-4.3769,-4.3691,-4.2871,-4.3027,-4.3769,-4.3769,-4.3808,-4.3828,-4.3789,-4.4336,-4.5078,-4.5078,-4.5625,-4.6308,-4.6308,-4.6308,-4.6308,0.0,0.0,0.0,-4.3006,-4.3142,-4.3766,-4.3775,-4.3791,-4.4043,-4.4877,-4.4374,-4.3749,-4.3758,-4.3717,-4.3404,-4.2503,-4.2984,-4.3748,-4.4368,-4.3813,-4.3285,-4.3169,-4.2514,-4.1979,-4.1816,-4.1066,-4.0595,-4.0681,0.0,0.0,0.0,-4.1066,-4.1109,-4.1109,-4.1109,-4.1109,-4.1109,-4.1908,-4.2357,-4.2396,-4.4075,-4.5382,-4.63,-4.63,-4.63,-4.63,-4.63,-4.63,-4.63,-4.63,-4.63,-4.63,-4.63,-4.63,-4.63,-4.63,-4.63,-4.63,-4.63,-4.63,-4.63,0.0,0.0,0.0,0.0,0.0,0.0,0.0,0.0,0.0,0.0,0.0,0.0,0.0,-4.1367,-4.1328,-4.1601,-4.1367,-4.2012,-4.3945,-4.3848,-4.4336,-4.5762,-4.582,-4.5976,-4.6289,-4.6307,-4.6306,-4.6305,-4.6305,-4.6306,-4.6307,-4.6308,-4.6308,-4.6308,-4.6308,-4.6133,-4.5742,-4.4316,-4.3691,-4.3613,-4.2754,-4.2598,-4.2871,-4.2871,-4.3203,-4.3633,-4.3066,-4.3437,-4.418,-4.418,-4.4375,-4.4629,-4.4629,-4.4629,-4.4629,-4.4629,-4.4414,-4.3906,-4.2713,-4.2635,-4.2868,-4.2863,-4.3287,-4.3773,-4.4088,-4.3909,-4.3501,-4.2983,-4.3298,-4.337,-4.2438,-4.2909,-4.3505,-4.3619,-4.3392,-4.3003,-4.2417,-4.2082,-4.1677,-4.1111,-4.0754,-4.0628,0.0,0.0,0.0,0.0,0.0,-4.1109,-4.1109,-4.1109,-4.1109,-4.1109,-4.1947,-4.2942,-4.4053,-4.5246,-4.5987,-4.63,-4.63,-4.63,-4.63,-4.63,-4.63,-4.63,-4.63,-4.63,-4.63,-4.63,-4.63,-4.63,-4.63,-4.63,-4.63,-4.63,-4.63,-4.63,0.0,0.0,0.0,0.0,0.0,0.0,0.0,0.0,0.0,-4.1191,0.0,0.0,0.0,0.0,-4.1191,-4.1191,-4.1445,-4.2441,-4.4433,-4.4023,-4.4473,-4.6211,-4.6016,-4.5996,-4.6289,-4.6015,-4.6015,-4.6308,-4.6015,-4.6015,-4.6308,-4.6308,-4.6308,-4.6289,-4.5996,-4.6035,-4.6191,-4.4433,-4.3691,-4.3594,-4.2461,-4.1992,-4.1992,-4.1992,-4.2363,-4.2773,-4.2207,-4.2539,-4.3262,-4.3262,-4.3457,-4.3691,-4.3691,-4.3691,-4.3633,-4.3359,-4.3262,-4.3086,-4.2226,-4.1991,-4.1991,-4.1968,-4.2395,-4.2901,-4.3196,-4.3016,-4.2701,-4.2431,-4.2612,-4.2629,-4.1972,-4.2315,-4.2716,-4.2813,-4.2595,-4.2295,-4.1972,-4.1682,-4.1386,-4.107,-4.0802,-4.0693,0.0,0.0,0.0,0.0,0.0,0.0,-4.1109,-4.1384,-4.1794,-4.2396,-4.2962,-4.3977,-4.5421,-4.6007,-4.63,-4.63,-4.63,-4.63,-4.63,-4.63,-4.63,-4.63,-4.63,-4.63,-4.63,-4.63,-4.63,-4.63,-4.63,-4.63,-4.63,-4.63,-4.63,-4.63,0.0,0.0,0.0,0.0,0.0,0.0,0.0,0.0,-4.1191,-4.1191,0.0,0.0,0.0,0.0,0.0,-4.1191,-4.1914,-4.2734,-4.3594,-4.3691,-4.4473,-4.6191,-4.5488,-4.543,-4.6289,-4.5469,-4.5449,-4.6308,-4.5449,-4.5469,-4.6308,-4.6308,-4.6289,-4.6211,-4.5371,-4.5469,-4.6113,-4.4394,-4.3652,-4.3516,-4.1855,-4.1191,-4.1191,-4.1191,-4.1191,-4.1191,-4.1191,-4.1699,-4.2363,-4.2363,-4.293,-4.3633,-4.3633,-4.3633,-4.3496,-4.2617,-4.2383,-4.2226,0.0,0.0,0.0,-4.1112,-4.1092,-4.1326,-4.2161,-4.166,-4.1232,-4.2093,-4.167,-4.1119,-4.1028,-4.1083,-4.1335,-4.1969,-4.1363,-4.1081,-4.1873,-4.126,-4.1034,-4.1803,-4.1235,-4.0824,0.0,0.0,0.0,0.0,-4.1173,-4.1175,-4.1189,-4.1975,-4.3223,-4.4953,-4.499,-4.5421,-4.628,-4.63,-4.63,-4.63,-4.63,-4.63,-4.63,-4.63,-4.63,-4.63,-4.63,-4.63,-4.63,-4.63,-4.63,-4.63,-4.63,-4.63,-4.63,-4.63,-4.63,-4.63,0.0,0.0,0.0,0.0,0.0,0.0,-4.1191,-4.1191,-4.1191,0.0,0.0,0.0,-4.1504,-4.1328,-4.1191,-4.1191,-4.1406,-4.1875,-4.2715,-4.3359,-4.4199,-4.5312,-4.5723,-4.6055,-4.6289,-4.6055,-4.6055,-4.6308,-4.6055,-4.6055,-4.6308,-4.6308,-4.5957,-4.5351,-4.5117,-4.4785,-4.4355,-4.3223,-4.2754,-4.2676,-4.1621,-4.1191,-4.1191,-4.1191,-4.1191,-4.1191,-4.1191,-4.1348,-4.1523,-4.1523,-4.1699,-4.1894,-4.1894,-4.2285,-4.2598,-4.1777,-4.1933,-4.2226,-4.1426,0.0,0.0,0.0,0.0,0.0,-4.1464,-4.1286,-4.1146,-4.1442,-4.1794,-4.1853,-4.1262,-4.1606,-4.1844,-4.1447,-4.1089,-4.096,-4.1163,-4.1453,-4.1719,-4.1937,-4.2373,-4.2685,0.0,0.0,0.0,0.0,-4.2978,-4.298,-4.2979,-4.321,-4.3849,-4.4953,-4.499,-4.5421,-4.628,-4.63,-4.63,-4.63,-4.63,-4.63,-4.63,-4.63,-4.63,-4.63,-4.63,-4.63,-4.63,-4.63,-4.63,-4.63,-4.63,-4.63,-4.63,-4.63,-4.63,-4.63,0.0,0.0,0.0,0.0,0.0,-4.1582,-4.125,-4.1484,-4.1582,0.0,0.0,0.0,-4.1191,-4.1191,-4.1191,-4.1191,-4.1191,-4.1543,-4.2344,-4.2871,-4.3711,-4.4941,-4.5488,-4.5937,-4.6289,-4.5937,-4.5937,-4.6308,-4.5937,-4.5937,-4.6308,-4.6308,-4.582,-4.498,-4.4629,-4.3965,-4.3105,-4.2266,-4.209,-4.2324,-4.1523,-4.1191,-4.1191,-4.1191,-4.1191,-4.1191,-4.1191,-4.1191,-4.1191,-4.1191,-4.1191,-4.1191,-4.1191,-4.1523,-4.1816,-4.1348,-4.1523,-4.1875,-4.1738,-4.1699,-4.1699,-4.1699,0.0,0.0,-4.1269,-4.1172,-4.1132,0.0,-4.1542,-4.1757,-4.1247,-4.1537,-4.1691,-4.1222,-4.104,-4.0967,-4.0949,-4.1601,-4.2087,-4.2087,-4.292,0.0,0.0,-4.3592,-4.3663,-4.3696,-4.3699,-4.3859,-4.4213,-4.4246,-4.4633,-4.551,-4.5545,-4.5799,-4.6291,-4.6305,-4.6302,-4.6306,-4.6302,-4.63,-4.63,-4.63,-4.63,-4.63,-4.63,-4.63,-4.63,-4.63,-4.63,-4.63,-4.63,-4.63,-4.63,-4.63,-4.63,-4.63,0.0,0.0,0.0,-4.1191,-4.1797,-4.2031,-4.1308,-4.1816,-4.2012,0.0,-4.1191,-4.1191,-4.1191,-4.1191,-4.1191,-4.1191,-4.1191,-4.1504,-4.2226,-4.2344,-4.3086,-4.4648,-4.4902,-4.5351,-4.6133,-4.5488,-4.5527,-4.6308,-4.5527,-4.5547,-4.6308,-4.6191,-4.5683,-4.4824,-4.3945,-4.3086,-4.2226,-4.1504,-4.1601,-4.2207,-4.1484,-4.1191,-4.1191,-4.1191,-4.1191,-4.1191,-4.1191,-4.1191,-4.1191,-4.1191,-4.1191,-4.1191,-4.1191,-4.1191,-4.1191,-4.1191,-4.1191,-4.1387,-4.2187,-4.2402,-4.2402,-4.2402,-4.2402,0.0,-4.1387,-4.1191,-4.1171,0.0,-4.1168,-4.1171,-4.1119,-4.1147,-4.1191,-4.1191,-4.1143,-4.1078,-4.1011,-4.1779,-4.2341,-4.2341,-4.3261,0.0,-4.389,-4.3956,-4.3989,-4.399,-4.3989,-4.4323,-4.509,-4.5144,-4.5496,-4.6282,-4.6297,-4.6296,-4.6301,-4.6309,-4.6305,-4.6291,-4.6305,-4.63,-4.63,-4.63,-4.63,-4.63,-4.63,-4.63,-4.63,-4.63,-4.63,-4.63,-4.63,-4.63,-4.63,-4.63,-4.63,-4.63,0.0,0.0,-4.1191,-4.1191,-4.1328,-4.1387,-4.1211,-4.1328,-4.1387,-4.1211,-4.1191,-4.1191,-4.1191,-4.1191,-4.1191,-4.1191,-4.1191,-4.1269,-4.1426,-4.2031,-4.2558,-4.2891,-4.4258,-4.5078,-4.5254,-4.5762,-4.6133,-4.6308,-4.6133,-4.6133,-4.6289,-4.5586,-4.4785,-4.3926,-4.3047,-4.2207,-4.1426,-4.1269,-4.1289,-4.1426,-4.1269,-4.1191,-4.1191,-4.1191,-4.1191,-4.1191,-4.1191,-4.1191,-4.1191,-4.1191,-4.1191,-4.1191,-4.1191,-4.1191,-4.1191,-4.1191,-4.1191,-4.1387,-4.2187,-4.2402,-4.2402,-4.2402,-4.2402,0.0,-4.1387,-4.1191,-4.1191,0.0,-4.1191,-4.1191,-4.1171,-4.1145,-4.1117,-4.1117,-4.1112,-4.1106,-4.108,-4.2331,-4.3257,-4.3257,-4.4682,0.0,-4.5682,-4.5758,-4.5791,-4.5786,-4.579,-4.5871,-4.6048,-4.6047,-4.6125,-4.6282,-4.6301,-4.6299,-4.6295,-4.6293,-4.6308,-4.6303,-4.6302,-4.63,-4.63,-4.63,-4.63,-4.63,-4.63,-4.63,-4.63,-4.63,-4.63,-4.63,-4.63,-4.63,-4.63,-4.63,-4.63,-4.63,-4.1191,-4.1191,-4.1191,-4.1191,-4.1523,-4.166,-4.1269,-4.1543,-4.1641,-4.125,-4.1191,-4.1191,-4.1191,-4.1191,-4.1191,-4.1191,-4.1191,-4.1191,-4.1191,-4.1582,-4.1973,-4.2383,-4.3652,-4.4551,-4.498,-4.5859,-4.6308,-4.6308,-4.6308,-4.6074,-4.5644,-4.5195,-4.4297,-4.3027,-4.2598,-4.1953,-4.1191,-4.1191,-4.1191,-4.1191,-4.1191,-4.1191,-4.1191,-4.1191,-4.1191,-4.1191,-4.1191,-4.1191,-4.1191,-4.1191,-4.1191,-4.1191,-4.1191,-4.1191,-4.1191,-4.1191,-4.1191,-4.1465,-4.2715,-4.3047,-4.3144,-4.3594,-4.3379,0.0,0.0,-4.1484,-4.1191,-4.1191,-4.1191,-4.1191,-4.1191,-4.117,-4.1146,-4.1146,-4.1146,-4.1146,-4.1146,-4.2191,-4.2942,-4.2942,-4.4136,0.0,-4.5558,-4.5625,-4.5824,-4.6273,-4.6301,-4.6305,-4.6305,-4.6305,-4.6305,-4.6307,-4.6305,-4.6305,-4.6305,-4.6301,-4.6297,-4.6297,-4.6294,-4.6293,-4.6293,-4.6308,-4.6306,-4.6306,-4.6302,-4.63,-4.63,-4.63,-4.63,-4.63,-4.63,-4.63,-4.63,-4.63,-4.63,-4.63,-4.1129,-4.1168,-4.1168,-4.1168,-4.1696,-4.191,-4.1266,-4.1715,-4.1891,-4.1246,-4.1168,-4.1168,-4.1168,-4.117,-4.1249,-4.1405,-4.1289,-4.1269,-4.1426,-4.1289,-4.1484,-4.2148,-4.2988,-4.3789,-4.4473,-4.5351,-4.5801,-4.5801,-4.5801,-4.5449,-4.4746,-4.457,-4.375,-4.2383,-4.2246,-4.1816,-4.1191,-4.1191,-4.1191,-4.1191,-4.1191,-4.1191,-4.1191,-4.1191,-4.1191,-4.1191,-4.1191,-4.1191,-4.1191,-4.1191,-4.1191,-4.1191,-4.1191,-4.1191,-4.1191,-4.1191,-4.1191,-4.1523,-4.3047,-4.3574,-4.3828,-4.4375,-4.4101,-4.3437,0.0,0.0,0.0,-4.1191,0.0,0.0,0.0,0.0,0.0,0.0,0.0,0.0,0.0,-4.164,0.0,-4.2383,-4.3161,0.0,-4.4915,-4.5159,-4.5543,-4.6254,-4.6302,-4.6306,-4.6307,-4.6307,-4.6308,-4.6308,-4.6308,-4.6308,-4.6308,-4.6306,-4.6304,-4.6306,-4.6303,-4.6301,-4.6301,-4.6297,-4.6295,-4.6295,-4.6308,-4.6305,-4.6303,-4.6303,-4.6302,-4.63,-4.63,-4.63,-4.63,-4.63,-4.63,-4.63,-4.0878,-4.1014,-4.1014,-4.1014,-4.1092,-4.1131,-4.1034,-4.1092,-4.1131,-4.1034,-4.1014,-4.1014,-4.1014,-4.1074,-4.1408,-4.2111,-4.1579,-4.1504,-4.2226,-4.1601,-4.123,-4.1328,-4.2109,-4.2598,-4.2695,-4.3555,-4.4004,-4.4004,-4.4004,-4.3945,-4.3828,-4.3066,-4.2598,-4.2363,-4.1641,-4.1289,-4.1191,-4.1191,-4.1191,-4.1191,-4.1191,-4.1191,-4.1191,-4.1191,-4.1191,-4.1191,-4.1191,-4.1191,-4.1191,0.0,-4.1191,-4.1191,0.0,-4.1191,-4.1191,-4.1191,-4.1191,-4.1406,-4.2305,-4.3105,0.0,0.0,-4.3203,-4.3281,0.0,0.0,-4.1191,-4.1191,0.0,0.0,0.0,0.0,0.0,0.0,0.0,0.0,-4.0079,-4.0758,-4.1601,-4.2324,-4.3161,0.0,0.0,-4.5691,-4.6195,-4.6293,-4.63,-4.6304,-4.6307,-4.6307,-4.6308,-4.6308,-4.6308,-4.6308,-4.6307,-4.6307,-4.6305,-4.6302,-4.6301,-4.6301,-4.6301,-4.6301,-4.6301,-4.6301,-4.6301,-4.6297,-4.6291,-4.6291,-4.6308,-4.63,-4.63,-4.63,-4.63,-4.63,-4.63,-4.63,-4.0163,-4.0643,-4.099,-4.099,-4.099,-4.099,-4.099,-4.099,-4.099,-4.099,-4.099,-4.1006,-4.104,-4.108,-4.1253,-4.1636,-4.1386,-4.1348,-4.168,-4.1387,-4.1191,-4.1191,-4.1973,-4.2402,-4.2402,-4.3242,-4.3691,-4.3691,-4.3691,-4.3437,-4.2949,-4.2578,-4.2148,-4.1699,-4.1348,-4.1191,-4.1191,-4.1191,-4.1191,-4.1191,-4.1191,-4.1191,-4.1191,-4.1191,-4.1191,-4.1191,-4.1191,-4.1191,-4.1191,0.0,-4.1191,0.0,0.0,0.0,0.0,-4.1191,-4.1191,-4.1387,0.0,0.0,0.0,0.0,0.0,0.0,-4.3574,0.0,-4.2656,0.0,0.0,0.0,0.0,0.0,0.0,0.0,-4.0914,0.0,0.0,0.0,-4.1328,0.0,0.0,0.0,0.0,0.0,0.0,0.0,-4.5738,-4.6073,-4.5566,-4.6035,-4.6308,-4.6308,-4.6308,-4.6308,-4.6308,-4.6308,-4.6308,-4.6307,-4.6307,-4.6307,-4.6307,-4.6306,-4.6305,-4.6305,-4.6302,-4.6301,-4.6299,-4.6299,-4.6297,-4.6295,-4.6295,-4.6309,-4.63,-4.63,-4.63,-4.63,-3.9221,-4.0175,-4.0949,-4.0949,-4.0949,-4.0949,-4.0949,-4.0949,-4.0949,-4.0949,-4.0949,-4.0953,-4.1009,-4.122,-4.1495,-4.1777,-4.1609,-4.1576,-4.1833,-4.1424,-4.1171,-4.1191,-4.1758,-4.207,-4.207,-4.2695,-4.3008,-4.3008,-4.3008,-4.2695,-4.207,-4.207,-4.1758,-4.1191,-4.1191,-4.1191,-4.1191,-4.1191,-4.1191,-4.1191,-4.1191,-4.1191,-4.1191,-4.1191,-4.1191,-4.1191,-4.1191,-4.1191,-4.1191,-4.1191,-4.1191,0.0,-4.1191,-4.1191,-4.1191,0.0,0.0,0.0,-4.1914,0.0,0.0,0.0,0.0,0.0,0.0,0.0,0.0,0.0,0.0,0.0,0.0,0.0,-4.1387,-4.0918,0.0,-4.1113,0.0,-4.1055,0.0,0.0,0.0,0.0,0.0,0.0,0.0,-4.3764,-4.4863,-4.543,-4.5019,-4.5605,-4.6055,-4.6289,-4.6308,-4.6308,-4.6308,-4.6308,-4.6308,-4.6308,-4.6308,-4.6308,-4.6308,-4.6308,-4.6307,-4.6307,-4.6306,-4.6305,-4.6303,-4.6303,-4.6302,-4.6301,-4.6301,-4.6296,-4.6308,-4.6308,-4.6306,-4.6305,-3.8069,-3.9623,-4.0809,-4.0809,-4.0809,-4.0809,-4.0809,-4.0809,-4.0809,-4.0809,-4.0809,-4.0809,-4.0815,-4.1551,-4.2408,-4.3258,-4.2615,-4.2543,-4.3466,-4.2007,-4.1122,-4.1191,-4.1211,-4.123,-4.123,-4.1269,-4.1289,-4.1289,-4.1289,-4.1269,-4.123,-4.123,-4.1211,-4.1191,-4.1191,-4.1191,-4.1191,-4.1191,-4.1191,-4.1191,-4.1191,-4.1191,-4.1191,0.0,-4.1191,-4.1191,-4.1191,0.0,0.0,-4.1191,-4.1191,0.0,0.0,0.0,0.0,0.0,0.0,0.0,0.0,0.0,0.0,-4.2695,0.0,0.0,0.0,0.0,-4.3691,0.0,0.0,0.0,0.0,-4.2383,-4.1836,-4.0215,-4.0644,0.0,0.0,0.0,0.0,0.0,0.0,0.0,0.0,0.0,-4.4647,-4.3767,-4.375,-4.4141,-4.4961,-4.5039,-4.543,-4.6269,-4.6308,-4.6308,-4.6308,-4.6308,-4.6308,-4.6308,-4.6308,-4.6308,-4.6308,-4.6308,-4.6308,-4.6308,-4.6308,-4.6308,-4.6307,-4.6307,-4.6305,-4.6301,-4.6301,-4.6301,-4.6301,-4.6301,-4.6297,-4.6294,-3.8019,-3.9146,-4.012,-4.07,-4.0797,-4.0797,-4.0797,-4.0797,-4.099,-4.1525,-4.1583,-4.1828,-4.2446,-4.2781,-4.3097,-4.3436,-4.3213,-4.2945,-4.2696,-4.2184,-4.1677,-4.1161,-4.1171,-4.1191,-4.1191,-4.1191,-4.1191,-4.1191,-4.1191,-4.1191,-4.1191,-4.1191,-4.1191,-4.1191,-4.1191,-4.1191,-4.1191,-4.1191,-4.1191,-4.1191,-4.1191,-4.1191,-4.1191,0.0,-4.1191,-4.1191,-4.1191,-4.1191,0.0,-4.1191,-4.1191,-4.1191,-4.1191,-4.1191,-4.1191,-4.1191,-4.1191,0.0,0.0,0.0,-4.2773,-4.2461,0.0,0.0,0.0,0.0,0.0,0.0,0.0,0.0,0.0,-4.2793,-4.2031,-4.0937,-4.1016,-4.1094,0.0,0.0,0.0,0.0,0.0,0.0,0.0,0.0,0.0,-4.2088,-4.3047,-4.3828,-4.4121,-4.4687,-4.5391,-4.6269,-4.6308,-4.6308,-4.6308,-4.6308,-4.6308,-4.6308,-4.6308,-4.6308,-4.6308,-4.6308,-4.6308,-4.6308,-4.6308,-4.6308,-4.6308,-4.6308,-4.6308,-4.6308,-4.6308,-4.6307,-4.6305,-4.6302,-4.6301,-4.63,-3.8019,-3.8644,-3.9404,-4.0584,-4.0797,-4.0797,-4.0797,-4.1048,-4.1409,-4.1932,-4.228,-4.2699,-4.3294,-4.3629,-4.3837,-4.3884,-4.3889,-4.3538,-4.2677,-4.2666,-4.2192,-4.1105,-4.1393,-4.1461,-4.1169,-4.1191,-4.1191,-4.1191,-4.1191,-4.1191,-4.1191,-4.1191,-4.1191,-4.1191,-4.1191,-4.1191,-4.1191,-4.1191,-4.1191,-4.1191,-4.1191,-4.1191,0.0,0.0,-4.1191,-4.1191,0.0,-4.1191,-4.1191,-4.1191,-4.1191,-4.1191,-4.1191,-4.1191,-4.1191,-4.1191,-4.1191,-4.1191,-4.1191,-4.1797,0.0,-4.2773,-4.3516,0.0,-4.4863,0.0,-4.5527,0.0,0.0,0.0,0.0,-4.2988,-4.2148,-4.1328,-4.1191,-4.1191,0.0,-4.2166,0.0,0.0,-4.3962,-4.3825,0.0,0.0,-4.2988,-4.1269,-4.2187,-4.3066,0.0,0.0,-4.5078,-4.6269,-4.6308,-4.6308,-4.6308,-4.6308,-4.6308,-4.6308,-4.6308,-4.6308,-4.6308,-4.6308,-4.6308,-4.6308,-4.6308,-4.6308,-4.6308,-4.6308,-4.6308,-4.6308,-4.6308,-4.6308,-4.6307,-4.6306,-4.6306,-4.6306,-3.8019,-3.827,-3.8856,-4.0507,-4.0758,-4.0758,-4.0797,-4.1487,-4.2028,-4.2067,-4.2821,-4.3382,-4.3421,-4.4156,-4.4652,-4.4652,-4.4652,-4.4318,-4.3499,-4.3456,-4.2742,-4.112,-4.1859,-4.1922,-4.1129,-4.1168,-4.1191,-4.1191,-4.1191,-4.1191,-4.1191,-4.1191,-4.1191,-4.1191,-4.1191,-4.1191,-4.1191,-4.1191,-4.1191,-4.1191,-4.1191,-4.1191,-4.1191,-4.1191,-4.1191,-4.1191,-4.1191,-4.1191,-4.1191,-4.1191,-4.1191,-4.1191,-4.1191,-4.1191,-4.1191,-4.1191,-4.1191,-4.1191,-4.1191,-4.1758,-4.2539,-4.3379,0.0,0.0,0.0,0.0,-4.5957,0.0,0.0,0.0,0.0,0.0,-4.2187,-4.1348,-4.1191,-4.1211,-4.125,-4.2675,-4.3709,0.0,-4.4468,-4.4663,-4.3787,-4.3691,-4.3008,-4.1328,-4.1191,-4.1933,0.0,0.0,-4.4492,-4.623,-4.6308,-4.6308,-4.6308,-4.6308,-4.6308,-4.6308,-4.6308,-4.6308,-4.6308,-4.6308,-4.6308,-4.6308,-4.6308,-4.6308,-4.6308,-4.6308,-4.6308,-4.6308,-4.6308,-4.6308,-4.6308,-4.6308,-4.6308,-4.6308,-3.8019,-3.9243,-4.0268,-4.0719,-4.0255,-4.0042,-4.07,-4.1487,-4.2222,-4.2879,-4.373,-4.4485,-4.5084,-4.5355,-4.549,-4.549,-4.549,-4.5156,-4.4337,-4.4345,-4.3607,-4.1887,-4.2087,-4.1874,-4.1127,-4.1116,-4.1146,-4.1191,-4.1191,-4.1191,-4.1191,-4.1191,-4.1191,-4.1191,-4.1191,-4.1191,-4.1191,-4.1191,-4.1191,-4.1191,-4.1191,-4.1191,-4.1191,0.0,-4.1191,-4.1191,-4.1191,-4.1191,-4.1191,-4.1191,-4.1191,-4.1191,-4.1191,-4.1191,-4.1191,-4.1191,-4.1191,-4.1191,-4.1191,-4.1348,-4.1562,-4.1797,-4.2012,-4.25,0.0,0.0,0.0,0.0,0.0,0.0,0.0,0.0,0.0,-4.1445,-4.1191,-4.1406,-4.2012,-4.3027,-4.3709,-4.3709,-4.447,-4.4665,-4.3787,-4.3691,-4.3008,-4.1328,-4.1191,-4.1933,-4.3613,0.0,0.0,-4.623,-4.6308,-4.6308,-4.6308,-4.6308,-4.6308,-4.6308,-4.6308,-4.6308,-4.6308,-4.6308,-4.6308,-4.6308,-4.6308,-4.6308,-4.6308,-4.6308,-4.6308,-4.6308,-4.6308,-4.6308,-4.6308,-4.6308,-4.6308,-4.6308,-3.8096,-3.9301,-4.0352,-4.0739,-4.039,-4.0352,-4.1203,-4.1699,-4.2318,-4.3189,-4.4052,-4.4775,-4.5239,-4.5587,-4.5807,-4.5807,-4.5807,-4.5297,-4.4117,-4.4415,-4.372,-4.1613,-4.1926,-4.1815,-4.1061,-4.1081,-4.1122,-4.1191,-4.1191,-4.1191,-4.1191,-4.1191,-4.1191,-4.1191,-4.1191,-4.1191,-4.1191,-4.1191,-4.1191,-4.1191,-4.1191,-4.1191,0.0,-4.1191,-4.1191,-4.1191,-4.1191,-4.1191,-4.1191,-4.1191,-4.1191,-4.1191,-4.1191,-4.1191,-4.1191,-4.1191,-4.1191,-4.1191,-4.1191,-4.1191,-4.1289,-4.1641,-4.1719,-4.1973,-4.293,-4.3711,-4.4433,0.0,0.0,0.0,0.0,0.0,0.0,-4.2441,-4.2285,-4.2441,-4.2891,-4.371,-4.4276,-4.4276,-4.5037,0.0,-4.3826,-4.3359,-4.2598,-4.1308,-4.1191,-4.1933,0.0,0.0,0.0,-4.623,-4.6308,-4.6308,-4.6308,-4.6308,-4.6308,-4.6308,-4.6308,-4.6308,-4.6308,-4.6308,-4.6308,-4.6308,-4.6308,-4.6308,-4.6308,-4.6308,-4.6308,-4.6308,-4.6308,-4.6308,-4.6308,-4.6308,-4.6308,-4.6308,-3.8373,-3.9166,-4.0023,-4.07,-4.0893,-4.1242,-4.2048,-4.226,0.0,-4.3363,0.0,-4.4755,-4.4755,-4.5374,-4.5768,-4.5652,-4.5749,-4.5084,-4.3421,-4.411,-4.3518,-4.1067,-4.1682,-4.174,-4.1029,-4.1068,-4.1122,-4.1191,-4.1191,-4.1191,-4.1191,-4.1191,-4.1191,-4.1191,-4.1191,-4.1191,-4.1191,-4.1191,-4.1191,-4.1191,-4.1191,-4.1191,-4.1191,-4.1191,-4.1191,-4.1191,-4.1191,-4.1191,-4.1191,-4.1191,-4.1191,-4.1191,-4.1191,-4.1191,-4.1191,-4.1191,-4.1191,-4.1191,-4.1191,-4.1191,-4.1367,-4.207,-4.2246,-4.2266,-4.2383,-4.3652,-4.4648,-4.4004,-4.4551,-4.5137,0.0,0.0,0.0,-4.3848,-4.3769,0.0,0.0,-4.4511,-4.4999,-4.4999,0.0,0.0,0.0,0.0,-4.2305,-4.1289,-4.1308,0.0,0.0,0.0,0.0,-4.623,-4.6308,-4.6308,-4.6308,0.0,-4.6308,-4.6308,-4.6308,-4.6308,-4.6308,-4.6308,-4.6308,-4.6308,-4.6308,-4.6308,-4.6308,-4.6308,-4.6308,-4.6308,-4.6308,-4.6308,-4.6308,-4.6308,-4.6308,-4.6308,-3.9268,-4.0507,-4.139,-4.0893,-4.1351,-4.2086,-4.2937,-4.3692,-4.4188,-4.4342,-4.5084,-4.5587,-4.5587,-4.5729,-4.5529,-4.4871,-4.5413,0.0,0.0,0.0,0.0,-4.1874,-4.1992,-4.174,-4.1029,-4.1068,-4.1122,0.0,0.0,-4.1191,-4.1191,-4.1191,-4.1191,-4.1191,-4.1191,-4.1191,-4.1191,-4.1191,0.0,-4.1191,-4.1191,-4.1191,-4.1191,-4.1191,-4.1191,-4.1191,-4.1191,-4.1191,-4.1191,-4.1191,-4.1191,-4.1191,-4.1191,-4.1191,-4.1191,-4.1191,-4.1191,-4.1191,-4.1191,-4.1191,-4.123,-4.1367,-4.1406,-4.1582,-4.2246,-4.3183,-4.4082,-4.4668,-4.5469,-4.5859,-4.5137,0.0,0.0,0.0,0.0,0.0,0.0,0.0,-4.5,-4.5,-4.5137,-4.5117,0.0,0.0,-4.3613,-4.1367,-4.1816,0.0,0.0,0.0,0.0,0.0,-4.6308,0.0,0.0,0.0,-4.6308,-4.6308,-4.6308,-4.6308,-4.6308,-4.6308,-4.6308,-4.6308,-4.6308,-4.6308,-4.6308,-4.6308,-4.6308,-4.6308,-4.6308,-4.6308,-4.6308,-4.6308,-4.6308,-4.6308,-4.1371,-4.1757,-4.2028,-4.2086,-4.2415,0.0,0.0,-4.4678,-4.5065,-4.4652,-4.4949,-4.5181,-4.5181,-4.5548,-4.5652,-4.5258,-4.5181,-4.4639,-4.3382,-4.3266,-4.2686,-4.1429,-4.1412,-4.1281,-4.0953,-4.0974,-4.102,-4.1104,0.0,0.0,-4.1146,0.0,0.0,-4.1191,-4.1191,-4.1191,0.0,0.0,0.0,-4.1191,-4.1191,-4.1191,-4.1191,-4.1191,-4.1191,-4.1191,-4.1191,-4.1191,-4.1191,-4.1191,-4.1191,-4.1191,-4.1191,-4.1191,-4.1191,-4.1191,-4.1191,-4.1191,-4.1191,-4.1191,-4.1191,-4.1191,-4.1191,-4.1308,-4.1699,-4.2773,-4.3828,-4.4238,-4.5371,-4.6172,-4.5742,-4.5332,0.0,0.0,0.0,0.0,0.0,0.0,-4.5664,-4.5664,-4.5273,-4.4824,0.0,0.0,0.0,0.0,0.0,0.0,0.0,0.0,0.0,0.0,0.0,0.0,0.0,0.0,0.0,-4.6308,-4.6308,-4.6308,-4.6308,-4.6308,-4.6308,-4.6308,-4.6308,-4.6308,-4.6308,-4.6308,-4.6308,-4.6308,-4.6308,-4.6308,-4.6308,-4.6308,-4.6308,-4.6308,-4.3208,-4.2899,-4.2705,-4.3208,-4.346,-4.3808,-4.4497,-4.5278,-4.5568,-4.4949,-4.4871,-4.4871,-4.4871,-4.5413,-4.5729,-4.5548,-4.4968,-4.4149,-4.3092,-4.2376,-4.1641,-4.0835,-4.0802,-4.084,-4.0907,-4.0906,-4.0953,0.0,0.0,0.0,0.0,0.0,0.0,0.0,0.0,0.0,0.0,0.0,-4.1191,-4.1191,-4.1191,-4.1191,-4.1191,-4.1191,-4.1191,-4.1191,-4.1191,-4.1191,-4.1191,-4.1191,-4.1191,-4.1191,-4.1191,-4.1191,-4.1191,-4.1191,-4.1191,-4.1191,-4.1191,-4.1191,-4.1191,-4.1191,-4.1191,-4.123,-4.1426,-4.2617,-4.375,-4.3945,-4.5215,-4.6308,-4.6308,-4.6308,0.0,0.0,0.0,0.0,0.0,0.0,-4.6308,-4.6308,-4.5527,-4.4726,-4.4043,0.0,0.0,0.0,0.0,0.0,0.0,0.0,0.0,0.0,0.0,-4.6308,-4.6308,0.0,-4.6308,0.0,-4.6308,-4.6308,-4.6308,-4.6308,-4.6308,-4.6308,-4.6308,-4.6308,-4.6308,-4.6308,-4.6308,-4.6308,-4.6308,-4.6308,-4.6308,-4.6308,-4.6308,-4.6308,-4.344,-4.3866,-4.413,0.0,0.0,-4.4516,-4.4594,-4.5278,-4.5768,-4.571,-4.5691,-4.5691,-4.5691,-4.5749,-4.551,-4.4775,-4.4632,-4.3885,-4.2222,-4.2048,-4.1641,-4.0835,-4.0862,-4.0898,-4.0907,-4.0968,-4.0984,0.0,0.0,-4.0695,0.0,0.0,0.0,0.0,0.0,0.0,0.0,-4.1191,-4.1191,-4.1191,-4.1191,-4.1191,-4.1191,-4.1191,-4.1191,-4.1191,-4.1191,-4.1191,-4.1191,-4.1191,-4.1191,-4.1191,-4.1191,-4.1191,-4.1191,-4.1191,-4.1191,-4.1191,-4.1191,-4.1191,-4.1191,-4.1191,-4.1191,-4.1387,-4.2129,-4.3027,-4.3926,-4.4726,-4.5644,-4.6308,-4.6308,-4.6308,-4.6308,0.0,0.0,0.0,0.0,0.0,-4.6308,-4.6308,-4.5527,-4.4961,-4.4883,-4.3457,0.0,0.0,-4.2324,0.0,0.0,0.0,0.0,-4.4961,0.0,-4.6308,-4.6308,-4.6308,-4.6308,-4.6308,-4.6308,-4.6308,-4.6308,-4.6308,-4.6308,-4.6308,-4.6308,-4.6308,-4.6308,-4.6308,-4.6308,-4.6308,-4.6308,-4.6308,-4.6308,-4.6308,-4.6308,-4.6308,0.0,0.0,0.0,0.0,0.0,0.0,0.0,-4.5587,-4.5807,-4.5807,-4.5374,-4.5258,-4.5749,-4.4891,-4.4388,-4.4574,-4.3634,-4.2744,-4.2048,-4.1545,-4.1145,-4.0816,-4.0825,-4.0848,-4.0848,-4.0872,-4.0878,0.0,0.0,0.0,0.0,0.0,0.0,0.0,0.0,-4.1191,-4.1191,-4.1191,-4.1191,-4.1191,-4.1191,-4.1191,-4.1191,-4.1191,-4.1191,-4.1191,-4.1191,-4.1191,-4.1191,-4.1191,-4.1191,-4.1191,-4.1191,-4.1191,-4.1191,-4.1191,-4.1191,-4.1191,-4.1191,-4.1191,-4.1191,-4.1191,-4.1191,-4.1406,-4.2226,-4.3066,-4.3945,-4.4824,-4.5683,-4.6308,-4.6308,-4.6308,-4.6308,0.0,0.0,0.0,0.0,0.0,0.0,-4.6308,-4.5527,-4.5,-4.5,-4.3418,0.0,0.0,0.0,0.0,0.0,0.0,0.0,-4.4961,0.0,-4.6308,-4.6308,-4.6308,-4.6308,-4.6308,-4.6308,-4.6308,-4.6308,-4.6308,-4.6308,-4.6308,-4.6308,-4.6308,-4.6308,-4.6308,-4.6308,-4.6308,-4.6308,-4.6308,-4.6308,-4.6308,-4.6308,-4.6308,-4.5807,0.0,-4.5123,0.0,-4.5336,-4.5142,-4.571,-4.5807,-4.5807,-4.5807,-4.5104,-4.4813,-4.5394,-4.4156,-4.3556,-4.4149,-4.286,-4.2009,-4.2009,-4.1261,-4.0797,-4.0797,-4.0797,0.0,-4.0797,-4.0797,-4.0797,-4.0797,-4.0877,0.0,0.0,0.0,0.0,0.0,-4.1191,-4.1191,-4.1191,-4.1191,-4.1191,-4.1191,-4.1191,-4.1191,-4.1191,-4.1191,-4.1191,-4.1191,-4.1191,-4.1191,-4.1191,-4.1191,-4.1191,-4.1191,-4.1191,-4.1191,-4.1191,-4.1191,-4.1191,-4.1191,-4.1191,-4.1191,-4.1191,-4.1191,-4.1191,-4.1406,-4.2226,-4.3066,-4.4023,-4.5156,-4.5879,-4.6308,-4.6308,-4.6308,-4.6308,-4.6308,0.0,0.0,0.0,-4.6308,0.0,-4.6308,-4.5527,-4.5,-4.5,-4.3418,0.0,0.0,0.0,0.0,0.0,0.0,0.0,0.0,0.0,0.0,0.0,-4.6308,-4.6308,-4.6308,-4.6308,-4.6308,-4.6308,-4.6308,-4.6308,-4.6308,-4.6308,-4.6308,-4.6308,-4.6308,-4.6308,-4.6308,-4.6308,-4.6308,-4.6308,-4.6308,-4.6308,-4.6308,-4.5807,-4.5787,-4.5787,-4.5807,-4.5787,-4.5787,-4.5807,-4.5807,-4.5807,-4.5807,-4.5104,-4.4594,-4.4613,-4.3827,-4.3305,-4.3305,-4.2512,-4.2009,-4.2009,-4.1261,-4.0797,0.0,0.0,-4.0797,-4.0797,-4.0797,-4.0797,-4.0797,0.0,0.0,-3.9616,0.0,-4.0303,-4.1191,-4.1191,-4.1191,-4.1191,-4.1191,-4.1191,-4.1191,-4.1191,-4.1191,-4.1191,-4.1191,-4.1191,-4.1191,-4.1191,-4.1191,-4.1191,-4.1191,-4.1191,-4.1191,-4.1191,-4.1191,-4.1191,-4.1191,-4.1191,-4.1191,-4.1191,-4.1191,-4.1191,-4.1191,-4.1191,-4.1406,-4.2226,-4.3066,-4.4199,-4.5937,-4.6289,-4.6308,-4.6308,-4.6308,-4.6308,-4.6308,0.0,0.0,0.0,-4.6308,0.0,-4.6308,-4.5527,-4.5,-4.5,-4.3418,0.0,0.0,0.0,0.0,0.0,0.0,0.0,-4.4961,-4.5859,0.0,-4.6308,-4.6308,-4.6308,-4.6308,-4.6308,-4.6308,-4.6308,-4.6308,-4.6308,-4.6308,-4.6308,-4.6308,-4.6308,-4.6308,-4.6308,-4.6308,-4.6308,-4.6308,-4.6308,-4.6308,-4.6308,-4.6308,-4.5807,-4.5807,-4.5807,-4.5807,-4.5807,-4.5807,-4.5807,-4.5807,-4.5807,-4.5807,-4.5104,-4.4594,-4.4594,-4.3285,-4.2415,0.0,-4.1661,-4.1184,0.0,-4.0951,-4.0797,-4.0797,-4.0797,-4.0797,-4.0797,-4.0797,-4.0797,-4.0797,0.0,0.0,0.0,-4.0634,-4.084,-4.1122,-4.1171,-4.1191,-4.1191,-4.1191,-4.1191,-4.1191,-4.1191,-4.1191,-4.1191,-4.1191,-4.1191,-4.1191,-4.1191,-4.1191,-4.1191,-4.1191,-4.1191,-4.1191,-4.1191,-4.1191,-4.1191,-4.1191,-4.1191,-4.1191,-4.1191,-4.1191,-4.1191,-4.1191,-4.1191,-4.1406,-4.2226,-4.3535,-4.4902,-4.6055,-4.6308,-4.6308,-4.6308,-4.6308,-4.6308,-4.6308,-4.6308,0.0,0.0,0.0,-4.6308,-4.6308,-4.6055,-4.5898,-4.5898,-4.4844,0.0,0.0,0.0,0.0,0.0,0.0,0.0,0.0,-4.6152,0.0,-4.6308,-4.6308,-4.6308,-4.6308,-4.6308,-4.6308,-4.6308,-4.6308,-4.6308,-4.6308,-4.6308,-4.6308,-4.6308,-4.6308,-4.6308,-4.6308,-4.6308,-4.6308,-4.6308,-4.6308,-4.6308,-4.6308,-4.5807,-4.5807,-4.5807,-4.5807,-4.5807,-4.5807,-4.5807,-4.5807,-4.5807,-4.5807,-4.5355,-4.4949,-4.4632,-4.3634,0.0,-4.2067,-4.1255,-4.0797,-4.0797,-4.0797,-4.0797,-4.0797,-4.0797,-4.0797,-4.0797,-4.0797,0.0,-4.0797,-4.0834,-4.0903,-4.0953,-4.1019,-4.1059,-4.109,-4.1144,-4.1171,-4.1191,-4.1191,-4.1191,-4.1191,-4.1191,-4.1191,-4.1191,-4.1191,-4.1191,-4.1191,-4.1191,-4.1191,-4.1191,-4.1191,-4.1191,-4.1191,-4.1191,-4.1191,-4.1191,-4.1191,-4.1191,-4.1191,-4.1191,-4.1191,-4.1191,-4.1191,-4.1191,-4.1504,-4.2637,-4.373,-4.4844,-4.6055,-4.6308,-4.6308,-4.6308,-4.6308,-4.6308,-4.6308,-4.6308,-4.6308,-4.6308,0.0,-4.6308,0.0,0.0,0.0,0.0,-4.5508,-4.5,0.0,0.0,0.0,0.0,0.0,0.0,-4.6269,-4.6308,0.0,-4.6308,-4.6308,-4.6308,-4.6308,-4.6308,-4.6308,-4.6308,-4.6308,-4.6308,-4.6308,-4.6308,-4.6308,-4.6308,-4.6308,-4.6308,-4.6308,-4.6308,-4.6308,-4.6308,-4.6308,-4.6308,-4.6308,-4.5807,-4.5807,-4.5807,0.0,-4.5807,0.0,-4.5807,-4.5807,-4.5807,-4.5807,-4.5807,-4.551,-4.4755,-4.4574,-4.3866,-4.2222,0.0,0.0,0.0,-4.0797,-4.0797,-4.0797,-4.0797,-4.0797,-4.0797,-4.0797,-4.0797,-4.0797,-4.0797,-4.0837,-4.0898,-4.0903,-4.096,-4.1087,-4.1108,-4.1142,-4.1191,-4.1191,-4.1191,-4.1191,-4.1191,-4.1191,-4.1191,-4.1191,-4.1191,-4.1191,-4.1191,-4.1191,-4.1191,-4.1191,-4.1191,-4.1191,-4.1191,-4.1191,-4.1191,-4.1191,-4.1191,-4.1191,-4.1191,-4.1191,-4.1191,-4.1191,-4.123,-4.1719,-4.332,-4.375,-4.4277,-4.5957,-4.6308,-4.6308,-4.6308,-4.6308,-4.6308,-4.6308,-4.6308,-4.6308,-4.6308,0.0,-4.6308,0.0,0.0,0.0,0.0,-4.5566,-4.5078,0.0,0.0,0.0,0.0,0.0,-4.5469,-4.6269,-4.6308,-4.6308,-4.6308,-4.6308,-4.6308,-4.6308,-4.6308,-4.6308,-4.6308,-4.6308,-4.6308,-4.6308,-4.6308,-4.6308,-4.6308,-4.6308,-4.6308,-4.6308,-4.6308,-4.6308,-4.6308,-4.6308,-4.6308,-4.6308,0.0,0.0,-4.5807,-4.5807,-4.5807,-4.5807,-4.5807,-4.5807,-4.5807,-4.5807,-4.5807,-4.5729,-4.5529,-4.4369,-4.344,-4.3034,-4.2202,-4.1448,-4.0835,-4.0797,-4.0797,-4.0797,-4.0797,-4.0797,-4.0797,-4.0797,-4.0797,-4.0797,-4.0797,-4.0809,-4.082,-4.0873,-4.0949,-4.1037,-4.1076,-4.1142,-4.1191,-4.1191,-4.1191,-4.1191,-4.1191,-4.1191,-4.1191,-4.1191,-4.1191,-4.1191,-4.1191,-4.1191,-4.1191,-4.1191,-4.1191,-4.1191,-4.1191,-4.1191,-4.1191,-4.1191,-4.1191,-4.1191,-4.1191,-4.1191,-4.1191,-4.1191,-4.166,-4.2383,-4.3457,-4.4219,-4.5,-4.6074,-4.6308,-4.6308,-4.6308,-4.6308,-4.6308,-4.6308,-4.6308,-4.6308,-4.6308,-4.6308,0.0,0.0,-4.6308,-4.6308,-4.6308,-4.6113,-4.5723,0.0,0.0,0.0,0.0,-4.5625,-4.6094,-4.6289,-4.6308,-4.6308,-4.6308,-4.6308,-4.6308,-4.6308,-4.6308,-4.6308,-4.6308,-4.6308,-4.6308,-4.6308,-4.6308,-4.6308,-4.6308,-4.6308,-4.6308,-4.6308,-4.6308,-4.6308,-4.6308,-4.6308,-4.6308,-4.6308,-4.5807,-4.5807,-4.5807,-4.5807,-4.5807,-4.5807,-4.5807,-4.5807,-4.5807,-4.5807,-4.5807,-4.5807,-4.5807,-4.4987,-4.4136,-4.3363,-4.2164,-4.1274,-4.0835,-4.0797,-4.0797,-4.0797,-4.0797,-4.0797,-4.0797,-4.0797,-4.0797,-4.0797,-4.0797,-4.0797,-4.0797,-4.0843,-4.0893,-4.0964,-4.1017,-4.1085,-4.1167,-4.1191,-4.1191,-4.1191,-4.1191,-4.1191,-4.1191,-4.1191,-4.1191,-4.1191,-4.1191,-4.1191,-4.1191,-4.1191,-4.1191,-4.1191,-4.1191,-4.1191,-4.1191,-4.1191,-4.1191,-4.1191,-4.1191,-4.1191,-4.1191,-4.1191,-4.1797,-4.2637,-4.3496,-4.4375,-4.5254,-4.6113,-4.6308,-4.6308,-4.6308,-4.6308,-4.6308,-4.6308,-4.5976,-4.584,-4.623,-4.5957,0.0,-4.625,-4.6308,-4.6308,-4.6308,-4.6308,-4.6094,-4.5625,-4.6035,0.0,-4.5625,-4.6035,-4.6308,-4.6308,-4.6308,-4.6308,-4.6308,-4.6308,-4.6308,-4.6308,-4.6308,-4.6308,-4.6308,-4.6308,-4.6308,-4.6308,-4.6308,-4.6308,-4.6308,-4.6308,-4.6308,-4.6308,-4.6308,-4.6308,-4.6308,-4.6308,-4.6308,-4.6308,-4.5807,-4.5807,-4.5807,-4.5807,-4.5807,-4.5807,-4.5807,-4.5807,-4.5807,-4.5807,-4.5807,-4.5807,-4.5807,-4.5691,-4.4987,-4.344,-4.1874,-4.0932,-4.0816,-4.0797,-4.0797,-4.0797,-4.0797,-4.0797,-4.0797,-4.0797,-4.0797,-4.0797,-4.0797,-4.0797,-4.0797,-4.0797,-4.0843,-4.0893,-4.0968,-4.1039,-4.1091,-4.1168,-4.1191,-4.1191,-4.1191,-4.1191,-4.1191,-4.1191,-4.1191,-4.1191,-4.1191,-4.1191,-4.1191,-4.1191,-4.1191,-4.1191,-4.1191,-4.1191,-4.1191,-4.1191,-4.1191,-4.1191,-4.1191,-4.1191,-4.123,-4.1348,-4.1992,-4.2812,-4.3691,-4.457,-4.541,-4.6152,-4.6308,-4.6308,-4.6308,-4.6308,-4.6308,-4.6308,-4.5566,-4.5293,-4.6172,0.0,-4.5312,-4.6191,-4.6308,-4.6308,-4.6308,-4.6308,-4.6308,-4.6308,-4.6308,-4.6308,-4.6308,-4.6308,-4.6308,-4.6308,-4.6308,-4.6308,-4.6308,-4.6308,-4.6308,-4.6308,-4.6308,-4.6308,-4.6308,-4.6308,-4.6308,-4.6308,-4.6308,-4.6308,-4.6308,-4.6308,-4.6308,-4.6308,-4.6308,-4.6308,-4.6308,-4.6308,-4.6308,-4.6308,-4.5807,-4.5807,-4.5807,-4.5807,-4.5807,-4.5807,-4.5807,-4.5807,-4.5807,-4.5807,-4.5807,-4.5807,-4.5807,-4.5181,-4.4388,-4.3401,-4.2396,-4.1525,-4.0835,-4.0797,-4.0797,-4.0797,-4.0797,-4.0797,-4.0797,-4.0797,-4.0797,-4.0797,-4.0797,-4.0797,-4.0797,-4.0797,-4.0843,-4.0907,-4.0902,-4.0977,-4.1109,-4.1114,-4.1146,-4.1191,-4.1191,-4.1191,-4.1191,-4.1191,-4.1191,-4.1191,-4.1191,-4.1191,-4.1191,-4.1191,-4.1191,-4.1191,-4.1191,-4.1191,-4.1191,-4.1191,-4.1191,-4.1191,-4.1191,-4.1191,-4.1367,-4.2031,-4.2851,-4.373,-4.4609,-4.5469,-4.6133,-4.6269,-4.6308,-4.6308,-4.6308,-4.6308,-4.6308,-4.6308,-4.5566,-4.5293,-4.6172,0.0,-4.5312,-4.6191,-4.6308,-4.6308,-4.6308,-4.6308,-4.6308,-4.6308,-4.6308,-4.6308,-4.6308,-4.6308,-4.6308,-4.6308,-4.6308,-4.6308,-4.6308,-4.6308,-4.6308,-4.6308,-4.6308,-4.6308,-4.6308,-4.6308,-4.6308,-4.6308,-4.6308,-4.6308,-4.6308,-4.6308,-4.6308,-4.6308,-4.6308,-4.6308,-4.6308,-4.6308,-4.6308,-4.6308,-4.5807,-4.5807,-4.5807,-4.5807,-4.5807,-4.5807,-4.5807,-4.5807,-4.5807,-4.5807,-4.5807,-4.5633,-4.52,-4.4813,-4.4052,-4.2725,-4.2222,-4.1661,-4.0855,-4.0797,-4.0797,-4.0797,-4.0797,-4.0797,-4.0797,-4.0797,-4.0797,-4.0797,-4.0797,-4.0797,-4.0797,-4.0797,-4.0827,-4.0846,-4.0883,-4.0941,-4.1057,-4.1081,-4.1143,-4.1191,-4.1191,-4.1191,-4.1191,-4.1191,-4.1191,-4.1191,-4.1191,-4.1191,-4.1191,-4.1191,-4.1191,-4.1191,-4.1191,-4.1191,-4.1191,-4.1191,-4.1191,-4.1191,-4.1191,-4.1191,-4.1387,-4.2207,-4.3066,-4.3926,-4.4805,-4.5664,-4.6308,-4.6308,-4.6308,-4.6308,-4.6308,-4.6308,-4.6308,-4.6308,-4.5566,0.0,0.0,-4.5547,-4.5312,-4.6191,-4.6308,-4.6308,-4.6308,-4.6308,-4.6308,-4.6308,-4.6308,-4.6308,-4.6308,-4.6308,-4.6308,-4.6308,-4.6308,-4.6308,-4.6308,-4.6308,-4.6308,-4.6308,-4.6308,-4.6308,-4.6308,-4.6308,-4.6308,-4.6308,-4.6308,-4.6308,-4.6308,-4.6308,-4.6308,-4.6308,-4.6308,-4.6308,-4.6308,-4.6308,-4.6308,-4.6308,-4.5768,-4.5807,-4.5807,-4.5807,-4.5807,-4.5807,-4.5807,-4.5807,-4.5807,-4.5807,-4.5652,-4.5297,-4.4671,-4.442,-4.3692,-4.2125,-4.2009,-4.1661,-4.0855,-4.0797,-4.0797,-4.0797,-4.0797,-4.0797,-4.0797,-4.0797,-4.0797,-4.0797,-4.0797,-4.0797,-4.0797,-4.0797,-4.0797,-4.0797,-4.0856,-4.0906,-4.097,-4.1022,-4.1109,-4.1171,-4.1171,-4.1191,-4.1191,-4.1191,-4.1191,-4.1191,-4.1191,-4.1191,-4.1191,-4.1191,-4.1191,-4.1191,-4.1191,-4.1191,-4.1191,-4.1191,-4.1191,-4.1191,-4.1191,-4.1348,-4.168,-4.25,-4.3359,-4.4238,-4.5098,-4.582,-4.6308,-4.6308,-4.6308,-4.6308,-4.6308,-4.6308,-4.6308,-4.6308,0.0,0.0,0.0,-4.5547,-4.5312,-4.6191,-4.6308,-4.6308,-4.6308,-4.6308,-4.6308,-4.6308,-4.6308,-4.6308,-4.6308,-4.6308,-4.6308,-4.6308,-4.6308,-4.6308,-4.6308,-4.6308,-4.6308,-4.6308,-4.6308,-4.6308,-4.6308,-4.6308,-4.6308,-4.6308,-4.6308,-4.6308,-4.6308,-4.6308,-4.6308,-4.6308,-4.6308,-4.6308,-4.6308,-4.6308,-4.6308,-4.6308,-4.5652,-4.5807,-4.5807,-4.5807,-4.5807,-4.5807,-4.5807,-4.5807,-4.5807,-4.5807,-4.5142,-4.4671,-4.4613,-4.3885,-4.3015,-4.2086,-4.2009,-4.1661,-4.0855,-4.0797,-4.0797,-4.0797,-4.0797,-4.0797,-4.0797,-4.0797,-4.0797,-4.0797,-4.0797,-4.0797,-4.0797,-4.0797,-4.0797,-4.0797,-4.0803,-4.084,-4.0917,-4.0906,-4.0984,-4.1112,-4.1112,-4.1145,-4.1191,-4.1191,-4.1191,-4.1191,-4.1191,-4.1191,-4.1191,-4.1191,-4.1191,-4.1191,-4.1191,-4.1191,-4.1191,-4.1191,-4.1191,-4.1191,-4.1191,-4.1738,-4.2519,-4.3398,-4.4258,-4.5137,-4.6016,-4.625,-4.6308,-4.6308,-4.6308,-4.6308,-4.6308,-4.6308,-4.6308,-4.6308,0.0,0.0,-4.6172,-4.5547,-4.5312,-4.6191,-4.6308,-4.6308,-4.6308,-4.6308,-4.6308,-4.6308,-4.6308,-4.6308,-4.6308,-4.6308,-4.6308,-4.6308,-4.6308,-4.6308,-4.6308,-4.6308,-4.6308,-4.6308,-4.6308,-4.6308,-4.6308,-4.6308,-4.6308,-4.6308,-4.6308,-4.6308,-4.6308,-4.6308,-4.6308,-4.6308,-4.6308,-4.6308,-4.6308,-4.6308,-4.6308,-4.6308,-4.4891,-4.5065,-4.52,-4.571,-4.5807,-4.5807,-4.5807,-4.5807,-4.5807,-4.5807,-4.5529,-4.4949,-4.3904,-4.3498,-4.2744,-4.1371,-4.1255,-4.1126,-4.0816,-4.0797,-4.0797,-4.0797,-4.0797,-4.0797,-4.0797,-4.0797,-4.0797,-4.0797,-4.0797,-4.0797,-4.0797,-4.0797,-4.0797,-4.0797,-4.0797,-4.0843,-4.0907,-4.0907,-4.097,-4.1109,-4.1109,-4.1143,-4.1191,-4.1191,-4.1191,-4.1191,-4.1191,-4.1191,-4.1191,-4.1191,-4.1191,-4.1191,-4.1191,-4.1191,-4.1191,-4.1191,-4.1191,-4.1308,-4.1816,-4.2168,-4.2734,-4.4141,-4.4766,-4.5234,-4.6094,-4.6308,-4.6308,-4.6308,-4.6308,-4.6308,-4.6308,-4.6308,-4.6308,-4.6308,0.0,-4.5918,-4.625,-4.6016,-4.5937,-4.6269,-4.6308,-4.6308,-4.6308,-4.6308,-4.6308,-4.6308,-4.6308,-4.6308,-4.6308,-4.6308,-4.6308,-4.6308,-4.6308,-4.6308,-4.6308,-4.6308,-4.6308,-4.6308,-4.6308,-4.6308,-4.6308,-4.6308,-4.6308,-4.6308,-4.6308,-4.6308,-4.6308,-4.6308,-4.6308,-4.6308,-4.6308,-4.6308,-4.6308,-4.6308,-4.6308,-4.6308,-4.4045,-4.4387,-4.4735,-4.5302,-4.5612,-4.5786,-4.5771,-4.5798,-4.5786,-4.5771,-4.5532,-4.4824,-4.342,-4.3265,-4.2595,-4.0945,-4.1029,-4.1067,-4.0816,-4.0797,-4.0797,-4.0797,-4.0797,-4.0797,-4.0797,-4.0797,-4.0797,-4.0797,-4.0797,-4.0797,-4.0797,-4.0797,-4.0797,-4.0797,-4.0797,-4.0825,-4.0877,-4.0877,-4.0953,-4.107,-4.107,-4.1117,-4.1191,-4.1191,-4.1191,-4.1191,-4.1191,-4.1191,-4.1191,-4.1191,-4.1191,-4.1191,-4.1191,-4.1191,-4.125,-4.1504,-4.1582,-4.1816,-4.293,-4.3223,-4.3496,-4.4707,-4.5215,-4.5566,-4.6152,-4.6308,-4.6308,-4.6308,-4.6308,-4.6308,-4.6308,-4.6308,-4.6308,-4.6308,-4.6308,-4.6308,-4.6308,-4.6308,-4.6308,-4.6308,-4.6308,-4.6308,-4.6308,-4.6308,-4.6308,-4.6308,-4.6308,-4.6308,-4.6308,-4.6308,-4.6308,-4.6308,-4.6308,-4.6308,-4.6308,-4.6308,-4.6308,-4.6308,-4.6308,-4.6308,-4.6308,-4.6308,-4.6308,-4.6308,-4.6308,-4.6308,-4.6308,-4.6308,-4.6308,-4.6308,-4.6308,-4.6308,-4.6308,-4.6308,-4.6308,-4.6308,-4.3225,-4.3907,-4.4498,-4.4518,-4.522,-4.5773,-4.5715,-4.5758,-4.5773,-4.5708,-4.4947,-4.4087,-4.3294,-4.3185,-4.2549,-4.0945,-4.1525,-4.1641,-4.0855,-4.0797,-4.0797,-4.0797,-4.0797,-4.0797,-4.0797,-4.0797,-4.0797,-4.0797,-4.0797,-4.0797,-4.0797,-4.0797,-4.0797,-4.0797,-4.0797,-4.0797,-4.0797,-4.0797,-4.0873,-4.099,-4.099,-4.1076,-4.1191,-4.1191,-4.1191,-4.1191,-4.1191,-4.1191,-4.1191,-4.1191,-4.1191,-4.1191,-4.1191,-4.1191,-4.1367,-4.2168,-4.2402,-4.2793,-4.4531,-4.5,-4.5,-4.5019,-4.5664,-4.6308,-4.6308,-4.6308,-4.6308,-4.6308,-4.6308,-4.6308,-4.6308,-4.6308,-4.6308,-4.6308,-4.6308,-4.6308,-4.6308,-4.6308,-4.6308,-4.6308,-4.6308,-4.6308,-4.6308,-4.6308,-4.6308,-4.6308,-4.6308,-4.6308,-4.6308,-4.6308,-4.6308,-4.6308,-4.6308,-4.6308,-4.6308,-4.6308,-4.6308,-4.6308,-4.6308,-4.6308,-4.6308,-4.6308,-4.6308,-4.6308,-4.6308,-4.6308,-4.6308,-4.6308,-4.6308,-4.6308,-4.6308,-4.6308,-4.6308,-4.6308,-4.6308,-4.6308,-4.394,-4.4241,-4.4608,-4.5233,-4.5569,-4.5723,-4.5708,-4.5715,-4.5723,-4.5708,-4.4967,-4.4152,-4.3301,-4.2702,-4.195,-4.0887,-4.1029,-4.1067,-4.0816,-4.0797,-4.0797,-4.0797,-4.0797,-4.0797,-4.0797,-4.0797,-4.0797,-4.0797,-4.0797,-4.0797,-4.0797,-4.0797,-4.0797,-4.0797,-4.0797,-4.0797,-4.0797,-4.0797,-4.0846,-4.0928,-4.0928,-4.1003,-4.1119,-4.1076,-4.1116,-4.1191,-4.1145,-4.1168,-4.1191,-4.1191,-4.1191,-4.1191,-4.1191,-4.1582,-4.209,-4.2324,-4.2832,-4.3555,-4.4687,-4.5,-4.5156,-4.5762,-4.6113,-4.6308,-4.6308,-4.6308,-4.6308,-4.6308,-4.6308,-4.6308,-4.6308,-4.6308,-4.6308,-4.6308,-4.6308,-4.6308,-4.6308,-4.6308,-4.6308,-4.6308,-4.6308,-4.6308,-4.6308,-4.6308,-4.6308,-4.6308,-4.6308,-4.6308,-4.6308,-4.6308,-4.6308,-4.6308,-4.6308,-4.6582,-4.7207,-4.6601,-4.6601,-4.7207,-4.6582,-4.6621,-4.7187,-4.6582,-4.6308,-4.6308,-4.6308,-4.6308,-4.6308,-4.6308,-4.6308,-4.6308,-4.6308,-4.6308,-4.6308,-4.6308,-4.6308,-4.6308,-4.3863,-4.4164,-4.4569,-4.5097,-4.5464,-4.5695,-4.566,-4.5687,-4.5695,-4.566,-4.5227,-4.4608,-4.3771,-4.3238,-4.2488,-4.1344,-4.0939,-4.0752,-4.0752,-4.0784,-4.0797,-4.0797,-4.0797,-4.0797,-4.0797,-4.0797,-4.0797,-4.0797,-4.0797,-4.0797,-4.0797,-4.0797,-4.0797,-4.0797,-4.0797,-4.0797,-4.0797,-4.0797,-4.0848,-4.0907,-4.0907,-4.0956,-4.1061,-4.1025,-4.1068,-4.1167,-4.1115,-4.1144,-4.1191,-4.1191,-4.1191,-4.1269,-4.1562,-4.2012,-4.2539,-4.3223,-4.3808,-4.4394,-4.5273,-4.5508,-4.5644,-4.6172,-4.6308,-4.6308,-4.6308,-4.6308,-4.6308,-4.6308,-4.6308,-4.6308,-4.6308,-4.6308,-4.6308,-4.6308,-4.6308,-4.6308,-4.6308,-4.6308,-4.6308,-4.6308,-4.6308,-4.6308,-4.6308,-4.6308,-4.6445,-4.6797,-4.7129,-4.7324,-4.7324,-4.7324,-4.7324,-4.7324,-4.7324,-4.7578,-4.8105,-4.7598,-4.7422,-4.7598,-4.6719,-4.6582,-4.707,-4.6543,-4.6308,-4.6308,-4.6308,-4.6308,-4.6308,-4.6308,-4.6308,-4.6308,-4.6308,-4.6308,-4.6308,-4.6308,-4.6308,-4.6308,-4.3477,-4.397,-4.4501,-4.4501,-4.5164,-4.5665,-4.5622,-4.5648,-4.5676,-4.5614,-4.5537,-4.5199,-4.4482,-4.4267,-4.3551,-4.2047,-4.1163,-4.07,-4.07,-4.0778,-4.0797,-4.0797,-4.0797,-4.0797,-4.0797,-4.0797,-4.0797,-4.0797,-4.0797,-4.0797,-4.0797,-4.0797,-4.0797,-4.0797,-4.0797,-4.0797,-4.0797,-4.0874,-4.0901,-4.0893,-4.0971,-4.101,-4.0981,-4.0974,-4.1039,-4.1085,-4.1085,-4.1122,-4.1191,-4.1289,-4.1308,-4.1445,-4.2266,-4.2578,-4.2949,-4.4531,-4.5058,-4.5293,-4.6074,-4.6308,-4.6308,-4.6308,-4.6308,-4.6308,-4.6308,-4.6308,-4.6308,-4.6308,-4.6308,-4.6328,-4.6406,-4.6348,-4.6328,-4.6406,-4.6348,-4.6308,-4.6308,-4.6367,-4.6426,-4.6426,-4.6484,-4.6523,-4.6523,-4.6523,-4.6855,-4.7656,-4.8457,-4.8906,-4.8906,-4.8906,-4.8906,-4.8906,-4.8906,-4.8945,-4.9023,-4.8945,-4.8535,-4.7812,-4.6953,-4.6523,-4.6523,-4.6445,-4.6367,-4.6308,-4.6308,-4.6308,-4.6308,-4.6308,-4.6308,-4.6308,-4.6308,-4.6308,-4.6308,-4.6308,-4.6308,-4.6308,-4.5111,-4.5199,-4.5334,-4.5334,-4.5488,-4.5622,-4.5594,-4.5603,-4.5622,-4.5594,-4.5017,-4.4545,-4.4405,-4.3227,-4.2314,-4.2012,-4.1242,-4.0784,-4.0784,-4.079,-4.0797,-4.0797,-4.0797,-4.0797,-4.0797,-4.0797,-4.0797,-4.0797,-4.0797,-4.0797,-4.0797,-4.0797,-4.0797,-4.0797,-4.0797,-4.0797,-4.0835,-4.1467,-4.1389,-4.0872,-4.1511,-4.1424,-4.0911,-4.0853,-4.0915,-4.1014,-4.1014,-4.1068,-4.1238,-4.1913,-4.2148,-4.2285,-4.3144,-4.3887,-4.4512,-4.4883,-4.5488,-4.6055,-4.625,-4.6308,-4.6308,-4.6308,-4.6308,-4.6308,-4.6308,-4.6308,-4.6308,-4.6308,-4.6308,-4.6504,-4.7187,-4.6758,-4.6523,-4.7207,-4.6758,-4.6308,-4.6308,-4.6894,-4.7324,-4.7324,-4.793,-4.834,-4.834,-4.834,-4.8418,-4.8594,-4.8789,-4.8906,-4.8906,-4.8906,-4.8906,-4.8906,-4.8906,-4.9238,-4.9902,-4.9238,-4.9141,-4.9629,-4.875,-4.834,-4.8301,-4.7637,-4.6953,-4.6308,-4.6308,-4.6308,-4.6308,-4.6308,-4.6308,-4.6308,-4.6308,-4.6308,-4.6308,-4.6308,-4.6308,-4.6308,-4.5594,-4.5594,-4.5594,-4.5594,-4.5594,-4.5594,-4.5594,-4.5594,-4.5594,-4.5594,-4.521,-4.4786,-4.438,-4.3233,-4.216,-4.135,-4.093,-4.0699,-4.0699,-4.07,-4.0707,-4.0707,-4.0707,-4.0713,-4.0746,-4.0746,-4.0778,-4.0797,-4.0797,-4.0797,-4.0797,-4.0797,-4.0797,-4.0797,-4.0797,-4.1009,-4.139,-4.1816,-4.199,-4.2028,-4.2454,-4.2395,-4.2042,-4.2015,-4.2087,-4.2182,-4.2182,-4.1985,-4.1792,-4.2246,-4.2402,-4.2617,-4.3906,-4.4629,-4.5078,-4.5508,-4.5937,-4.6308,-4.6308,-4.6308,-4.6308,-4.6308,-4.6308,-4.6308,-4.6308,-4.6308,-4.6426,-4.6836,-4.6914,-4.7187,-4.8066,-4.7851,-4.7695,-4.8144,-4.7832,-4.7402,-4.6973,-4.7676,-4.8066,-4.7656,-4.8379,-4.8906,-4.8906,-4.9277,-4.9512,-4.9512,-4.9883,-5.0098,-5.0098,-5.0098,-5.0098,-5.0098,-5.0098,-5.0312,-5.0762,-5.0312,-5.0312,-5.0762,-4.9492,-4.8906,-4.8867,-4.8008,-4.7344,-4.6894,-4.6484,-4.6308,-4.6308,-4.6308,-4.6308,-4.6308,-4.6308,-4.6308,-4.6308,-4.6308,-4.6308,-4.6308,-4.5594,-4.5594,-4.5594,-4.5594,-4.5594,-4.5594,-4.5594,-4.5594,-4.5594,-4.5594,-4.5594,-4.5325,-4.4605,-4.3805,-4.2555,-4.0677,-4.0688,-4.0749,-4.0615,-4.0593,-4.0595,-4.0595,-4.0595,-4.0698,-4.0899,-4.0925,-4.0875,-4.0797,-4.0951,-4.0932,-4.0816,-4.1087,-4.1145,-4.1009,-4.1164,-4.1603,-4.2222,-4.2376,-4.2783,-4.3305,-4.346,-4.344,-4.3305,-4.3305,-4.3361,-4.3471,-4.3486,-4.3099,-4.2636,-4.2772,-4.2832,-4.3125,-4.4726,-4.5215,-4.5351,-4.6094,-4.6308,-4.6308,-4.6308,-4.6308,-4.6308,-4.6308,-4.6308,-4.6308,-4.6308,-4.6426,-4.6738,-4.7441,-4.7715,-4.8086,-4.8965,-4.9004,-4.8945,-4.9101,-4.9004,-4.8652,-4.793,-4.8574,-4.8848,-4.8125,-4.8808,-4.9336,-4.9336,-4.998,-5.041,-5.041,-5.1016,-5.1406,-5.1406,-5.1406,-5.1406,-5.1406,-5.1406,-5.1406,-5.1406,-5.1386,-5.1386,-5.1387,-4.998,-4.9238,-4.9101,-4.8359,-4.7851,-4.7558,-4.6816,-4.6425,-4.6308,-4.6308,-4.6289,-4.6288,-4.6308,-4.6289,-4.6288,-4.6308,-4.6308,-4.6308,-4.5594,-4.5594,-4.5594,-4.5594,-4.5594,-4.5594,-4.5594,-4.5594,-4.5594,-4.5594,-4.5594,-4.5556,-4.5441,-4.4716,-4.323,-4.0792,-4.1284,-4.1403,-4.0639,-4.0607,-4.0595,-4.0595,-4.0595,-4.0954,-4.1726,-4.18,-4.1493,-4.0797,-4.1506,-4.1487,-4.0835,-4.228,-4.257,-4.1874,-4.2628,-4.3015,-4.3169,-4.3924,-4.3885,-4.3363,-4.411,-4.3982,-4.3305,-4.3305,-4.3305,-4.3336,-4.3393,-4.3422,-4.3552,-4.4314,-4.4602,-4.4824,-4.5801,-4.6113,-4.6152,-4.6269,-4.6308,-4.6308,-4.6308,-4.6308,-4.6308,-4.6308,-4.6308,-4.6308,-4.6308,-4.6875,-4.7461,-4.7578,-4.8203,-4.8984,-4.9863,-4.9414,-4.9141,-4.9902,-4.9394,-4.8867,-4.873,-4.9473,-4.998,-4.9863,-5.0566,-5.1055,-5.1055,-5.1172,-5.123,-5.123,-5.1348,-5.1406,-5.1406,-5.1406,-5.1406,-5.1406,-5.1406,-5.1406,-5.1406,-5.1338,-5.1338,-5.1406,-5.1102,-5.0635,-5.0019,-4.9773,-4.8916,-4.7598,-4.7409,-4.6943,-4.6308,-4.6308,-4.6266,-4.6212,-4.6288,-4.6266,-4.6213,-4.6288,-4.6308,-4.6307,-4.5594,-4.5594,-4.5594,-4.5594,-4.5594,-4.5594,-4.5594,-4.5594,-4.5594,-4.5594,-4.5594,-4.5421,-4.494,-4.3717,-4.2302,-4.0673,-4.09,-4.1158,-4.1255,-4.1274,-4.1486,-4.1986,-4.1524,-4.1686,-4.2557,-4.2155,-4.2003,-4.2135,-4.2531,-4.2531,-4.2202,-4.2957,-4.3092,-4.2744,-4.3131,-4.3576,-4.4052,-4.4439,-4.4639,-4.4736,-4.5123,-4.5045,-4.4697,-4.4697,-4.4731,-4.4752,-4.4331,-4.4214,-4.4328,-4.4768,-4.4923,-4.5091,-4.6015,-4.6308,-4.6308,-4.6308,-4.6308,-4.6308,-4.6308,-4.6308,-4.6308,-4.6308,-4.6308,-4.6426,-4.6914,-4.7695,-4.832,-4.832,-4.9023,-4.9883,-5.0723,-5.0566,-5.043,-5.0801,-5.0547,-5.0137,-4.9687,-5.0332,-5.0879,-5.0879,-5.1172,-5.1406,-5.1406,-5.1406,-5.1406,-5.1406,-5.1406,-5.1406,-5.1406,-5.1406,-5.1406,-5.1406,-5.1406,-5.1406,-5.1406,-5.1365,-5.1365,-5.1406,-5.1333,-5.1158,-5.0859,-5.0277,-4.9381,-4.8301,-4.7737,-4.7029,-4.6241,-4.6241,-4.6206,-4.615,-4.6212,-4.6194,-4.6158,-4.6173,-4.6142,-4.6089]},{"header":{"parameterUnit":"m.s-1","parameterCategory":1,"la1":30.6,"la2":28.766,"lo1":-90.7593,"lo2":-88.6598,"dy":0.0162,"dx":0.0183,"nx":116,"ny":114,"refTime":"2023-03-25T00:00:00:Z","depth":0,"parameterNumber":3,"parameterNumberName":"V-component_of_WINDS"},"data":[0.0,0.0,0.0,0.0,0.0,0.0,0.0,0.0,0.0,0.0,0.0,0.0,0.0,0.0,0.0,0.0,0.0,0.0,0.0,0.0,0.0,0.0,0.0,0.0,0.0,0.0,0.0,0.0,0.0,0.0,0.0,0.0,0.0,0.0,0.0,0.0,0.0,0.0,0.0,0.0,0.0,0.0,0.0,0.0,0.0,0.0,0.0,0.0,0.0,0.0,0.0,0.0,0.0,0.0,0.0,0.0,0.0,0.0,0.0,0.0,0.0,0.0,0.0,0.0,0.0,0.0,0.0,0.0,0.0,0.0,0.0,0.0,0.0,0.0,0.0,0.0,0.0,0.0,0.0,0.0,0.0,0.0,0.0,0.0,0.0,0.0,0.0,0.0,0.0,0.0,0.0,0.0,0.0,0.0,0.0,0.0,0.0,0.0,0.0,0.0,0.0,0.0,0.0,0.0,0.0,0.0,0.0,0.0,0.0,0.0,0.0,0.0,0.0,0.0,0.0,0.0,0.0,0.0,0.0,0.0,0.0,0.0,0.0,0.0,0.0,0.0,0.0,0.0,0.0,0.0,0.0,0.0,0.0,0.0,0.0,0.0,0.0,0.0,0.0,0.0,0.0,0.0,0.0,0.0,0.0,0.0,0.0,0.0,0.0,0.0,0.0,0.0,0.0,0.0,0.0,0.0,0.0,0.0,0.0,0.0,0.0,0.0,0.0,0.0,0.0,0.0,0.0,0.0,0.0,0.0,0.0,0.0,0.0,0.0,0.0,0.0,0.0,0.0,0.0,0.0,0.0,0.0,0.0,0.0,0.0,0.0,0.0,0.0,0.0,0.0,0.0,0.0,0.0,0.0,0.0,0.0,0.0,0.0,0.0,0.0,0.0,0.0,0.0,0.0,0.0,0.0,0.0,0.0,0.0,0.0,0.0,0.0,0.0,0.0,0.0,0.0,0.0,0.0,0.0,0.0,0.0,0.0,0.0,0.0,0.0,0.0,0.0,0.0,0.0,0.0,0.0,0.0,0.0,0.0,0.0,0.0,0.0,0.0,0.0,0.0,0.0,0.0,0.0,0.0,0.0,0.0,0.0,0.0,0.0,0.0,0.0,0.0,0.0,0.0,0.0,0.0,0.0,0.0,0.0,0.0,0.0,0.0,0.0,0.0,0.0,0.0,0.0,0.0,0.0,0.0,0.0,0.0,0.0,0.0,0.0,0.0,0.0,0.0,0.0,0.0,0.0,0.0,0.0,0.0,0.0,0.0,0.0,0.0,0.0,0.0,0.0,0.0,0.0,0.0,0.0,0.0,0.0,0.0,0.0,0.0,0.0,0.0,0.0,0.0,0.0,0.0,0.0,0.0,0.0,0.0,0.0,0.0,0.0,0.0,0.0,0.0,0.0,0.0,0.0,0.0,0.0,0.0,0.0,0.0,0.0,0.0,0.0,0.0,0.0,0.0,0.0,0.0,0.0,0.0,0.0,0.0,0.0,0.0,0.0,0.0,0.0,0.0,0.0,0.0,0.0,0.0,0.0,0.0,0.0,0.0,0.0,0.0,0.0,0.0,0.0,0.0,0.0,0.0,0.0,0.0,0.0,0.0,0.0,0.0,0.0,0.0,0.0,0.0,0.0,0.0,0.0,0.0,0.0,0.0,0.0,0.0,0.0,0.0,0.0,0.0,0.0,0.0,0.0,0.0,0.0,0.0,0.0,0.0,0.0,0.0,0.0,0.0,0.0,0.0,0.0,0.0,0.0,0.0,0.0,0.0,0.0,0.0,0.0,0.0,0.0,0.0,0.0,0.0,0.0,0.0,0.0,0.0,0.0,0.0,0.0,0.0,0.0,0.0,0.0,0.0,0.0,0.0,0.0,0.0,0.0,0.0,0.0,0.0,0.0,0.0,0.0,0.0,0.0,0.0,0.0,0.0,0.0,0.0,0.0,0.0,0.0,0.0,0.0,0.0,0.0,0.0,0.0,0.0,0.0,0.0,0.0,0.0,0.0,0.0,0.0,0.0,0.0,0.0,0.0,0.0,0.0,0.0,0.0,0.0,0.0,0.0,0.0,0.0,0.0,0.0,0.0,0.0,0.0,0.0,0.0,0.0,0.0,0.0,0.0,0.0,0.0,0.0,0.0,0.0,0.0,0.0,0.0,0.0,0.0,0.0,0.0,0.0,0.0,0.0,0.0,0.0,0.0,0.0,0.0,0.0,0.0,0.0,0.0,0.0,0.0,0.0,0.0,0.0,0.0,0.0,0.0,0.0,0.0,0.0,0.0,0.0,0.0,0.0,0.0,0.0,0.0,0.0,0.0,0.0,0.0,0.0,0.0,0.0,0.0,0.0,0.0,0.0,0.0,0.0,0.0,0.0,0.0,0.0,0.0,0.0,0.0,0.0,0.0,0.0,0.0,0.0,0.0,0.0,0.0,0.0,0.0,0.0,0.0,0.0,0.0,0.0,0.0,0.0,0.0,0.0,0.0,0.0,0.0,0.0,0.0,0.0,0.0,0.0,0.0,0.0,0.0,0.0,0.0,0.0,0.0,0.0,0.0,0.0,0.0,0.0,0.0,0.0,0.0,0.0,0.0,0.0,0.0,0.0,0.0,0.0,0.0,0.0,0.0,0.0,0.0,0.0,0.0,0.0,0.0,0.0,0.0,0.0,0.0,0.0,0.0,0.0,0.0,0.0,0.0,0.0,0.0,0.0,0.0,0.0,0.0,0.0,0.0,0.0,0.0,0.0,0.0,0.0,0.0,0.0,0.0,0.0,0.0,0.0,0.0,0.0,0.0,0.0,0.0,0.0,0.0,0.0,0.0,0.0,0.0,0.0,0.0,0.0,0.0,0.0,0.0,0.0,0.0,0.0,0.0,0.0,0.0,0.0,0.0,0.0,0.0,0.0,0.0,0.0,0.0,0.0,0.0,0.0,0.0,0.0,0.0,0.0,0.0,0.0,0.0,0.0,0.0,0.0,0.0,0.0,0.0,0.0,0.0,0.0,0.0,0.0,0.0,0.0,0.0,0.0,0.0,0.0,0.0,0.0,0.0,0.0,0.0,0.0,0.0,0.0,0.0,0.0,0.0,0.0,0.0,0.0,0.0,0.0,0.0,0.0,0.0,0.0,0.0,0.0,0.0,0.0,0.0,0.0,0.0,0.0,0.0,0.0,0.0,0.0,0.0,0.0,0.0,0.0,0.0,0.0,0.0,0.0,0.0,0.0,0.0,0.0,0.0,0.0,0.0,0.0,0.0,0.0,0.0,0.0,0.0,0.0,0.0,0.0,0.0,0.0,0.0,0.0,0.0,0.0,0.0,0.0,0.0,0.0,0.0,0.0,0.0,0.0,0.0,0.0,0.0,0.0,0.0,0.0,0.0,0.0,0.0,0.0,0.0,0.0,0.0,0.0,0.0,0.0,0.0,0.0,0.0,0.0,0.0,0.0,0.0,0.0,0.0,0.0,0.0,0.0,0.0,0.0,0.0,0.0,0.0,0.0,0.0,0.0,0.0,0.0,0.0,0.0,0.0,0.0,0.0,0.0,0.0,0.0,0.0,0.0,0.0,0.0,0.0,0.0,0.0,0.0,0.0,0.0,0.0,0.0,0.0,0.0,0.0,0.0,0.0,0.0,0.0,0.0,0.0,0.0,0.0,0.0,0.0,0.0,0.0,0.0,0.0,0.0,0.0,0.0,0.0,0.0,0.0,0.0,0.0,0.0,0.0,0.0,0.0,0.0,0.0,0.0,0.0,0.0,0.0,0.0,0.0,0.0,0.0,0.0,0.0,0.0,0.0,0.0,0.0,0.0,0.0,0.0,0.0,0.0,0.0,0.0,0.0,0.0,0.0,0.0,0.0,0.0,0.0,0.0,0.0,0.0,0.0,0.0,0.0,0.0,0.0,0.0,0.0,0.0,0.0,0.0,0.0,0.0,0.0,0.0,0.0,0.0,0.0,0.0,0.0,0.0,0.0,0.0,0.0,0.0,0.0,0.0,0.0,0.0,0.0,0.0,0.0,0.0,0.0,0.0,0.0,0.0,0.0,0.0,0.0,0.0,0.0,0.0,0.0,0.0,0.0,0.0,0.0,0.0,0.0,0.0,0.0,0.0,0.0,0.0,0.0,0.0,0.0,0.0,0.0,0.0,0.0,0.0,0.0,0.0,0.0,0.0,0.0,0.0,0.0,0.0,0.0,0.0,0.0,0.0,0.0,0.0,0.0,0.0,0.0,0.0,0.0,0.0,0.0,0.0,0.0,0.0,0.0,0.0,0.0,0.0,0.0,0.0,0.0,0.0,0.0,0.0,0.0,0.0,0.0,0.0,0.0,0.0,0.0,0.0,0.0,0.0,0.0,0.0,0.0,0.0,0.0,0.0,0.0,0.0,0.0,0.0,0.0,0.0,0.0,0.0,0.0,0.0,0.0,0.0,0.0,0.0,0.0,0.0,0.0,0.0,0.0,0.0,0.0,0.0,0.0,0.0,0.0,0.0,0.0,0.0,0.0,0.0,0.0,0.0,0.0,0.0,0.0,0.0,0.0,0.0,0.0,0.0,0.0,0.0,0.0,0.0,0.0,0.0,0.0,0.0,0.0,0.0,0.0,0.0,0.0,0.0,0.0,0.0,0.0,0.0,0.0,0.0,0.0,0.0,0.0,0.0,0.0,0.0,0.0,0.0,0.0,0.0,0.0,0.0,0.0,0.0,0.0,0.0,0.0,0.0,0.0,0.0,0.0,0.0,0.0,0.0,0.0,0.0,0.0,0.0,0.0,0.0,0.0,0.0,0.0,0.0,0.0,0.0,0.0,0.0,0.0,0.0,0.0,0.0,0.0,0.0,0.0,0.0,0.0,0.0,0.0,0.0,0.0,0.0,0.0,0.0,0.0,0.0,0.0,0.0,0.0,0.0,0.0,0.0,0.0,0.0,0.0,0.0,0.0,0.0,0.0,0.0,0.0,0.0,0.0,0.0,0.0,0.0,0.0,0.0,0.0,0.0,0.0,0.0,0.0,0.0,0.0,0.0,0.0,0.0,0.0,0.0,0.0,0.0,0.0,0.0,0.0,0.0,0.0,0.0,0.0,0.0,0.0,0.0,0.0,0.0,0.0,0.0,0.0,0.0,0.0,0.0,0.0,0.0,0.0,0.0,0.0,0.0,0.0,0.0,0.0,0.0,0.0,0.0,0.0,0.0,0.0,0.0,0.0,0.0,0.0,0.0,0.0,0.0,0.0,0.0,0.0,0.0,0.0,0.0,0.0,0.0,0.0,0.0,0.0,0.0,0.0,0.0,0.0,0.0,0.0,0.0,0.0,0.0,0.0,0.0,0.0,0.0,0.0,0.0,0.0,0.0,0.0,0.0,0.0,0.0,0.0,0.0,0.0,0.0,0.0,0.0,0.0,0.0,0.0,0.0,0.0,0.0,0.0,0.0,0.0,0.0,0.0,0.0,0.0,0.0,0.0,0.0,0.0,0.0,0.0,0.0,0.0,0.0,0.0,0.0,0.0,0.0,0.0,0.0,0.0,0.0,0.0,0.0,0.0,0.0,0.0,0.0,0.0,0.0,0.0,0.0,0.0,0.0,0.0,0.0,0.0,0.0,0.0,0.0,0.0,0.0,0.0,0.0,0.0,0.0,0.0,0.0,0.0,0.0,0.0,0.0,0.0,0.0,0.0,0.0,0.0,0.0,0.0,0.0,0.0,0.0,0.0,0.0,0.0,0.0,0.0,0.0,0.0,0.0,0.0,0.0,0.0,0.0,0.0,0.0,0.0,0.0,0.0,0.0,0.0,0.0,0.0,0.0,0.0,0.0,0.0,0.0,0.0,0.0,0.0,0.0,0.0,0.0,0.0,0.0,0.0,0.0,0.0,0.0,0.0,0.0,0.0,0.0,0.0,0.0,0.0,0.0,0.0,0.0,0.0,0.0,0.0,0.0,0.0,0.0,0.0,0.0,0.0,0.0,0.0,0.0,0.0,0.0,0.0,0.0,0.0,0.0,0.0,0.0,0.0,0.0,0.0,0.0,0.0,0.0,0.0,0.0,0.0,0.0,0.0,0.0,0.0,0.0,0.0,0.0,0.0,0.0,0.0,0.0,0.0,0.0,0.0,0.0,0.1775,0.0,0.0,0.0,0.0,0.0,0.0,0.0,0.0,0.0,0.0,0.0,0.0,0.0,0.0,0.0,0.0,0.0,0.0,0.0,0.0,0.0,0.0,0.0,0.0,0.0,0.0,0.0,0.0,0.0,0.0,0.0,0.0,0.0,0.0,0.0,0.0,0.0,0.0,0.0,0.0,0.0,0.0,0.3726,0.3564,0.0,0.0,0.0,0.0,0.0,0.0,0.0,0.0,0.0,0.0,0.0,0.0,0.0,0.0,0.0,0.0,0.0,0.0,0.0,0.0,0.0,0.0,0.0,0.0,0.0,0.0,0.0,0.0,0.0,0.0,0.0,0.0,0.0,0.0,0.0,0.0,0.0,0.0,0.0,0.0,0.0,0.0,0.0,0.0,0.0,0.0,0.0,0.0,0.0,0.0,0.0,0.0,0.0,0.0,0.0,0.0,0.0,0.0,0.0,0.0,0.0,0.0,0.0,0.0,0.0,0.0,0.0,0.0,0.0,0.0,0.0,0.0,0.1957,0.0,0.0,0.0,0.0,0.0,0.0,0.0,0.0,0.0,0.0,0.0,0.0,0.0,0.0,0.0,0.0,0.0,0.0,0.0,0.0,0.0,0.0,0.0,0.0,0.0,0.0,0.0,0.0,0.0,0.0,0.0,0.0,0.0,0.0,0.0,0.0,0.0,0.0,0.0,0.0,0.0,0.3483,0.3575,0.3685,0.0,0.0,0.0,0.0,0.0,0.0,0.0,0.0,0.0,0.0,0.0,0.0,0.0,0.0,0.0,0.0,0.0,0.0,0.0,0.0,0.0,0.0,0.0,0.0,0.0,0.0,0.0,0.0,0.0,0.0,0.0,0.0,0.0,0.0,0.0,0.0,0.0,0.0,0.0,0.0,0.0,0.0,0.0,0.0,0.0,0.0,0.0,0.0,0.0,0.0,0.0,0.0,0.0,0.0,0.0,0.0,0.0,0.0,0.0,0.0,0.0,0.0,0.0,0.0,0.3142,0.3161,0.3181,0.3191,0.3196,0.3188,0.3087,0.2634,0.1963,0.2049,0.0,0.0,0.0,0.0,0.0,0.0,0.0,0.0,0.0,0.0,0.0,0.0,0.0,0.0,0.0,0.0,0.0,0.0,0.0,0.0,0.0,0.0,0.0,0.0,0.0,0.0,0.0,0.0,0.0,0.0,0.0,0.0,0.0,0.0,0.0,0.0,0.0,0.3206,0.3256,0.3649,0.3655,0.3359,0.3049,0.0,0.0,0.0,0.0,0.0,0.0,0.0,0.0,0.0,0.0,0.0,0.0,0.0,0.0,0.0,0.0,0.0,0.0,0.0,0.0,0.0,0.0,0.0,0.0,0.0,0.0,0.0,0.0,0.0,0.0,0.0,0.0,0.0,0.0,0.0,0.0,0.0,0.0,0.0,0.0,0.0,0.0,0.0,0.292,0.292,0.0,0.0,0.0,0.0,0.0,0.0,0.0,0.0,0.0,0.0,0.0,0.0,0.0,0.317,0.3285,0.3338,0.3342,0.3298,0.3401,0.3372,0.3183,0.3285,0.3309,0.3308,0.3283,0.0,0.2137,0.2723,0.0,0.0,0.0,0.0,0.0,0.0,0.0,0.0,0.0,0.0,0.0,0.0,0.0,0.0,0.0,0.0,0.0,0.0,0.0,0.0,0.0,0.0,0.0,0.0,0.0,0.0,0.0,0.0,0.0,0.0,0.0,0.0,0.0,0.0,0.0,0.0,0.3276,0.3454,0.3531,0.3685,0.3643,0.3471,0.3098,0.2981,0.3008,0.2816,0.0,0.0,0.0,0.0,0.0,0.0,0.0,0.0,0.0,0.0,0.0,0.0,0.0,0.0,0.0,0.0,0.0,0.0,0.0,0.0,0.0,0.0,0.0,0.0,0.0,0.0,0.0,0.0,0.0,0.0,0.0,0.0,0.0,0.0,0.0,0.0,0.0,0.0,0.0,0.2947,0.2956,0.2922,0.2947,0.2954,0.0,0.0,0.0,0.0,0.0,0.0,0.0,0.0,0.0,0.309,0.327,0.335,0.3372,0.3465,0.3515,0.3522,0.354,0.3525,0.3481,0.3474,0.3471,0.3471,0.3471,0.326,0.2861,0.2651,0.2114,0.1387,0.0,0.0,0.0,0.0,-0.1076,-0.1391,0.0,0.0,0.0,0.0,0.0,0.0,0.0,0.0,0.0,0.0,0.0,0.0,0.0,0.0,0.0,-0.1281,0.0,0.0,0.0,0.0,0.0,0.0,0.0,0.0,0.0,0.0,0.0,0.2977,0.3263,0.3465,0.3586,0.3483,0.3435,0.3472,0.3125,0.2966,0.287,0.2863,0.2908,0.0,0.0,0.0,0.0,0.0,0.0,0.0,0.0,0.0,0.0,0.0,0.0,0.0,0.0,0.0,0.0,0.0,0.0,0.0,0.0,0.0,0.0,0.0,0.0,0.0,0.0,0.0,0.0,0.0,0.0,0.0,0.0,0.0,0.0,0.0,0.0,0.0,0.0,0.2982,0.3001,0.2928,0.2951,0.3022,0.0,0.0,0.0,0.0,0.0,0.0,0.3207,0.3249,0.3285,0.3204,0.3441,0.353,0.3504,0.3621,0.3695,0.3725,0.3695,0.3688,0.3699,0.3639,0.361,0.3609,0.3594,0.3553,0.3429,0.2749,0.2374,0.2176,0.1404,0.0739,0.0182,-0.0228,-0.0684,-0.1139,0.0,0.0,0.0,0.0,0.0,0.0,0.0,0.0,0.0,0.0,0.0,0.0,0.0,0.0,-0.1302,-0.1302,-0.1303,-0.1208,0.0,0.0,0.0,0.0,0.0,0.0,0.0,0.0,0.0,0.2357,0.257,0.2771,0.295,0.2946,0.3007,0.3113,0.3054,0.3329,0.376,0.2915,0.2776,0.3154,0.0,0.0,0.0,0.0,0.0,0.0,0.0,0.0,0.0,0.0,0.0,0.0,0.0,0.0,0.0,0.0,0.0,0.0,0.0,0.0,0.0,0.0,0.0,0.0,0.0,0.0,0.0,0.0,0.0,0.0,0.0,0.0,0.0,0.0,0.0,0.0,0.0,0.0,0.0,0.2932,0.3026,0.0,0.0,0.0,0.0,0.3209,0.3167,0.3292,0.3465,0.348,0.3508,0.3563,0.3632,0.3696,0.3751,0.3872,0.3905,0.3912,0.3906,0.3873,0.3822,0.3702,0.3673,0.367,0.3613,0.3553,0.3488,0.3314,0.3226,0.3054,0.2267,0.19,0.1708,0.0238,-0.0333,-0.0475,0.0,0.0,0.0,0.0,0.0,0.0,0.0,0.0,0.0,0.0,0.0,0.0,0.0,-0.13,-0.1313,-0.1373,-0.1375,-0.1312,-0.1183,0.0,0.0,0.0,0.0,0.0,0.0,0.0,0.0517,0.1216,0.1268,0.135,0.1511,0.2015,0.2276,0.2285,0.2837,0.3167,0.3362,0.3089,0.2983,0.3057,0.3032,0.3008,0.0,0.0,0.0,0.0,0.0,0.0,0.0,0.0,0.0,0.0,0.0,0.0,0.0,0.0,0.0,0.0,0.0,0.0,0.0,0.0,0.0,0.0,0.0,0.0,0.0,0.0,0.0,0.0,0.0,0.0,0.0,0.0,0.0,0.0,0.0,0.0,0.0,0.3108,0.326,0.0,0.3258,0.327,0.3301,0.3345,0.3382,0.3429,0.3493,0.3608,0.3665,0.3646,0.3816,0.3882,0.3888,0.3946,0.3995,0.3971,0.3918,0.389,0.3882,0.3741,0.3679,0.3674,0.3615,0.3575,0.3549,0.3467,0.3353,0.3176,0.2883,0.2434,0.1857,0.081,0.0095,-0.0429,0.0,0.0,0.0,0.0,0.0,0.0,0.0,0.0,0.0,0.0,0.0,-0.1456,-0.1355,-0.1337,-0.14,-0.1419,-0.1411,-0.1376,-0.1307,0.0,0.0,0.0,-0.1161,-0.0991,-0.0613,-0.0389,-0.0122,0.0304,0.0481,0.063,0.0708,0.1227,0.1478,0.1505,0.2088,0.2477,0.271,0.2734,0.2846,0.2958,0.3009,0.3093,0.3135,0.0,0.0,0.0,0.0,0.0,0.0,0.0,0.0,0.0,0.0,0.0,0.0,0.0,0.0,0.0,0.0,0.0,0.0,0.0,0.0,0.0,0.0,0.0,0.0,0.0,0.0,0.0,0.0,0.0,0.0,0.0,0.0,0.0,0.0,0.3164,0.3285,0.3212,0.3437,0.3527,0.3448,0.3459,0.3489,0.353,0.3567,0.3606,0.3647,0.3782,0.3831,0.3771,0.3943,0.3997,0.392,0.3996,0.3962,0.3943,0.3928,0.389,0.3884,0.3743,0.3679,0.3674,0.3615,0.3587,0.3582,0.3522,0.3416,0.329,0.3217,0.2749,0.1893,0.1118,0.034,-0.0437,0.0,0.0,0.0,0.0,0.0,0.0,0.0,0.0,0.0,0.0,-0.1883,-0.1738,-0.1428,-0.1446,-0.1482,-0.148,-0.1452,-0.1352,-0.1307,-0.1253,0.0,0.0,-0.1087,-0.1138,-0.1208,-0.0615,-0.0326,-0.0349,0.0267,0.0557,0.0638,0.0638,0.0694,0.0757,0.0807,0.1211,0.1964,0.188,0.2235,0.2872,0.3023,0.2936,0.2759,0.0,0.0,0.0,0.0,0.0,0.0,0.0,0.0,0.0,0.0,0.0,0.0,0.0,0.0,0.0,0.0,0.0,0.0,0.0,0.0,0.0,0.0,0.0,0.0,0.0,0.0,0.0,0.0,0.0,0.0,0.0,0.0,0.0,0.3105,0.3266,0.3397,0.3342,0.3545,0.3643,0.3525,0.3567,0.365,0.3766,0.3777,0.3827,0.388,0.394,0.3946,0.3891,0.3943,0.3971,0.3969,0.3973,0.3947,0.3892,0.3889,0.389,0.3775,0.3709,0.3679,0.3677,0.3615,0.3586,0.3579,0.3521,0.3462,0.3403,0.3345,0.277,0.1916,0.1109,0.0252,-0.0553,0.0,0.0,0.0,0.0,0.0,0.0,0.0,0.0,0.0,0.0,-0.1465,-0.1442,-0.1416,-0.1477,-0.1505,-0.1483,-0.1433,-0.1365,-0.1315,0.0,0.0,0.0,-0.1142,-0.1199,-0.1255,-0.1167,-0.1144,-0.1236,-0.1099,-0.1029,-0.1023,-0.0409,-0.0102,-0.0051,0.0514,0.0919,0.111,0.1119,0.1214,0.1488,0.2581,0.3081,0.3135,0.0,0.0,0.0,0.0,0.0,0.0,0.0,0.0,0.0,0.0,0.0,0.0,0.0,0.0,0.0,0.0,0.0,0.0,0.0,0.0,0.0,0.0,0.0,0.0,0.0,0.0,0.0,0.0,0.0,0.0,0.0,0.3149,0.3247,0.3247,0.3416,0.3565,0.3638,0.3818,0.3924,0.389,0.3902,0.3909,0.3901,0.3939,0.3939,0.3888,0.398,0.3946,0.3891,0.3943,0.3952,0.3912,0.3995,0.4071,0.3948,0.3908,0.3892,0.3955,0.3764,0.3702,0.3739,0.3632,0.3563,0.3466,0.2903,0.2901,0.3345,0.3327,0.277,0.1916,0.1109,-0.0101,-0.1309,0.0,0.0,0.0,0.0,0.0,0.0,0.0,0.0,0.0,0.0,-0.1564,-0.154,-0.1429,-0.1421,-0.1481,-0.1463,-0.1395,-0.132,-0.1243,0.0,0.0,0.0,-0.1194,-0.1268,-0.1321,-0.1407,-0.1475,-0.162,-0.162,-0.1596,-0.1643,-0.1129,-0.0923,-0.0872,-0.0465,-0.0052,0.0307,0.0262,0.0475,0.0836,0.1716,0.2345,0.2744,0.2312,0.2862,0.3762,0.3183,0.3328,0.3783,0.3527,0.0,0.0,0.0,0.0,0.0,0.0,0.0,0.0,0.0,0.0,0.0,0.0,0.0,0.0,0.0,0.0,0.0,0.0,0.0,0.0,0.0,0.0,0.0,0.0,0.3087,0.3421,0.3499,0.362,0.3737,0.3834,0.398,0.4063,0.3974,0.3971,0.3948,0.3893,0.3919,0.397,0.3902,0.3985,0.3958,0.3924,0.3955,0.3981,0.3998,0.403,0.4022,0.397,0.3925,0.3892,0.3918,0.3753,0.3698,0.3726,0.363,0.3387,0.295,0.2441,0.2288,0.0,0.0,0.0,0.0,0.0,-0.0808,-0.1613,0.0,0.0,0.0,0.0,0.0,0.0,0.0,0.0,0.0,0.0,0.0,-0.1803,-0.1425,-0.1391,-0.1391,-0.1381,-0.1347,-0.1271,0.0,0.0,-0.1144,-0.1222,-0.1271,-0.1346,-0.1409,-0.1467,-0.1525,-0.1586,-0.1633,-0.1597,-0.1626,-0.1626,-0.1625,-0.1623,-0.1654,-0.1249,-0.0573,-0.0594,-0.0217,0.0429,0.0437,0.1031,0.1847,0.0825,0.1675,0.328,0.1995,0.2304,0.3176,0.2508,0.0,0.0,0.0,0.0,0.0,0.0,0.0,0.0,0.0,0.0,0.0,0.0,0.0,0.0,0.0,0.0,0.0,0.0,0.0,0.0,0.0,0.0,0.0,0.0,0.2798,0.3419,0.3588,0.3787,0.3906,0.3884,0.3991,0.4102,0.3977,0.3971,0.3951,0.3901,0.3899,0.3899,0.3899,0.0,0.0,0.0,0.0,0.4087,0.4176,0.3986,0.3932,0.4012,0.3862,0.3786,0.3836,0.3709,0.3679,0.3674,0.3615,0.3106,0.2287,0.2144,0.1526,0.0827,0.155,0.133,0.0504,-0.106,-0.1617,-0.1613,0.0,0.0,0.0,0.0,0.0,0.0,0.0,0.0,0.0,-0.1588,-0.1471,-0.1501,-0.14,-0.1442,-0.1443,-0.1328,-0.1304,-0.1279,0.0,0.0,-0.1204,-0.1267,-0.1332,-0.1449,-0.1582,-0.1572,-0.162,-0.1679,-0.1656,-0.166,-0.1687,-0.1687,-0.1675,-0.1706,-0.1683,-0.159,-0.1434,-0.154,-0.1448,-0.1335,-0.1301,-0.0388,0.0955,0.0668,0.0815,0.1175,0.0846,0.0949,0.1161,0.1024,0.0937,0.0855,0.0766,0.0714,0.0,0.0,0.0,0.0,0.0,0.0,0.0,0.0,0.0,0.0,0.0,0.0,0.0,0.0,0.0,0.0,0.0,0.0,0.0,0.1937,0.2365,0.2526,0.2555,0.3443,0.4044,0.3899,0.3991,0.4102,0.3977,0.3971,0.3967,0.3956,0.3956,0.3956,0.3956,0.4075,0.4086,0.3973,0.4082,0.405,0.3931,0.4026,0.4014,0.3894,0.0,0.0,0.3899,0.3729,0.3679,0.3674,0.3615,0.3085,0.2194,0.1493,0.0679,-0.0152,0.0,0.0,-0.0303,-0.1263,-0.1617,-0.1616,0.0,0.0,0.0,0.0,0.0,0.0,0.0,0.0,0.0,0.0,-0.2479,-0.2457,-0.1522,-0.1841,-0.19,-0.135,-0.1286,0.0,-0.119,-0.1217,-0.1288,-0.1409,-0.1472,-0.1539,-0.1666,-0.1645,-0.1675,-0.1704,-0.1759,-0.1766,-0.1727,-0.1727,-0.1727,-0.1729,-0.1743,-0.1758,-0.1776,-0.1821,-0.1832,-0.1819,-0.1777,-0.1296,-0.0546,-0.059,-0.0053,0.0637,0.0156,0.0311,0.0619,0.0251,0.0101,0.0051,-0.0392,-0.0487,-0.0489,0.0,0.0,0.0,0.0,0.0,0.0,0.0,0.0,0.0,0.0,0.0,0.0,0.0,0.0,-0.1436,-0.1171,0.0,-0.0109,0.0734,0.1283,0.1621,0.1659,0.2641,0.3307,0.3219,0.3731,0.4135,0.3981,0.3971,0.396,0.3932,0.3956,0.3971,0.3971,0.4063,0.4094,0.4125,0.404,0.4007,0.4038,0.3947,0.3917,0.3947,0.3888,0.3876,0.3901,0.3779,0.349,0.302,0.2945,0.2154,0.0808,0.0,-0.0621,-0.101,-0.101,-0.0758,-0.0505,-0.1313,-0.1617,-0.1617,0.0,0.0,0.0,0.0,0.0,0.0,0.0,0.0,0.0,0.0,-0.3747,-0.3653,-0.2127,-0.2595,-0.2634,0.0,0.0,0.0,-0.1236,-0.1289,-0.1376,-0.1502,-0.156,-0.1671,-0.174,-0.1705,-0.1719,-0.1731,-0.1749,-0.1814,-0.1814,-0.1814,-0.1827,-0.1795,-0.1802,-0.1821,-0.1851,-0.1881,-0.1881,-0.1799,-0.1793,-0.1831,-0.18,-0.1818,-0.0929,0.0218,-0.0484,-0.0317,0.0207,-0.0459,-0.066,-0.0759,-0.1391,-0.1584,-0.1581,-0.1538,-0.1508,0.0,0.0,0.0,0.0,0.0,0.0,0.0,0.0,-0.1511,-0.1526,-0.1642,-0.1626,-0.1662,-0.1727,-0.1168,-0.063,-0.0473,0.018,0.0669,0.068,0.1627,0.228,0.2178,0.3372,0.4138,0.3966,0.3956,0.3942,0.3908,0.3946,0.3982,0.4005,0.4059,0.4102,0.4213,0.4018,0.3993,0.4164,0.3887,0.3833,0.3999,0.3868,0.3849,0.3868,0.364,0.3115,0.2338,0.1866,0.0883,-0.0488,-0.1315,-0.1645,-0.1617,-0.1617,-0.1212,-0.0707,-0.1364,-0.1617,-0.1617,0.0,0.0,0.0,0.0,0.0,0.0,0.0,0.0,0.0,0.0,0.0,0.0,0.0,0.0,0.0,0.0,0.0,-0.2056,-0.1327,-0.1363,-0.1446,-0.1595,-0.1634,-0.1745,-0.1778,-0.1811,-0.1771,-0.1768,-0.1802,-0.179,-0.179,-0.179,-0.1792,-0.1796,-0.1823,-0.1852,-0.1883,-0.1913,-0.1924,-0.1919,-0.1892,-0.1862,-0.1772,-0.1827,-0.1695,-0.1531,-0.1637,-0.1549,-0.1454,-0.1502,-0.1554,-0.1548,-0.1571,-0.163,-0.1686,-0.1551,-0.1523,-0.1508,-0.1406,-0.146,-0.1492,-0.1519,-0.1523,-0.1542,0.0,-0.1621,-0.1626,-0.1765,-0.1787,-0.1816,-0.1849,-0.1813,-0.148,-0.061,-0.043,-0.0371,-0.0314,0.0567,0.1199,0.1074,0.2848,0.3967,0.3904,0.3897,0.3916,0.3959,0.3969,0.4082,0.4191,0.4145,0.4146,0.4214,0.4138,0.4059,0.3919,0.3927,0.3955,0.3941,0.3914,0.391,0.3868,0.2966,0.2452,0.2241,0.0612,-0.0217,-0.048,-0.1361,-0.1645,-0.1617,-0.1617,-0.1566,-0.1465,-0.1566,-0.1617,-0.1617,0.0,0.0,0.0,0.0,0.0,0.0,0.0,0.0,0.0,0.0,0.0,0.0,0.0,0.0,0.0,0.0,0.0,-0.2158,-0.1408,-0.1416,-0.151,-0.1661,-0.1697,-0.1747,-0.182,-0.1809,-0.1823,-0.1867,-0.1872,-0.1874,-0.1874,-0.1874,-0.1883,-0.19,-0.1896,-0.191,-0.1938,-0.1933,-0.1871,-0.1928,-0.1898,-0.1857,-0.1811,-0.1785,-0.1733,-0.1675,-0.1745,-0.1724,0.0,0.0,-0.166,-0.1657,-0.1594,-0.1599,-0.1598,-0.1543,-0.1478,-0.1524,-0.1517,-0.1511,-0.1519,-0.1567,-0.1579,-0.1598,-0.167,-0.1677,-0.1693,-0.1784,-0.1817,-0.1846,-0.1902,-0.1926,-0.1824,-0.1417,-0.1367,-0.1374,-0.1371,-0.0498,0.0185,0.0122,0.1879,0.3287,0.3822,0.3889,0.3912,0.3967,0.4067,0.4125,0.4211,0.4158,0.4169,0.4266,0.4075,0.3997,0.3989,0.3937,0.3891,0.3913,0.3291,0.3032,0.3073,0.1975,0.1236,0.0574,-0.068,-0.122,-0.1243,-0.161,-0.1738,-0.1643,-0.1643,-0.1633,-0.1617,-0.1617,-0.1617,-0.1617,0.0,0.0,0.0,0.0,0.0,0.0,0.0,0.0,0.0,0.0,0.0,0.0,0.0,0.0,0.0,0.0,-0.3307,-0.2915,-0.2202,-0.2213,-0.2356,-0.2508,-0.2626,-0.27,-0.2736,-0.2808,-0.29,-0.2962,-0.3008,-0.3031,-0.3031,-0.3031,-0.3049,-0.3081,-0.2633,-0.2518,-0.2544,-0.2087,-0.1955,-0.1951,-0.1904,-0.1854,-0.1804,-0.1771,-0.1699,-0.162,-0.1641,-0.162,0.0,0.0,-0.1553,-0.1596,-0.1556,-0.1559,-0.1553,-0.1523,-0.1508,-0.1508,-0.1538,-0.1543,-0.1553,-0.1614,-0.1641,-0.1669,-0.1728,-0.1748,-0.1773,-0.1839,-0.1877,-0.1905,-0.1927,-0.1942,-0.196,-0.1984,-0.1999,-0.2003,-0.199,-0.1361,-0.0794,-0.0476,0.0767,0.2019,0.3039,0.3623,0.3912,0.3967,0.4091,0.4153,0.4213,0.4143,0.4157,0.4279,0.4025,0.3963,0.4124,0.3922,0.3742,0.3517,0.2806,0.2304,0.2061,0.1022,0.0,-0.092,-0.1545,-0.1793,-0.1792,-0.1801,-0.1764,-0.1651,-0.1711,-0.1643,-0.1617,-0.1617,-0.1617,-0.1617,0.0,0.0,0.0,0.0,0.0,0.0,0.0,0.0,0.0,0.0,0.0,0.0,0.0,0.0,-0.6366,-0.524,-0.5135,-0.4787,-0.4062,-0.4146,-0.4313,-0.4578,-0.4852,-0.5024,-0.5091,-0.5342,-0.5528,-0.5586,-0.573,-0.5772,-0.5772,-0.5772,-0.5772,-0.5716,-0.4495,-0.396,-0.3838,-0.2581,-0.2016,-0.2008,-0.1921,-0.1867,-0.1769,-0.171,-0.1646,-0.1617,-0.1618,0.0,0.0,-0.1517,-0.1508,-0.1489,-0.1518,-0.148,-0.1521,-0.1491,-0.1461,-0.1399,-0.1475,-0.1525,-0.1634,-0.1698,-0.1757,-0.1816,-0.1822,-0.1859,-0.1881,-0.1883,-0.1909,-0.193,-0.1871,-0.1908,-0.1917,-0.2003,-0.1995,-0.1987,-0.2014,-0.1994,-0.1596,-0.0603,-0.0416,0.0059,0.106,0.2849,0.3912,0.3967,0.4091,0.4153,0.4213,0.4102,0.4093,0.4215,0.3979,0.3943,0.4124,0.3943,0.3453,0.2529,0.2527,0.1972,0.0985,0.006,-0.0876,-0.1781,-0.1809,-0.1762,-0.1707,-0.1792,-0.1697,-0.1621,-0.1651,-0.1643,-0.1617,-0.1617,-0.1617,-0.1617,0.0,0.0,0.0,0.0,0.0,0.0,0.0,0.0,0.0,0.0,0.0,0.0,0.0,0.0,0.0,0.0,-0.5317,-0.4876,-0.4151,-0.4236,-0.4305,-0.4355,-0.4732,-0.4992,-0.5056,-0.5256,-0.5386,-0.556,-0.5588,-0.5693,-0.5752,-0.5752,-0.5843,-0.5898,-0.5436,-0.5262,-0.5202,-0.3844,-0.3287,-0.3155,-0.2271,-0.1855,-0.18,-0.17,-0.1618,-0.1554,0.0,0.0,0.0,-0.1469,-0.1413,-0.1407,-0.1279,-0.1328,-0.1422,-0.1478,-0.1502,-0.1536,-0.1637,-0.1659,-0.1734,-0.1795,-0.184,-0.1881,-0.1922,-0.1923,-0.1916,-0.1916,-0.1876,-0.1847,-0.1809,-0.1846,-0.1849,-0.1919,-0.1972,-0.2001,-0.1992,-0.1999,-0.1847,-0.141,-0.0814,-0.0287,0.0056,0.1283,0.2055,0.2046,0.2684,0.31,0.3111,0.3695,0.4072,0.4154,0.396,0.3926,0.4001,0.3302,0.2837,0.2466,0.122,0.0061,-0.0911,-0.1249,-0.1518,-0.1782,-0.1772,-0.1791,-0.179,-0.18,-0.1762,-0.1648,-0.171,-0.1643,-0.1617,-0.1617,-0.1617,-0.1617,0.0,0.0,0.0,0.0,0.0,0.0,0.0,0.0,0.0,0.0,0.0,0.0,0.0,0.0,0.0,0.0,0.0,-0.5571,-0.5044,-0.5211,-0.5269,-0.5245,-0.5635,-0.5923,-0.5979,-0.6102,-0.6244,-0.6515,-0.6551,-0.6625,-0.6794,-0.6834,-0.6889,-0.6953,-0.6517,-0.6313,-0.6281,-0.4931,-0.4155,-0.3739,-0.2777,-0.2127,-0.1737,-0.1648,-0.157,0.0,0.0,0.0,0.0,-0.1397,-0.1391,-0.1391,-0.1256,-0.13,-0.1398,-0.1485,-0.1532,-0.1639,-0.1724,-0.1751,-0.1828,-0.19,-0.1941,-0.1964,-0.1975,-0.1969,-0.1944,-0.1879,-0.1837,-0.1801,-0.1712,-0.1753,-0.1767,-0.1827,-0.1885,-0.1931,-0.1956,-0.1957,-0.1934,-0.1821,-0.1332,-0.0971,-0.0956,-0.0347,0.0297,0.1037,0.1668,0.2194,0.2555,0.2837,0.3148,0.3581,0.3124,0.292,0.2963,0.2298,0.1788,0.1417,-0.0183,-0.1338,-0.1946,-0.1904,-0.1875,-0.1855,-0.1834,-0.179,-0.1788,-0.1799,-0.1762,-0.1647,-0.171,-0.1643,-0.1617,-0.1617,-0.1617,-0.1617,0.0,0.0,0.0,0.0,0.0,0.0,0.0,0.0,0.0,0.0,0.0,0.0,0.0,0.0,0.0,0.0,0.0,0.0,-0.6722,-0.6937,-0.7092,-0.7085,-0.7431,-0.7662,-0.7797,-0.7807,-0.7957,-0.831,-0.8394,-0.8537,-0.8689,-0.8835,-0.8854,-0.8809,-0.7593,-0.7132,-0.7167,-0.5745,-0.4669,-0.3838,-0.3435,-0.2681,-0.1753,-0.156,0.0,0.0,0.0,-0.1395,-0.1395,-0.1393,-0.1394,-0.1395,-0.1395,-0.1396,-0.1408,-0.1464,-0.1555,-0.166,-0.1777,-0.1803,-0.1875,-0.1962,-0.2002,-0.2013,-0.1986,-0.1994,-0.196,-0.1842,-0.1791,-0.1727,-0.1641,-0.1639,-0.1732,-0.1794,-0.1809,-0.1856,-0.1917,-0.1827,-0.1813,-0.1927,-0.1825,-0.186,-0.1888,-0.189,-0.1129,0.0724,0.0,0.1448,0.2394,0.1553,0.1489,0.2456,0.1553,0.1055,0.1071,0.0993,0.0431,-0.0616,-0.1543,-0.1976,-0.1973,-0.1913,-0.1885,-0.188,-0.1821,-0.1761,-0.1706,-0.179,-0.1696,-0.162,-0.1649,-0.1642,-0.1617,-0.1617,-0.1617,-0.1617,0.0,0.0,0.0,0.0,0.0,0.0,0.0,0.0,0.0,0.0,0.0,0.0,0.0,0.0,0.0,0.0,0.0,0.0,-0.6829,-0.6997,-0.7048,-0.6943,-0.738,-0.7617,-0.7651,-0.7756,-0.7906,-0.8099,-0.8136,-0.8231,-0.8384,-0.8421,-0.8496,-0.8598,-0.8261,-0.8132,-0.8053,-0.6721,-0.602,-0.5642,0.0,-0.2904,-0.2577,0.0,0.0,0.0,0.0,-0.1456,-0.1453,-0.1477,-0.1391,-0.1268,-0.1409,-0.1376,-0.1299,-0.1507,-0.166,-0.1778,-0.1809,-0.1926,-0.2046,-0.2069,-0.2064,-0.2044,-0.2015,-0.1945,-0.186,-0.1823,-0.1744,-0.1628,-0.159,-0.1608,-0.1655,-0.179,-0.1825,-0.1904,-0.1958,-0.1989,-0.1996,-0.1968,-0.197,-0.1968,-0.1954,-0.1954,-0.178,-0.1245,-0.0492,0.0061,0.031,0.0741,0.1111,0.1426,0.1174,0.0988,0.1054,0.0247,-0.0617,-0.1605,-0.1853,-0.1964,-0.1941,-0.1903,-0.1874,-0.185,-0.1811,-0.1761,-0.1705,-0.1712,-0.1677,-0.1618,-0.1625,-0.1624,-0.1617,-0.1617,-0.1617,-0.1617,0.0,0.0,0.0,0.0,0.0,0.0,0.0,0.0,0.0,0.0,0.0,0.0,0.0,0.0,0.0,0.0,0.0,0.0,0.0,-0.7018,-0.7034,-0.6893,-0.717,-0.7336,-0.7397,-0.735,-0.7461,-0.7746,0.0,0.0,-0.7977,-0.7977,-0.8018,-0.8096,-0.8096,-0.813,-0.813,-0.7308,0.0,0.0,0.0,0.0,0.0,0.0,0.0,0.0,-0.1668,-0.1535,-0.1545,-0.1542,-0.1446,-0.1401,-0.1498,-0.1477,-0.1467,-0.1658,-0.176,-0.1872,-0.1924,-0.2022,-0.2112,-0.2125,-0.2096,-0.2049,-0.1993,-0.1848,-0.1808,-0.1747,-0.1628,-0.1579,-0.1539,-0.1556,-0.1602,-0.1679,-0.176,-0.1842,-0.1925,-0.1965,-0.1993,-0.2013,-0.2017,-0.2018,-0.2015,-0.2015,-0.2021,-0.2037,-0.1433,-0.0928,-0.0565,-0.0375,-0.0125,0.0311,-0.0062,-0.0308,-0.0308,-0.0863,-0.1419,-0.1977,-0.1963,-0.1947,-0.1869,-0.1885,-0.1856,-0.1781,0.0,-0.1761,-0.1704,-0.1704,-0.1669,-0.1617,-0.1617,-0.1617,-0.1617,-0.1617,-0.1617,-0.1617,0.0,0.0,0.0,0.0,0.0,0.0,0.0,0.0,0.0,0.0,0.0,0.0,0.0,0.0,0.0,0.0,0.0,0.0,0.0,0.0,0.0,0.0,-0.6913,-0.697,-0.7092,-0.6892,-0.6949,-0.7343,-0.7207,-0.723,0.0,0.0,0.0,0.0,0.0,0.0,0.0,0.0,0.0,0.0,0.0,0.0,0.0,0.0,0.0,0.0,-0.1919,-0.1555,-0.1582,-0.1613,-0.1605,-0.1634,-0.1643,-0.1688,-0.1702,-0.1783,-0.1859,-0.1938,-0.2042,-0.2098,-0.2133,-0.2155,-0.2172,-0.203,-0.1945,-0.1807,-0.1764,-0.1599,-0.1586,-0.1579,-0.1496,-0.1512,-0.1558,-0.1619,-0.1657,-0.1783,-0.1872,-0.1898,-0.1943,-0.2115,-0.2048,-0.2047,-0.2138,-0.2133,-0.213,-0.2069,-0.2038,-0.1649,-0.0835,-0.1588,-0.1575,-0.0754,-0.1553,-0.1977,-0.1977,-0.1977,-0.1975,-0.197,-0.1944,-0.1929,-0.1923,-0.1808,-0.1783,-0.1781,-0.1808,0.0,-0.1704,-0.1704,-0.1669,-0.1617,-0.1617,-0.1617,-0.1617,-0.1617,-0.1617,-0.1617,0.0,0.0,0.0,0.0,0.0,0.0,0.0,0.0,0.0,0.0,-0.7221,-0.7095,0.0,0.0,0.0,0.0,0.0,0.0,0.0,0.0,0.0,0.0,-0.7058,-0.7071,-0.7095,-0.7048,-0.7058,-0.7136,-0.7109,-0.7122,0.0,0.0,0.0,0.0,0.0,0.0,0.0,0.0,0.0,0.0,0.0,0.0,0.0,0.0,0.0,0.0,-0.1988,-0.1605,-0.1613,-0.1644,-0.1702,-0.1707,-0.1757,-0.1761,-0.1817,-0.1858,-0.1965,-0.2075,-0.2095,-0.216,-0.2217,-0.2197,-0.2091,-0.1975,-0.1909,-0.177,-0.1633,-0.1551,-0.1538,-0.1529,-0.1488,-0.1547,-0.162,-0.168,-0.1735,-0.1808,-0.1909,-0.1965,-0.2012,-0.2123,-0.2169,-0.2199,-0.2205,-0.2159,-0.2074,-0.2099,-0.205,-0.1958,-0.1773,-0.1895,-0.1945,-0.1736,-0.1917,-0.1977,-0.1977,-0.1977,-0.1964,-0.1939,-0.1934,-0.1918,-0.1892,-0.1857,-0.1783,-0.1781,-0.1808,0.0,-0.1704,-0.1704,-0.1669,-0.1617,-0.1617,-0.1617,-0.1617,-0.1617,-0.1617,-0.1617,0.0,0.0,0.0,0.0,0.0,0.0,0.0,-0.7322,-0.7446,-0.7482,-0.7424,-0.735,-0.7268,-0.7142,-0.7095,0.0,0.0,0.0,0.0,0.0,0.0,0.0,0.0,0.0,0.0,-0.7339,-0.7414,-0.7442,0.0,-0.7417,-0.7442,-0.7414,-0.738,-0.7383,-0.7458,-0.7492,-0.7495,-0.7567,0.0,-0.7557,-0.7197,-0.7031,0.0,0.0,0.0,0.0,0.0,-0.207,-0.1622,-0.1652,-0.1714,-0.1728,-0.1804,-0.1815,-0.1876,-0.1937,-0.2028,-0.2116,-0.2148,-0.22,-0.2234,-0.2188,-0.2076,-0.1952,-0.1859,-0.1736,-0.1619,-0.1542,-0.1538,-0.1545,-0.1531,-0.1564,-0.1613,-0.1673,-0.1719,-0.1785,-0.1892,-0.1945,-0.2001,-0.2078,-0.2099,-0.218,-0.2129,-0.2091,-0.207,-0.2084,-0.2059,-0.2042,-0.2042,-0.2027,-0.2005,-0.1977,-0.1977,-0.1977,-0.1977,-0.1977,-0.1961,-0.1871,-0.1915,-0.1892,-0.1861,-0.1831,-0.1817,-0.1816,-0.1802,0.0,-0.1704,-0.1704,-0.1669,-0.1617,-0.1617,-0.1617,-0.1617,-0.1617,-0.1617,-0.1617,0.0,0.0,0.0,0.0,0.0,0.0,0.0,-0.7446,-0.7475,-0.7624,-0.7645,-0.7587,-0.7438,-0.7282,-0.7132,0.0,0.0,0.0,0.0,0.0,0.0,0.0,0.0,0.0,0.0,0.0,0.0,-0.7716,-0.7638,0.0,0.0,0.0,0.0,0.0,-0.7631,-0.7645,-0.7648,-0.7682,-0.7695,0.0,0.0,-0.7862,0.0,0.0,0.0,0.0,0.0,-0.3022,-0.2277,-0.2115,-0.218,-0.2355,-0.2198,-0.1998,-0.1892,-0.1975,-0.2052,-0.2123,-0.2183,-0.2222,-0.2231,-0.217,-0.206,-0.1935,-0.1813,-0.1712,-0.1621,-0.1542,-0.155,-0.162,-0.162,-0.1577,-0.1599,-0.1705,-0.1681,-0.1735,-0.185,-0.1898,-0.1961,-0.2068,-0.2071,-0.2074,-0.2097,-0.2072,-0.2054,-0.2054,-0.2048,-0.2048,-0.2054,-0.2026,-0.1999,-0.1977,-0.1977,-0.1977,-0.1977,-0.197,-0.1952,-0.1921,-0.1891,-0.186,-0.1772,-0.1806,-0.1795,-0.1795,-0.1795,0.0,0.0,-0.1704,-0.1669,-0.1617,-0.1617,-0.1617,-0.1617,-0.1617,-0.1617,-0.1617,0.0,0.0,0.0,0.0,0.0,0.0,0.0,-0.7489,-0.7631,-0.7773,-0.779,-0.7736,-0.7594,-0.7441,-0.7292,0.0,0.0,0.0,0.0,0.0,0.0,0.0,0.0,0.0,0.0,0.0,0.0,-0.7456,-0.7539,0.0,0.0,0.0,0.0,0.0,0.0,-0.779,-0.7801,-0.7891,0.0,0.0,0.0,0.0,0.0,0.0,0.0,0.0,0.0,-0.4574,-0.4386,-0.3447,-0.3778,-0.4425,-0.3517,-0.2579,-0.1799,-0.1861,-0.202,-0.2123,-0.2183,-0.2222,-0.2231,-0.217,-0.2044,-0.1904,-0.1837,-0.1716,-0.157,-0.1534,-0.155,-0.162,-0.162,-0.1594,-0.1624,-0.1709,-0.1717,-0.1751,-0.1791,-0.1853,-0.1915,-0.1981,-0.2033,-0.2129,-0.2132,-0.204,-0.2022,-0.2022,-0.1999,-0.1996,-0.2021,-0.1996,-0.1979,-0.1977,-0.1977,-0.1977,-0.1977,-0.1949,-0.192,-0.1889,-0.1859,-0.1828,-0.1799,-0.1796,-0.1795,-0.1795,-0.1795,0.0,0.0,-0.1704,-0.1669,-0.1617,-0.1617,-0.1617,-0.1617,-0.1617,-0.1617,-0.1617,0.0,0.0,0.0,0.0,0.0,0.0,-0.735,-0.7502,-0.7651,-0.779,-0.7892,-0.7892,-0.7743,-0.7597,-0.7411,-0.7115,0.0,0.0,0.0,0.0,0.0,0.0,0.0,0.0,0.0,0.0,-0.7682,-0.7773,-0.7834,0.0,0.0,0.0,0.0,0.0,0.0,-0.7897,-0.7904,-0.7965,0.0,0.0,0.0,0.0,0.0,0.0,0.0,0.0,0.0,0.0,-0.473,-0.4362,-0.4474,-0.479,-0.4346,-0.3968,-0.3555,-0.3033,-0.294,-0.2874,-0.2323,-0.2168,-0.2176,-0.2181,-0.2001,-0.1872,-0.175,-0.1658,-0.159,-0.156,-0.1578,-0.1598,-0.1598,-0.1609,-0.1621,-0.1633,-0.1635,-0.166,-0.1731,-0.1761,-0.1819,-0.1935,-0.1954,-0.1977,-0.2031,-0.201,-0.1986,-0.1967,-0.1956,-0.1946,-0.1939,-0.1962,-0.196,-0.1923,-0.1939,-0.1941,-0.1922,-0.191,-0.1889,-0.1858,-0.1789,-0.1824,-0.1795,-0.1795,-0.1795,-0.1795,-0.1795,0.0,0.0,-0.1785,-0.1697,-0.1644,-0.1644,-0.1633,-0.1617,-0.1617,-0.1617,-0.1617,0.0,0.0,0.0,0.0,0.0,-0.7146,-0.735,-0.7502,-0.7651,-0.779,-0.7906,-0.7897,-0.7885,-0.7672,-0.7465,-0.7247,-0.7149,0.0,0.0,0.0,0.0,0.0,0.0,0.0,0.0,0.0,-0.7821,-0.7924,-0.7968,-0.7988,0.0,0.0,-0.7988,-0.7988,0.0,0.0,0.0,0.0,0.0,0.0,0.0,0.0,0.0,0.0,0.0,0.0,0.0,0.0,0.0,0.0,0.0,-0.5677,-0.5377,-0.5526,-0.5563,-0.4306,-0.3752,-0.3411,-0.2731,-0.2338,-0.2155,-0.2037,-0.1941,-0.1832,-0.1728,-0.1658,-0.1611,-0.159,-0.1602,-0.1617,-0.1617,-0.1617,-0.1617,-0.1617,-0.1617,-0.1635,-0.1684,-0.1699,-0.1747,-0.1864,-0.1866,-0.1891,-0.1971,-0.1969,-0.195,-0.192,-0.1918,-0.19,-0.1861,-0.1917,-0.193,-0.1887,-0.1907,-0.1907,-0.1886,-0.1877,-0.1862,-0.1783,-0.1774,-0.1815,-0.1795,-0.1795,-0.1795,-0.1795,-0.1795,0.0,0.0,-0.1804,-0.1773,-0.1726,-0.1717,-0.1649,-0.1629,-0.162,-0.1617,-0.1617,0.0,0.0,0.0,0.0,0.0,0.0,-0.735,-0.7502,-0.7651,-0.779,-0.7814,-0.7872,-0.7971,-0.7641,-0.7434,-0.7584,-0.727,0.0,0.0,0.0,0.0,0.0,0.0,0.0,0.0,0.0,-0.7672,-0.7814,-0.7917,-0.7988,-0.7988,-0.7988,-0.7988,-0.7988,0.0,0.0,0.0,0.0,0.0,0.0,0.0,0.0,0.0,0.0,0.0,0.0,0.0,0.0,0.0,0.0,0.0,0.0,0.0,-0.7089,-0.7544,-0.5468,-0.4192,-0.341,-0.3464,-0.2746,-0.1971,-0.194,-0.1864,-0.178,-0.1718,-0.1658,-0.1617,-0.1616,-0.1616,-0.1617,-0.1617,-0.1617,-0.1617,-0.1617,-0.1617,-0.1628,-0.171,-0.1686,-0.1716,-0.1802,-0.1778,-0.182,-0.1881,-0.1914,-0.1919,-0.1889,-0.1886,0.0,-0.1799,-0.1853,-0.1887,-0.1886,-0.1886,-0.1886,-0.1886,-0.1855,-0.1783,-0.1782,-0.181,-0.1795,-0.1795,-0.1795,-0.1795,-0.1795,0.0,0.0,0.0,-0.1804,-0.1785,-0.1701,-0.1726,-0.1714,-0.171,-0.1628,-0.1617,-0.1617,0.0,0.0,0.0,0.0,0.0,0.0,0.0,-0.7343,-0.7415,-0.7277,-0.7315,-0.739,-0.7439,-0.724,-0.7211,-0.7438,-0.7258,0.0,0.0,0.0,0.0,0.0,0.0,0.0,0.0,-0.7672,-0.7818,-0.7917,-0.7965,-0.7988,-0.7988,-0.7988,-0.7988,-0.7988,-0.7988,-0.7988,0.0,0.0,0.0,0.0,0.0,0.0,0.0,0.0,0.0,0.0,0.0,0.0,0.0,0.0,0.0,0.0,0.0,0.0,0.0,-0.7235,-0.632,-0.5368,-0.471,-0.3739,-0.2943,-0.2928,-0.234,-0.1722,-0.1684,-0.1645,-0.1617,-0.1617,-0.1617,-0.1617,-0.1617,-0.1617,-0.1617,-0.1617,-0.1617,-0.162,-0.163,-0.1656,-0.1702,-0.1772,-0.1863,-0.1926,-0.1946,-0.1938,-0.1919,-0.1888,-0.1866,-0.1837,-0.1797,-0.1813,-0.1823,-0.1823,-0.1844,-0.1845,-0.1824,-0.1814,-0.1809,-0.1809,-0.18,-0.1795,-0.1795,-0.1795,-0.1795,0.0,0.0,0.0,0.0,-0.178,-0.1763,-0.1786,-0.1703,-0.1691,-0.1688,-0.1658,-0.1648,-0.1648,0.0,0.0,0.0,0.0,0.0,0.0,0.0,-0.6545,-0.6402,-0.5993,-0.5915,-0.6131,-0.6703,-0.6513,-0.6694,-0.7402,-0.7261,0.0,0.0,0.0,0.0,0.0,0.0,0.0,-0.7675,-0.7767,-0.7885,-0.7988,-0.8099,-0.8096,-0.7992,-0.8099,-0.8096,-0.7988,-0.7988,-0.7988,0.0,0.0,0.0,0.0,0.0,0.0,-0.7889,0.0,0.0,0.0,0.0,0.0,0.0,0.0,0.0,0.0,0.0,0.0,0.0,0.0,-0.7557,-0.6851,-0.5819,-0.4804,-0.3949,-0.3949,-0.3118,-0.2313,-0.2288,-0.1945,-0.1617,-0.1617,-0.1617,-0.1617,-0.1617,-0.1617,-0.1617,-0.1617,-0.1617,-0.1617,-0.1617,-0.1643,-0.174,-0.1752,-0.1848,-0.1908,-0.1908,-0.1901,-0.1889,-0.187,-0.184,-0.1814,-0.1796,-0.1795,-0.1795,-0.1795,-0.1813,-0.1814,-0.1795,-0.1795,-0.1795,-0.1795,-0.1795,-0.1795,-0.1795,-0.1795,-0.1795,0.0,0.0,0.0,0.0,-0.1778,-0.176,-0.1784,-0.17,-0.1688,-0.1686,-0.1721,-0.1714,-0.1714,0.0,0.0,0.0,0.0,0.0,0.0,0.0,-0.5175,-0.4872,-0.4231,-0.3906,-0.4287,-0.5656,-0.5545,-0.5941,-0.7306,0.0,0.0,0.0,0.0,0.0,0.0,0.0,0.0,-0.7804,-0.7821,-0.7896,-0.7988,-0.8194,-0.8197,-0.8008,-0.8214,-0.8204,-0.8005,-0.8005,-0.8002,-0.7988,-0.7988,-0.7988,-0.7988,-0.7988,-0.7939,0.0,0.0,0.0,0.0,0.0,0.0,0.0,0.0,0.0,0.0,0.0,0.0,0.0,0.0,0.0,0.0,0.0,-0.5848,-0.5025,-0.5025,-0.413,-0.3308,-0.3308,-0.24,0.0,-0.1617,-0.1617,-0.1617,-0.1617,-0.1617,-0.1617,-0.1617,-0.1617,-0.1617,-0.1617,-0.1647,-0.1731,-0.1707,-0.1764,-0.18,-0.1798,-0.1823,-0.1783,-0.1783,-0.1812,-0.1795,-0.1795,-0.1795,-0.1795,-0.1795,-0.1793,-0.1793,-0.1795,-0.1795,-0.1795,-0.1795,-0.1795,-0.1794,-0.1792,-0.1792,-0.1791,0.0,0.0,0.0,0.0,-0.1801,-0.173,-0.1701,-0.1726,-0.1715,-0.1717,-0.1715,-0.1714,-0.1714,0.0,0.0,0.0,0.0,0.0,0.0,0.0,0.0,0.0,0.0,-0.3377,-0.348,-0.3832,-0.4593,-0.5332,0.0,0.0,0.0,0.0,0.0,0.0,0.0,0.0,0.0,-0.7807,-0.7926,-0.7955,-0.7988,-0.8194,-0.8252,-0.8218,-0.8364,-0.8353,-0.8214,-0.8214,-0.815,-0.7988,-0.7988,-0.7988,-0.7988,-0.7988,-0.7487,0.0,0.0,0.0,0.0,-0.2672,-0.2772,0.0,0.0,0.0,0.0,0.0,0.0,0.0,0.0,-0.7988,-0.7945,-0.7732,0.0,-0.606,-0.606,-0.4622,-0.3245,0.0,-0.2378,-0.1617,-0.1617,-0.1617,-0.1617,-0.1617,-0.1617,-0.1617,-0.1617,-0.1617,-0.1617,-0.1617,-0.1682,-0.1795,-0.177,-0.1827,-0.1855,-0.1832,-0.1779,-0.1783,-0.1783,-0.1812,-0.1795,-0.1795,-0.1795,-0.1795,-0.1795,-0.1828,-0.1827,-0.1795,-0.1795,-0.1795,-0.1795,-0.1795,-0.1782,-0.1816,-0.1816,-0.1748,0.0,0.0,0.0,-0.1715,-0.1715,-0.171,-0.1701,-0.1726,-0.1675,-0.1692,-0.1722,-0.1714,-0.1714,0.0,0.0,0.0,0.0,0.0,0.0,0.0,0.0,0.0,0.0,0.0,-0.1925,-0.2505,-0.3218,0.0,0.0,0.0,0.0,0.0,0.0,0.0,0.0,0.0,-0.7767,-0.7913,-0.7948,-0.7988,-0.7988,-0.8194,-0.8235,-0.8167,-0.8316,-0.8306,-0.8163,-0.8163,-0.8116,-0.7988,-0.7487,-0.7288,-0.7235,-0.6734,0.0,0.0,0.0,0.0,0.0,-0.1969,-0.2118,0.0,-0.4323,-0.5327,-0.6232,0.0,0.0,0.0,0.0,-0.7988,-0.7988,-0.7988,-0.7587,-0.7036,-0.6537,-0.5179,-0.3823,-0.3324,-0.2371,-0.1617,-0.1617,-0.1617,-0.1617,-0.1617,-0.1617,-0.1617,-0.1617,-0.1617,-0.1622,-0.1636,-0.1731,-0.1779,-0.1769,-0.186,-0.1822,0.0,-0.1819,-0.1819,-0.1819,-0.1804,-0.1789,-0.1775,-0.1774,-0.1767,-0.1754,-0.1737,-0.1744,-0.1774,-0.1761,-0.1753,-0.1753,-0.1753,-0.1745,-0.1729,-0.1729,-0.172,0.0,0.0,0.0,-0.1685,-0.1685,-0.1677,-0.1662,-0.1647,-0.1651,-0.1664,-0.1714,-0.1714,-0.1714,0.0,0.0,0.0,0.0,0.0,0.0,0.0,0.0,0.0,0.0,0.0,0.0,0.0,0.0,0.0,0.0,0.0,0.0,0.0,0.0,0.0,0.0,-0.7746,-0.7882,-0.7985,-0.7988,-0.7988,-0.7988,-0.8218,-0.8225,-0.8029,-0.8255,-0.8245,-0.8022,-0.8002,-0.7988,-0.7939,-0.6836,-0.6387,-0.6287,-0.5227,0.0,0.0,0.0,0.0,0.0,0.0,0.0,0.0,-0.4223,-0.5175,-0.5977,-0.7537,0.0,0.0,0.0,0.0,0.0,-0.7988,-0.7889,-0.7537,-0.6637,-0.5579,-0.4524,-0.3423,-0.2371,-0.1617,-0.1617,-0.1617,-0.1617,-0.1617,-0.1617,-0.1617,-0.1617,-0.1621,-0.1635,-0.1717,-0.1725,-0.1747,-0.1798,-0.1809,0.0,-0.1786,-0.1788,-0.1788,-0.1788,-0.1784,-0.177,-0.1799,-0.1797,-0.1785,-0.1705,-0.17,-0.171,-0.179,-0.1715,-0.1704,-0.1704,-0.1704,-0.1702,-0.1698,-0.1698,-0.1695,-0.1691,0.0,0.0,-0.1707,-0.1707,-0.164,-0.1617,-0.1617,-0.1617,-0.162,-0.1646,-0.1707,-0.1707,0.0,0.0,0.0,0.0,0.0,0.0,0.0,0.0,0.0,0.0,0.0,0.0,0.0,0.0,0.0,0.0,0.0,0.0,0.0,0.0,0.0,-0.778,-0.7797,-0.7882,-0.7985,-0.7988,-0.7988,-0.7988,-0.8316,-0.8377,-0.8241,-0.8516,-0.8496,-0.8231,-0.8099,-0.7988,-0.7939,-0.6836,-0.6387,-0.6287,-0.5227,0.0,0.0,0.0,0.0,0.0,0.0,0.0,0.0,-0.372,-0.4368,-0.4718,-0.7232,0.0,0.0,0.0,0.0,0.0,-0.7988,-0.7338,-0.6587,-0.6437,-0.5579,-0.4524,-0.3423,-0.2371,-0.1617,-0.1617,-0.1617,-0.1617,-0.1617,-0.1617,-0.1617,-0.1617,-0.1639,-0.1665,-0.1694,-0.1773,-0.1794,-0.1803,0.0,-0.178,-0.1814,-0.1811,-0.1811,-0.1811,-0.1733,-0.1716,-0.1712,-0.1711,-0.1709,-0.1704,-0.1681,-0.1723,-0.1728,-0.1695,-0.1704,-0.1704,-0.1704,-0.1692,-0.1721,-0.1721,-0.1654,-0.163,0.0,-0.1628,-0.1624,-0.1624,-0.1621,-0.1617,-0.1617,-0.1617,-0.1618,-0.1622,-0.1624,-0.1624,0.0,0.0,0.0,0.0,0.0,0.0,0.0,0.0,0.0,0.0,0.0,0.0,0.0,0.0,0.0,0.0,0.0,0.0,0.0,0.0,-0.7884,-0.7884,-0.7884,-0.7917,-0.7988,-0.7988,-0.8029,-0.8163,-0.8299,-0.8385,-0.8323,-0.8323,-0.8275,-0.8143,-0.8022,-0.769,-0.7086,-0.5979,-0.5179,-0.4578,0.0,0.0,0.0,0.0,0.0,0.0,0.0,0.0,0.0,0.0,-0.3869,-0.4368,-0.6481,0.0,0.0,0.0,0.0,0.0,-0.7786,-0.6681,-0.5375,-0.5477,-0.4726,-0.3674,-0.2572,-0.1969,-0.1617,-0.1617,-0.1617,-0.1617,-0.1617,-0.1617,-0.1622,-0.1639,-0.1705,-0.1724,-0.17,-0.1716,-0.1785,0.0,0.0,-0.182,-0.1806,-0.1804,-0.1797,-0.1726,-0.1712,-0.1697,-0.1682,-0.1682,-0.1674,-0.1657,-0.1644,-0.1638,-0.1638,-0.165,-0.1657,-0.1657,-0.1657,-0.165,-0.1638,-0.1638,-0.163,-0.1617,0.0,-0.1617,-0.1617,-0.1617,-0.1617,-0.1617,-0.1617,-0.1617,-0.1617,-0.1617,-0.1617,-0.1617,0.0,0.0,0.0,0.0,0.0,0.0,0.0,0.0,0.0,0.0,0.0,0.0,0.0,0.0,0.0,0.0,0.0,0.0,0.0,-0.732,-0.7704,-0.7988,-0.7988,-0.7988,-0.7988,-0.7988,-0.8116,-0.8323,-0.8323,-0.8323,-0.832,-0.8113,-0.7988,-0.7988,-0.7988,-0.7388,-0.6334,-0.5277,-0.4175,-0.3123,0.0,0.0,0.0,0.0,0.0,0.0,0.0,0.0,0.0,0.0,0.0,0.0,0.0,0.0,0.0,-0.764,-0.6731,-0.6126,-0.7587,-0.6077,-0.4221,-0.4674,-0.3974,-0.2923,-0.1869,-0.1617,-0.1617,-0.1617,-0.1617,-0.1617,-0.1617,-0.1617,-0.1624,-0.1648,-0.1923,-0.2102,-0.2137,-0.2356,-0.2532,-0.2631,-0.2355,-0.2186,-0.2185,-0.1961,-0.178,-0.1697,-0.1688,-0.1675,-0.1653,-0.1652,-0.1641,-0.1618,-0.1617,-0.1617,-0.1617,-0.1617,-0.1617,-0.1617,-0.1617,-0.1617,-0.1617,-0.1617,-0.1617,-0.1617,-0.1617,-0.1617,-0.1617,-0.1617,-0.1617,-0.1617,-0.1617,-0.1617,-0.1617,-0.1617,-0.1617,-0.1617,0.0,0.0,0.0,0.0,0.0,0.0,0.0,0.0,0.0,0.0,0.0,0.0,0.0,0.0,0.0,0.0,0.0,0.0,0.0,-0.6255,-0.6807,-0.7932,-0.7988,-0.7988,-0.7988,-0.7988,-0.8116,-0.8323,-0.8323,-0.8323,-0.832,-0.8113,-0.7988,-0.7988,-0.7988,-0.7388,-0.6334,-0.5277,-0.4175,-0.3123,-0.2019,0.0,0.0,0.0,0.0,0.0,0.0,0.0,0.0,0.0,0.0,0.0,0.0,0.0,-0.7789,-0.6786,-0.6434,-0.6587,-0.769,-0.5679,-0.3524,-0.4524,-0.3974,-0.2923,-0.1869,-0.1617,-0.1617,-0.1617,-0.1617,-0.1617,-0.1617,-0.1617,-0.1618,-0.162,-0.2601,-0.3366,-0.3367,0.0,-0.4928,-0.5119,-0.4021,-0.3331,-0.3382,-0.2368,-0.1696,-0.1719,-0.1639,-0.1622,-0.162,-0.162,-0.1619,-0.1617,-0.1617,-0.1617,-0.1617,-0.1617,-0.1617,-0.1617,-0.1617,-0.1617,-0.1617,-0.1617,-0.1617,-0.1617,-0.1617,-0.1617,-0.1617,-0.1617,-0.1617,-0.1617,-0.1617,-0.1617,-0.1617,-0.1617,-0.1617,-0.1617,0.0,0.0,0.0,0.0,0.0,0.0,0.0,0.0,0.0,0.0,0.0,0.0,0.0,0.0,0.0,0.0,0.0,0.0,0.0,-0.545,-0.6283,-0.6731,-0.7537,-0.7988,-0.7988,-0.7988,-0.8157,-0.8404,-0.8368,-0.8323,-0.832,-0.8113,-0.7988,-0.7988,-0.7288,-0.6434,-0.5327,-0.4275,-0.3173,-0.217,-0.1768,-0.1617,0.0,0.0,0.0,0.0,0.0,0.0,0.0,0.0,-0.1913,-0.2815,-0.3066,-0.4572,-0.6082,-0.5172,-0.5275,-0.5679,-0.5724,-0.4373,-0.3071,-0.3674,-0.3024,-0.212,-0.1667,-0.1632,-0.1639,-0.1621,-0.1632,-0.1639,-0.162,-0.217,-0.2632,-0.2663,-0.3716,-0.4473,-0.4393,-0.4818,-0.5114,-0.509,-0.4043,-0.337,-0.3384,-0.2366,-0.1666,-0.1637,-0.1624,-0.1617,-0.1617,-0.1617,-0.1617,-0.1617,-0.1617,-0.1617,-0.1617,-0.1617,-0.1617,-0.1617,-0.1617,-0.1617,-0.1617,-0.1617,-0.1617,-0.1617,-0.1617,-0.1617,-0.1617,-0.1617,-0.1617,-0.1617,-0.1617,-0.1617,-0.1617,-0.1617,-0.1617,-0.162,0.0,0.0,0.0,0.0,0.0,0.0,0.0,0.0,0.0,0.0,0.0,0.0,0.0,0.0,0.0,0.0,0.0,0.0,-0.2901,-0.4481,-0.5577,-0.5979,-0.7185,-0.7962,-0.8109,-0.8015,-0.8163,-0.8414,-0.8371,-0.8245,-0.8197,-0.8039,-0.7988,-0.7939,-0.6886,-0.5782,-0.4724,-0.3674,-0.2521,-0.1465,-0.1465,-0.1415,0.0,0.0,0.0,0.0,0.0,0.0,0.0,0.0,-0.121,-0.1963,-0.1813,-0.3169,-0.4624,-0.3767,-0.392,-0.4425,-0.442,-0.342,-0.2569,-0.3073,-0.2371,-0.1617,-0.1617,-0.164,-0.1708,-0.1635,-0.1647,-0.1804,-0.2061,-0.2711,-0.3338,-0.3687,-0.4788,-0.5588,-0.5461,-0.5817,-0.6095,-0.6052,-0.5021,-0.4196,-0.3887,-0.285,-0.206,-0.1619,-0.1608,0.0,0.0,-0.1594,-0.1593,-0.1602,-0.1603,-0.1607,-0.1617,-0.1617,-0.1617,-0.1617,-0.1617,-0.1617,-0.1617,-0.1617,-0.1617,-0.1617,-0.1617,-0.1617,-0.1617,-0.1617,-0.1617,-0.1617,-0.1617,-0.1617,-0.1617,-0.1617,-0.1617,-0.1621,0.0,0.0,0.0,0.0,0.0,0.0,0.0,0.0,0.0,0.0,0.0,0.0,0.0,0.0,0.0,0.0,0.0,0.0,-0.1904,-0.3254,-0.4576,-0.5929,-0.6989,-0.7811,-0.8265,-0.8116,-0.8113,-0.832,-0.832,-0.8191,-0.7988,-0.7988,-0.7988,-0.7939,-0.6886,-0.5782,-0.4724,-0.3624,-0.2421,-0.1212,-0.1212,-0.1061,-0.0808,0.0,0.0,0.0,0.0,0.0,0.0,0.0,-0.0907,-0.1813,-0.0707,-0.2064,-0.3767,-0.2716,-0.2567,-0.302,-0.4069,-0.3021,-0.1869,-0.2923,-0.2371,-0.1617,-0.1617,-0.164,-0.1714,-0.1714,-0.1714,-0.2002,-0.3009,-0.3183,-0.3574,-0.4624,-0.5867,-0.67,-0.6713,-0.7626,-0.8374,-0.8462,-0.7309,-0.6149,-0.5167,-0.3982,-0.2828,-0.1669,-0.1588,0.0,0.0,-0.1543,-0.154,-0.162,-0.162,-0.1586,-0.1616,-0.1617,-0.1617,-0.1617,-0.1617,-0.1617,-0.1617,-0.1617,-0.1617,-0.1617,-0.1617,-0.1617,-0.1617,-0.1617,-0.1617,-0.1617,-0.1617,-0.1617,-0.1617,-0.1617,-0.1617,-0.1622,0.0,0.0,0.0,0.0,0.0,0.0,0.0,0.0,0.0,0.0,0.0,0.0,0.0,0.0,0.0,0.0,0.0,0.0,-0.0584,-0.2037,-0.332,-0.4271,-0.5882,-0.7109,-0.7808,-0.7915,-0.8012,-0.8109,-0.8109,-0.8032,-0.7988,-0.7988,-0.7587,-0.6836,-0.5729,-0.4676,-0.3574,-0.2319,-0.1565,-0.1162,-0.101,-0.0859,-0.0758,0.0,0.0,0.0,0.0,0.0,0.0,0.0,0.0,0.0,-0.0202,-0.1109,-0.2115,-0.1009,-0.2116,-0.3371,-0.2167,-0.2268,-0.2622,-0.217,-0.1818,-0.1617,-0.1617,-0.164,-0.1714,-0.1714,-0.1645,-0.1928,-0.3004,-0.381,-0.4676,-0.5729,-0.6994,-0.7782,-0.7617,-0.8021,-0.8245,-0.818,-0.7119,-0.6002,-0.4973,-0.3877,-0.2759,-0.1605,0.0,0.0,0.0,-0.1531,-0.154,-0.162,-0.162,-0.1586,-0.1616,-0.1617,-0.1617,-0.1617,-0.1617,-0.1617,-0.1617,-0.1617,-0.1617,-0.1617,-0.1617,-0.1617,-0.1617,-0.1617,-0.1617,-0.1617,-0.1617,-0.1617,-0.1617,-0.1617,-0.1617,-0.1624,0.0,0.0,0.0,0.0,0.0,0.0,0.0,0.0,0.0,0.0,0.0,0.0,0.0,0.0,0.0,0.0,0.0,0.0,0.0,-0.1297,-0.2366,-0.2917,-0.4974,-0.6584,-0.7743,-0.7942,-0.7988,-0.7988,-0.7988,-0.7988,-0.7988,-0.7988,-0.7437,-0.6334,-0.5277,-0.4123,-0.2972,-0.1716,-0.1061,-0.0859,-0.0707,-0.0556,-0.0455,0.0,0.0,0.0,0.0,0.0,0.0,0.0,0.0,0.0,0.0,-0.0454,-0.0858,-0.0303,-0.1361,-0.2469,-0.1262,-0.1766,-0.2422,-0.1768,-0.1617,-0.1617,-0.1617,-0.164,-0.1714,-0.1714,-0.1647,-0.2088,-0.3578,-0.4373,-0.5277,-0.6786,-0.7661,-0.8147,-0.8002,-0.8119,-0.8143,-0.8002,-0.7437,-0.6583,-0.5482,-0.4445,-0.3344,0.0,0.0,0.0,0.0,-0.1497,-0.1504,-0.1534,-0.1584,-0.155,-0.1581,-0.1593,-0.1598,-0.1599,-0.1611,-0.1617,-0.1617,-0.1617,-0.1617,-0.1617,-0.1617,-0.1617,-0.1617,-0.1617,-0.1617,-0.1617,-0.1617,-0.1617,-0.1617,-0.1617,-0.1617,-0.1624,0.0,0.0,0.0,0.0,0.0,0.0,0.0,0.0,0.0,0.0,0.0,0.0,0.0,0.0,0.0,0.0,0.0,0.0,0.0,-0.0949,-0.1613,-0.1963,-0.427,-0.6276,-0.7839,-0.7939,-0.7992,-0.7988,-0.7988,-0.7988,-0.7988,-0.7889,-0.7288,-0.6184,-0.5127,-0.3872,-0.2569,-0.1564,-0.0859,-0.0404,-0.0354,-0.0202,0.0,0.0,0.0,0.0,0.0,0.0,0.0,0.0,0.0,0.0,0.0,0.0,-0.0051,-0.0303,-0.0556,-0.0859,-0.1111,-0.1364,-0.1617,-0.1617,-0.1617,-0.1617,-0.1617,-0.1638,-0.171,-0.171,-0.171,-0.2317,-0.4438,-0.4824,-0.5525,-0.7637,-0.7988,-0.7988,-0.7988,-0.7988,-0.7985,-0.7971,-0.7968,-0.7507,-0.6281,-0.5354,-0.4303,0.0,0.0,0.0,0.0,-0.1451,-0.1449,-0.148,-0.148,-0.1495,-0.1478,-0.1556,-0.162,-0.1621,-0.1602,-0.1617,-0.1617,-0.1617,-0.1617,-0.1617,-0.1617,-0.1617,-0.1617,-0.1617,-0.1617,-0.1617,-0.1617,-0.1617,-0.1617,-0.1617,-0.1617,-0.1621,0.0,0.0,0.0,0.0,0.0,0.0,0.0,0.0,0.0,0.0,0.0,0.0,0.0,0.0,0.0,0.0,0.0,0.0,0.0,-0.0403,-0.0959,-0.1663,-0.3974,-0.5729,-0.6736,-0.7344,-0.7793,-0.7988,-0.7988,-0.7988,-0.7988,-0.7138,-0.6182,-0.5074,-0.3822,-0.262,-0.1515,-0.0858,-0.0505,-0.0404,-0.0152,-0.0051,0.0,0.0,0.0,0.0,0.0,0.0,0.0,0.0,0.0,0.0,0.0,0.0,0.0,-0.0051,-0.0404,-0.0808,-0.0859,-0.1212,-0.1617,-0.1617,-0.1617,-0.1617,-0.1617,-0.1622,-0.1626,-0.1626,-0.1626,-0.2282,-0.4427,-0.4824,-0.5525,-0.7637,-0.7988,-0.7988,-0.7988,-0.7988,-0.7944,-0.7875,-0.7862,-0.7366,-0.6081,-0.516,0.0,0.0,0.0,0.0,-0.1446,-0.1394,-0.1449,-0.148,-0.148,-0.1495,-0.1478,-0.1556,-0.162,0.0,-0.1602,-0.1617,-0.1617,-0.1617,-0.1617,-0.1617,-0.1617,-0.1617,-0.1617,-0.1617,-0.1617,-0.1617,-0.1617,-0.1617,-0.1617,-0.1617,-0.1617,-0.1621,0.0,0.0,0.0,0.0,0.0,0.0,0.0,0.0,0.0,0.0,0.0,0.0,0.0,0.0,0.0,0.0,0.0,0.0,0.0,0.0,-0.0707,-0.1763,-0.3019,-0.4223,-0.5427,-0.5829,-0.6179,-0.6478,-0.6983,-0.7487,-0.7988,-0.6886,-0.5779,-0.4572,-0.332,-0.2066,-0.0808,-0.0505,-0.0303,-0.0202,-0.0051,0.0,0.0,0.0,0.0,0.0,0.0,0.0,0.0,0.0,0.0,0.0,0.0,0.0,0.0,-0.0152,-0.0404,-0.0657,-0.0909,-0.1212,-0.1415,-0.1566,-0.1617,-0.1617,-0.1617,-0.1516,-0.1415,-0.1415,-0.1516,-0.227,-0.4423,-0.4824,-0.5525,-0.7637,-0.7988,-0.7988,-0.7988,-0.7988,-0.7934,-0.7828,-0.7811,-0.7502,-0.67,-0.5349,0.0,0.0,0.0,-0.1452,-0.1391,-0.1391,-0.1397,-0.1458,-0.1459,-0.1467,-0.1436,-0.1527,-0.155,-0.155,-0.1595,-0.1617,-0.1617,-0.1617,-0.1617,-0.1617,-0.1617,-0.1617,-0.1617,-0.1617,-0.1617,-0.1617,-0.1617,-0.1617,-0.1617,-0.1617,-0.1617,-0.1619,0.0,0.0,0.0,0.0,0.0,0.0,0.0,0.0,0.0,0.0,0.0,0.0,0.0,0.0,0.0,0.0,0.0,0.0,0.0,0.0,0.0,-0.1653,-0.1859,-0.2615,-0.4069,-0.427,-0.4472,-0.4824,-0.5679,-0.6534,-0.7381,-0.6484,-0.5327,-0.4019,-0.2868,-0.166,-0.0402,-0.0352,-0.0201,0.0,0.0,0.0,0.0,0.0,0.0,0.0,0.0,0.0,0.0,0.0,0.0,0.0,0.0,0.0,-0.0051,-0.0253,-0.0353,-0.0503,-0.0959,-0.1111,-0.1263,-0.1516,-0.1617,-0.1617,-0.1617,-0.1415,-0.1211,-0.1208,-0.1361,-0.217,-0.4323,-0.4774,-0.5525,-0.7637,-0.7988,-0.7982,-0.7955,-0.7951,-0.7884,-0.7756,-0.7736,-0.7628,-0.7356,0.0,0.0,0.0,0.0,-0.1391,-0.1391,-0.1391,-0.1391,-0.1391,-0.1391,-0.1391,-0.1391,-0.1449,-0.1478,-0.1479,-0.1588,-0.1617,-0.1617,-0.1617,-0.1617,-0.1617,-0.1617,-0.1617,-0.1617,-0.1617,-0.1617,-0.1617,-0.1617,-0.1617,-0.1617,-0.1617,-0.1617,-0.1617,0.0,0.0,0.0,0.0,0.0,0.0,0.0,0.0,0.0,0.0,0.0,0.0,0.0,0.0,0.0,0.0,0.0,0.0,0.0,0.0,0.0,-0.0591,-0.1299,-0.2065,-0.297,-0.3673,-0.4323,-0.4824,-0.4924,-0.4974,-0.487,-0.4722,-0.3969,-0.2616,-0.1311,-0.06,-0.0394,-0.0148,-0.0049,0.0,0.0,0.0,0.0,0.0,0.0,0.0,0.0,0.0,0.0,0.0,0.0,0.0,0.0,0.0,0.0,-0.0051,-0.02,-0.0396,-0.0503,-0.0859,-0.1263,-0.1516,-0.1617,-0.1617,-0.1617,-0.1415,-0.1207,-0.1187,-0.1248,-0.1917,-0.4071,-0.4622,-0.5525,-0.7637,-0.7988,-0.7944,-0.7862,-0.7841,-0.774,-0.7461,-0.7477,-0.7363,-0.7142,0.0,0.0,0.0,-0.2508,-0.1391,-0.1391,-0.1391,-0.1391,-0.1391,-0.1391,-0.1391,-0.1391,-0.1449,-0.1478,-0.1479,-0.1588,-0.1617,-0.1617,-0.1617,-0.1617,-0.1617,-0.1617,-0.1617,-0.1617,-0.1617,-0.1617,-0.1617,-0.1617,-0.1617,-0.1617,-0.1617,-0.1617,-0.1617,0.0,0.0,0.0,0.0,0.0,0.0,0.0,0.0,0.0,0.0,0.0,0.0,0.0,0.0,0.0,0.0,0.0,0.0,0.0,0.0,0.0,-0.015,-0.0503,-0.0958,-0.1462,-0.1966,-0.2418,-0.2771,-0.3371,-0.3221,-0.2417,-0.2867,-0.2765,-0.2114,-0.0908,-0.0302,-0.015,-0.0049,0.0,0.0,0.0,0.0,0.0,0.0,0.0,0.0,0.0,0.0,0.0,0.0,0.0,0.0,0.0,0.0,0.0,0.0,-0.01,-0.0249,-0.0547,-0.0895,-0.1243,-0.1542,-0.1605,-0.1617,-0.1617,-0.1263,-0.0954,-0.0986,-0.084,-0.144,-0.3762,-0.4392,-0.5275,-0.7441,-0.7892,-0.7938,-0.7831,-0.7811,-0.7702,-0.7453,-0.7415,-0.7128,-0.6399,0.0,0.0,0.0,-0.2195,-0.1391,-0.1391,-0.1391,-0.1391,-0.1391,-0.1391,-0.1398,-0.146,-0.1504,-0.1495,-0.1577,-0.1604,-0.1617,-0.1617,-0.1617,-0.1617,-0.1617,-0.1617,-0.1617,-0.1617,-0.1617,-0.1617,-0.1617,-0.1617,-0.1617,-0.1617,-0.1617,-0.1617,-0.1617,0.0,0.0,0.0,0.0,0.0,0.0,0.0,0.0,0.0,0.0,0.0,0.0,0.0,0.0,0.0,0.0,0.0,0.0,0.0,0.0,0.0,0.0,0.0,-0.0101,-0.0404,-0.0606,-0.0808,-0.1111,-0.1916,-0.1765,-0.0707,-0.131,-0.1561,-0.1461,-0.0656,-0.0201,0.0,0.0,0.0,0.0,0.0,0.0,0.0,0.0,0.0,0.0,0.0,0.0,0.0,0.0,0.0,0.0,0.0,0.0,0.0,0.0,0.0,-0.01,-0.0584,-0.0825,-0.1072,-0.1413,-0.1478,-0.1496,-0.1604,-0.1349,-0.1091,-0.0831,-0.0731,-0.1312,-0.3378,-0.4011,-0.4961,-0.7134,-0.7609,-0.769,-0.7674,-0.7627,-0.757,-0.7397,-0.7336,-0.6905,-0.5816,0.0,0.0,0.0,-0.1973,-0.1391,-0.1391,-0.1391,-0.1391,-0.1391,-0.1397,-0.1457,-0.148,-0.1519,-0.1564,-0.1617,-0.1617,-0.1617,-0.1617,-0.1617,-0.1617,-0.1617,-0.1617,-0.1617,-0.1617,-0.1617,-0.1617,-0.1617,-0.1617,-0.1617,-0.1617,-0.1617,-0.1617,-0.1617,0.0,0.0,0.0,0.0,0.0,0.0,0.0,0.0,0.0,0.0,0.0,0.0,0.0,0.0,0.0,0.0,0.0,0.0,0.0,0.0,0.0,0.0,0.0,0.0,-0.0404,-0.0404,-0.0556,-0.0808,-0.0858,-0.0757,-0.0404,-0.0454,-0.0353,-0.0101,-0.0051,0.0,0.0,0.0,0.0,0.0,0.0,0.0,0.0,0.0,0.0,0.0,0.0,0.0,0.0,0.0,0.0,0.0,0.0,0.0,0.0,0.0,0.0,0.0,-0.0328,-0.0424,-0.0573,-0.1099,-0.1242,-0.1298,-0.1518,-0.1889,-0.1862,-0.1003,-0.1097,-0.1705,-0.2832,-0.3477,-0.455,-0.6779,-0.7037,-0.7001,-0.7224,-0.7114,-0.7119,-0.7373,-0.7241,-0.6748,-0.5808,0.0,0.0,0.0,-0.1973,-0.1391,-0.1391,-0.1391,-0.1391,-0.1391,-0.1463,-0.1479,-0.148,-0.1539,-0.1585,-0.1617,-0.1617,-0.1617,-0.1617,-0.1617,-0.1617,-0.1617,-0.1617,-0.1617,-0.1617,-0.1617,-0.1617,-0.1617,-0.1617,-0.1617,-0.1617,-0.1617,-0.1617,-0.1617,0.0,0.0,0.0,0.0,0.0,0.0,0.0,0.0,0.0,0.0,0.0,0.0,0.0,0.0,0.0,0.0,0.0,0.0,0.0,0.0,0.0,0.0,0.0,-0.005,-0.0151,-0.0303,-0.0455,-0.0556,-0.0556,-0.0505,-0.0404,-0.0202,-0.0101,0.0,0.0,0.0,0.0,0.0,0.0,0.0,0.0,0.0,0.0,0.0,0.0,0.0,0.0,0.0,0.0,0.0,0.0,0.0,0.0,0.0,0.0,0.0,0.0,-0.0048,-0.0326,-0.0419,-0.0468,-0.0842,-0.1086,-0.1194,-0.1106,-0.1198,-0.1139,-0.0656,-0.052,-0.0852,-0.1899,-0.2906,-0.4237,-0.6373,-0.6824,-0.6907,-0.6861,-0.6854,-0.6788,-0.6741,-0.6866,-0.6299,0.0,0.0,0.0,0.0,0.0,-0.1391,-0.1391,-0.1391,-0.1391,-0.1391,-0.1465,-0.15,-0.1586,-0.158,-0.1606,-0.1617,-0.1617,-0.1617,-0.1617,-0.1617,-0.1617,-0.1617,-0.1617,-0.1617,-0.1617,-0.1617,-0.1617,-0.1617,-0.1617,-0.1617,-0.1617,-0.1617,-0.1617,-0.1617,0.0,0.0,0.0,0.0,0.0,0.0,0.0,0.0,0.0,0.0,0.0,0.0,0.0,0.0,0.0,0.0,0.0,0.0,0.0,0.0,0.0,0.0,0.0,0.0,0.0,-0.0151,-0.0251,-0.0253,-0.0251,-0.0251,-0.0253,-0.0101,0.0,0.0,0.0,0.0,0.0,0.0,0.0,0.0,0.0,0.0,0.0,0.0,0.0,0.0,0.0,0.0,0.0,0.0,0.0,0.0,0.0,0.0,0.0,0.0,0.0,-0.0047,-0.023,-0.0275,-0.0321,-0.0595,-0.0786,-0.0889,-0.0801,-0.0986,-0.1072,-0.0926,-0.0651,-0.0791,-0.1833,-0.2403,-0.3409,-0.5494,-0.6223,-0.651,-0.6554,-0.6509,-0.6509,-0.6505,-0.6326,-0.5583,0.0,0.0,0.0,0.0,0.0,0.0,-0.1391,-0.1355,-0.1368,-0.148,-0.15,-0.1536,-0.1586,-0.1607,-0.1617,-0.1617,-0.1617,-0.1617,-0.1617,-0.1617,-0.1617,-0.1617,-0.1617,-0.1617,-0.1617,-0.1617,-0.1617,-0.1617,-0.1617,-0.1617,-0.1617,-0.1617,-0.1617,-0.1617,0.0,0.0,0.0,0.0,0.0,0.0,0.0,0.0,0.0,0.0,0.0,0.0,0.0,0.0,0.0,0.0,0.0,0.0,0.0,0.0,0.0,0.0,0.0,0.0,0.0,0.0,0.0,0.0,0.0,0.0,0.0,0.0,0.0,0.0,0.0,0.0,0.0,0.0,0.0,0.0,0.0,0.0,0.0,0.0,0.0,0.0,0.0,0.0,0.0,0.0,0.0,0.0,0.0,0.0,0.0,0.0,0.0,0.0,0.0,0.0,0.0,-0.0314,-0.0403,-0.0451,-0.0736,-0.1273,-0.1755,-0.1746,-0.1546,-0.166,-0.2644,-0.2018,-0.2076,-0.4087,-0.5125,-0.5773,-0.6165,-0.6166,-0.6224,-0.6621,-0.5658,-0.4696,0.0,0.0,0.0,0.0,-0.1213,-0.1168,-0.1348,-0.1191,-0.1273,-0.157,-0.162,-0.1586,-0.1616,-0.1617,-0.1617,-0.1617,-0.1617,-0.1617,-0.1617,-0.1617,-0.1617,-0.1617,-0.1617,-0.1617,-0.1617,-0.1617,-0.1617,-0.1617,-0.1617,-0.1617,-0.1617,-0.1617,-0.1617,-0.1617,0.0,0.0,0.0,0.0,0.0,0.0,0.0,0.0,0.0,0.0,0.0,0.0,0.0,0.0,0.0,0.0,0.0,0.0,0.0,0.0,0.0,0.0,0.0,0.0,0.0,0.0,0.0,0.0,0.0,0.0,0.0,0.0,0.0,0.0,0.0,0.0,0.0,0.0,0.0,0.0,0.0,0.0,0.0,0.0,0.0,0.0,0.0,0.0,0.0,0.0,0.0,0.0,0.0,0.0,0.0,0.0,0.0,0.0,0.0,0.0,0.0,0.0,0.0,0.0,-0.0226,-0.0495,-0.0718,-0.0543,-0.0456,-0.0457,-0.0765,-0.1135,-0.1598,-0.2172,-0.364,-0.4712,-0.4826,-0.5503,-0.6002,-0.6127,-0.5391,-0.458,0.0,0.0,0.0,0.0,-0.0938,-0.0844,-0.0891,-0.1037,-0.1244,-0.157,-0.162,-0.1586,-0.1616,-0.1617,-0.1617,-0.1617,-0.1617,-0.1617,-0.1617,-0.1617,-0.1617,-0.1617,-0.1617,-0.1617,-0.1617,-0.1617,-0.1617,-0.1617,-0.1617,-0.1617,-0.1617,-0.1617,-0.1617,-0.1617,0.0,0.0,0.0,0.0,0.0,0.0,0.0,0.0,0.0,0.0,0.0,0.0,0.0,0.0,0.0,0.0,0.0,0.0,0.0,0.0,0.0,0.0,0.0,0.0,0.0,0.0,0.0,0.0,0.0,0.0,0.0,0.0,0.0,0.0,0.0,0.0,0.0,0.0,0.0,0.0,0.0,0.0,0.0,0.0,0.0,0.0,0.0,0.0,0.0,0.0,0.0,0.0,0.0,0.0,0.0,0.0,0.0,0.0,0.0,0.0,0.0,0.0,0.0,0.0,-0.0045,-0.0135,-0.0314,0.0,-0.0272,-0.0137,-0.0495,-0.0725,-0.0819,-0.081,-0.2106,-0.3224,-0.3673,-0.4235,-0.4656,-0.4656,-0.3991,0.0,0.0,-0.2285,-0.1572,-0.1144,-0.1001,-0.0861,-0.0723,-0.1014,-0.1169,-0.1241,-0.1392,-0.1399,-0.1263,-0.1465,-0.1566,-0.1415,-0.1566,-0.1617,-0.1617,-0.1617,-0.1617,-0.1617,-0.1617,-0.1617,-0.1617,-0.1617,-0.1617,-0.1617,-0.1617,-0.1617,-0.1617,-0.1617,-0.1617,-0.1617,0.0,0.0,0.0,0.0,0.0,0.0,0.0,0.0,0.0,0.0,0.0,0.0,0.0,0.0,0.0,0.0,0.0,0.0,0.0,0.0,0.0,0.0,0.0,0.0,0.0,0.0,0.0,0.0,0.0,0.0,0.0,0.0,0.0,0.0,0.0,0.0,0.0,0.0,0.0,0.0,0.0,0.0,0.0,0.0,0.0,0.0,0.0,0.0,0.0,0.0,0.0,0.0,0.0,0.0,0.0,0.0,0.0,0.0,0.0,0.0,0.0,0.0,0.0,0.0,0.0,0.0,-0.0225,0.0,-0.0584,-0.0269,-0.1077,-0.0628,-0.0135,-0.0135,-0.0853,-0.1704,-0.2598,-0.283,-0.2914,-0.2914,-0.2267,0.0,-0.2204,-0.1583,-0.1152,-0.1104,-0.1152,-0.1064,-0.0836,-0.1034,-0.1042,-0.0808,-0.101,-0.1061,-0.0859,-0.1314,-0.1465,-0.1263,-0.1465,-0.1617,-0.1617,-0.1617,-0.1617,-0.1617,-0.1617,-0.1617,-0.1617,-0.1617,-0.1617,-0.1617,-0.1617,-0.1617,-0.1617,-0.1617,-0.1617,-0.1617,0.0,0.0,0.0,0.0,0.0,0.0,0.0,0.0,0.0,0.0,0.0,0.0,0.0,0.0,0.0,0.0,0.0,0.0,0.0,0.0,0.0,0.0,0.0,0.0,0.0,0.0,0.0,0.0,0.0,0.0,0.0,0.0,0.0,0.0,0.0,0.0,0.0,0.0,0.0,0.0,0.0,0.0,0.0,0.0,0.0,0.0,0.0,0.0,0.0,0.0,0.0,0.0,0.0,0.0,0.0,0.0,0.0,0.0,0.0,0.0,0.0,0.0,0.0,0.0,0.0,0.0,-0.0045,0.0,-0.0135,-0.0045,-0.0225,-0.0763,-0.1122,-0.1122,-0.1301,-0.148,-0.1659,-0.245,-0.2977,-0.2977,-0.2391,0.0,-0.2344,-0.1448,-0.0949,-0.1149,-0.0999,-0.0851,-0.0804,-0.0854,-0.0855,-0.0808,-0.0859,-0.096,-0.1111,-0.1212,-0.1364,-0.1516,-0.1566,-0.1617,-0.1617,-0.1617,-0.1617,-0.1617,-0.1617,-0.1617,-0.1617,-0.1617,-0.1617,-0.1617,-0.1617,-0.1617,-0.1617,-0.1617,-0.1617,-0.1617,0.0,0.0,0.0,0.0,0.0,0.0,0.0,0.0,0.0,0.0,0.0,0.0,0.0,0.0,0.0,0.0,0.0,0.0,0.0,0.0,0.0,0.0,0.0,0.0,0.0,0.0,0.0,0.0,0.0,0.0,0.0,0.0,0.0,0.0,0.0,0.0,0.0,0.0,0.0,0.0,0.0,0.0,0.0,0.0,0.0,0.0,0.0,0.0,0.0,0.0,0.0,0.0,0.0,0.0,0.0,0.0,0.0,0.0,0.0,0.0,0.0,0.0,0.0,0.0,0.0,0.0,0.0,0.0,0.0,0.0,0.0,-0.0404,-0.0718,-0.0718,-0.0718,-0.0718,-0.0718,-0.1151,-0.15,-0.15,-0.1445,0.0,-0.1591,-0.1344,-0.12,-0.1212,-0.0808,-0.0606,-0.0606,-0.0606,-0.0556,-0.0404,-0.0556,-0.0606,-0.0606,-0.0859,-0.101,-0.101,-0.1162,-0.1212,-0.1212,-0.1364,-0.1415,-0.1415,-0.1566,-0.1617,-0.1617,-0.1617,-0.1617,-0.1617,-0.1617,-0.1617,-0.1617,-0.1617,-0.1617,-0.1617,0.0538,0.0539,0.0539,0.0539,0.0546,0.0549,0.054,0.0546,0.0548,0.054,0.0539,0.0539,0.0539,0.0404,0.027,0.0271,0.009,0.0,0.0,0.0,0.0,0.0,0.0,0.0,0.0,0.0,0.0,0.0,0.0,0.0,0.0,0.0,0.0,0.0,0.0,0.0,0.0,0.0,0.0,0.0,0.0,0.0,0.0,0.0,0.0,0.0,0.0,0.0,0.0,0.0,0.0,0.0,0.0,0.0,0.0,0.0,0.0,0.0,0.0,0.0,0.0,0.0,0.0,0.0,0.0,0.0,0.0,0.0,0.0,0.0,0.0,0.0,0.0,0.0,0.0,0.0,0.0,-0.0136,0.0,0.0,-0.0471,0.0,-0.0784,-0.1232,-0.1441,-0.1211,-0.0758,-0.0455,-0.0404,-0.0404,-0.0253,0.0,-0.0202,-0.0253,-0.0101,-0.0505,-0.0657,-0.0455,-0.0707,-0.0808,-0.0808,-0.101,-0.1111,-0.1111,-0.1364,-0.1465,-0.1516,-0.1516,-0.1566,-0.1617,-0.1617,-0.1617,-0.1617,-0.1617,-0.1617,-0.1617,0.2545,0.2553,0.2553,0.2553,0.2558,0.2561,0.2555,0.2558,0.2561,0.2555,0.2553,0.2553,0.2553,0.1793,0.122,0.1241,0.0499,0.0,0.0,0.0,0.0,0.0,0.0,0.0,0.0,0.0,0.0,0.0,0.0,0.0,0.0,0.0,0.0,0.0,0.0,0.0,0.0,0.0,0.0,0.0,0.0,0.0,0.0,0.0,0.0,0.0,0.0,0.0,0.0,0.0,0.0,0.0,0.0,0.0,0.0,0.0,0.0,0.0,0.0,0.0,0.0,0.0,0.0,0.0,0.0,0.0,0.0,0.0,0.0,0.0,0.0,0.0,0.0,0.0,0.0,0.0,-0.1225,-0.0534,0.0,0.0,-0.0471,0.0,0.0,-0.1047,-0.121,-0.1212,-0.0909,-0.0657,-0.0404,-0.0404,-0.0253,0.0,-0.0051,-0.0152,-0.0354,-0.0404,-0.0556,-0.0758,-0.0808,-0.0808,-0.0808,-0.0808,-0.0859,-0.0859,-0.0859,-0.101,-0.1263,-0.1263,-0.1364,-0.1617,-0.1617,-0.1617,-0.1617,-0.1617,-0.1617,-0.1617,0.2985,0.2842,0.2911,0.2911,0.2911,0.2911,0.2911,0.2911,0.2911,0.2911,0.2911,0.2688,0.2106,0.1659,0.117,0.0636,0.0226,0.0,0.0,0.0,0.0,0.0,0.0,0.0,0.0,0.0,0.0,0.0,0.0,0.0,0.0,0.0,0.0,0.0,0.0,0.0,0.0,0.0,0.0,0.0,0.0,0.0,0.0,0.0,0.0,0.0,0.0,0.0,0.0,0.0,0.0,0.0,0.0,0.0,0.0,0.0,0.0,0.0,0.0,0.0,0.0,0.0,0.0,0.0,0.0,0.0,0.0,0.0,0.0,0.0,0.0,0.0,0.0,0.0,-0.058,0.0,0.0,0.0,0.0,0.0,0.0,0.0,0.0,0.0,0.0,0.0,-0.0599,-0.0302,-0.0149,-0.0151,-0.0101,0.0,0.0,-0.0051,-0.0152,-0.0152,-0.0202,-0.0354,-0.0354,-0.0354,-0.0354,-0.0505,-0.0556,-0.0556,-0.0758,-0.0859,-0.096,-0.096,-0.101,-0.1111,-0.1111,-0.1314,-0.1617,-0.1617,-0.1617,-0.1617,0.369,0.3559,0.3673,0.3673,0.3673,0.3673,0.3673,0.3673,0.3673,0.3673,0.3673,0.3403,0.2643,0.2386,0.1993,0.1276,0.0999,0.0726,0.0456,0.0407,0.0269,0.0,0.0,0.0,0.0,0.0,0.0,0.0,0.0,0.0,0.0,0.0,0.0,0.0,0.0,0.0,0.0,0.0,0.0,0.0,0.0,0.0,0.0,0.0,0.0,0.0,0.0,0.0,0.0,0.0,0.0,0.0,0.0,0.0,0.0,0.0,0.0,0.0,0.0,0.0,0.0,0.0,0.0,0.0,0.0,0.0,0.0,0.0,0.0,0.0,0.0,0.0,0.0,0.0,0.0,0.0,0.0,0.0,0.0,0.0,0.0,0.0,0.0,0.0,0.0,-0.0668,-0.0245,0.0,0.0,0.0,0.0,0.0,0.0,0.0,0.0,0.0,0.0,0.0,0.0,0.0,0.0,-0.0202,-0.0303,-0.0303,-0.0505,-0.0606,-0.0707,-0.0707,-0.0758,-0.0808,-0.0808,-0.1061,-0.1364,-0.1364,-0.1415,-0.1465,0.5308,0.548,0.5599,0.5599,0.5599,0.5599,0.5599,0.5599,0.5599,0.5599,0.5599,0.5599,0.5555,0.4872,0.441,0.4356,0.3447,0.2509,0.1613,0.1421,0.0942,0.0045,0.0,0.0,0.0,0.0,0.0,0.0,0.0,0.0,0.0,0.0,0.0,0.0,0.0,0.0,0.0,0.0,0.0,0.0,0.0,0.0,0.0,0.0,0.0,0.0,0.0,0.0,0.0,0.0,0.0,0.0,0.0,0.0,0.0,0.0,0.0,0.0,0.0,0.0,0.0,0.0,0.0,0.0,0.0,0.0,0.0,0.0,0.0,0.0,0.0,0.0,0.0,0.0,0.0,0.0,0.0,0.0,0.0,0.0,0.0,0.0,0.0,0.0,-0.039,-0.043,-0.0143,0.0,0.0,0.0,0.0,0.0,0.0,0.0,0.0,0.0,0.0,0.0,0.0,0.0,0.0,0.0,0.0,0.0,0.0,-0.0152,-0.0404,-0.0404,-0.0556,-0.0808,-0.0808,-0.0808,-0.0808,-0.0808,-0.101,-0.1162,0.5385,0.5502,0.5594,0.5675,0.5688,0.5688,0.5688,0.5688,0.5715,0.5836,0.5844,0.5646,0.5118,0.478,0.4387,0.3705,0.3306,0.2956,0.2565,0.1888,0.1364,0.0943,0.0314,0.0,0.0,0.0,0.0,0.0,0.0,0.0,0.0,0.0,0.0,0.0,0.0,0.0,0.0,0.0,0.0,0.0,0.0,0.0,0.0,0.0,0.0,0.0,0.0,0.0,0.0,0.0,0.0,0.0,0.0,0.0,0.0,0.0,0.0,0.0,0.0,0.0,0.0,0.0,0.0,0.0,0.0,0.0,0.0,0.0,0.0,0.0,0.0,0.0,0.0,0.0,0.0,0.0,0.0,0.0,0.0,0.0,0.0,0.0,0.0,0.0,0.0,-0.0413,-0.0141,0.0,0.0,0.0,0.0,0.0,0.0,0.0,0.0,0.0,0.0,0.0,0.0,0.0,0.0,0.0,0.0,0.0,0.0,-0.0051,-0.0152,-0.0152,-0.0202,-0.0253,-0.0253,-0.0404,-0.0556,-0.0758,-0.0859,-0.0909,0.5385,0.5431,0.5494,0.5659,0.5688,0.5688,0.5688,0.5723,0.582,0.5893,0.5942,0.5764,0.5268,0.526,0.4995,0.4371,0.4323,0.4096,0.364,0.303,0.2488,0.1974,0.1039,0.0543,0.0494,0.018,0.0,0.0,0.0,0.0,0.0,0.0,0.0,0.0,0.0,0.0,0.0,0.0,0.0,0.0,0.0,0.0,0.0,0.0,0.0,0.0,0.0,0.0,0.0,0.0,0.0,0.0,0.0,0.0,0.0,0.0,0.0,0.0,0.0,0.0,0.0,0.0,0.0,0.0,0.0,0.0,0.0,0.0,0.0,0.0,0.0,0.0,0.0,0.0,0.0,0.0,0.0,-0.0368,0.0,0.0,-0.048,-0.0526,0.0,0.0,-0.0234,-0.027,-0.0092,0.0,0.0,0.0,0.0,0.0,0.0,0.0,0.0,0.0,0.0,0.0,0.0,0.0,0.0,0.0,0.0,0.0,0.0,0.0,0.0,0.0,0.0,0.0,0.0,-0.0101,-0.0303,-0.0455,-0.0505,-0.0505,0.5385,0.5421,0.5461,0.5648,0.5683,0.5683,0.5688,0.5831,0.5907,0.5912,0.6018,0.6097,0.6102,0.6206,0.6325,0.6325,0.6325,0.5884,0.486,0.4711,0.421,0.3011,0.2148,0.1601,0.1391,0.0539,0.0045,0.0,0.0,0.0,0.0,0.0,0.0,0.0,0.0,0.0,0.0,0.0,0.0,0.0,0.0,0.0,0.0,0.0,0.0,0.0,0.0,0.0,0.0,0.0,0.0,0.0,0.0,0.0,0.0,0.0,0.0,0.0,0.0,0.0,0.0,0.0,0.0,0.0,0.0,0.0,0.0,0.0,0.0,0.0,0.0,0.0,0.0,0.0,0.0,0.0,0.0,-0.0233,-0.0381,0.0,-0.0631,-0.0682,-0.043,-0.0143,0.0,0.0,0.0,0.0,0.0,0.0,0.0,0.0,0.0,0.0,0.0,0.0,0.0,0.0,0.0,0.0,0.0,0.0,0.0,0.0,0.0,0.0,0.0,0.0,0.0,0.0,0.0,0.0,0.0,0.0,0.0,0.0,0.5385,0.5515,0.5659,0.5677,0.5613,0.5583,0.5675,0.5831,0.5934,0.6026,0.6146,0.6252,0.6336,0.6374,0.6393,0.6393,0.6393,0.6246,0.5886,0.5199,0.4583,0.4126,0.3174,0.224,0.1436,0.1166,0.0718,0.0,0.0,0.0,0.0,0.0,0.0,0.0,0.0,0.0,0.0,0.0,0.0,0.0,0.0,0.0,0.0,0.0,0.0,0.0,0.0,0.0,0.0,0.0,0.0,0.0,0.0,0.0,0.0,0.0,0.0,0.0,0.0,0.0,0.0,0.0,0.0,0.0,0.0,0.0,0.0,0.0,0.0,0.0,0.0,0.0,0.0,0.0,0.0,0.0,0.0,-0.0235,-0.0381,-0.0381,-0.0437,-0.0487,-0.043,-0.0143,0.0,0.0,0.0,0.0,0.0,0.0,0.0,0.0,0.0,0.0,0.0,0.0,0.0,0.0,0.0,0.0,0.0,0.0,0.0,0.0,0.0,0.0,0.0,0.0,0.0,0.0,0.0,0.0,0.0,0.0,0.0,0.0,0.5396,0.5523,0.5626,0.568,0.5632,0.5626,0.5745,0.586,0.5947,0.607,0.624,0.6293,0.6358,0.6407,0.6387,0.6387,0.6387,0.6366,0.62,0.5749,0.532,0.5017,0.4129,0.3153,0.2062,0.1614,0.0942,0.0,0.0,0.0,0.0,0.0,0.0,0.0,0.0,0.0,0.0,0.0,0.0,0.0,0.0,0.0,0.0,0.0,0.0,0.0,0.0,0.0,0.0,0.0,0.0,0.0,0.0,0.0,0.0,0.0,0.0,0.0,0.0,0.0,0.0,0.0,0.0,0.0,0.0,0.0,0.0,0.0,0.0,0.0,0.0,0.0,0.0,0.0,0.0,0.0,0.0,-0.0238,-0.0386,-0.0386,-0.0393,0.0,-0.0382,-0.0142,0.0,0.0,0.0,0.0,0.0,0.0,0.0,0.0,0.0,0.0,0.0,0.0,0.0,0.0,0.0,0.0,0.0,0.0,0.0,0.0,0.0,0.0,0.0,0.0,0.0,0.0,0.0,0.0,0.0,0.0,0.0,0.0,0.5393,0.5504,0.558,0.5675,0.5702,0.575,0.5909,0.5939,0.0,0.6094,0.0,0.629,0.629,0.6377,0.6381,0.6365,0.6379,0.6336,0.6102,0.6248,0.6116,0.5726,0.4933,0.4019,0.2914,0.1928,0.0942,0.0,0.0,0.0,0.0,0.0,0.0,0.0,0.0,0.0,0.0,0.0,0.0,0.0,0.0,0.0,0.0,0.0,0.0,0.0,0.0,0.0,0.0,0.0,0.0,0.0,0.0,0.0,0.0,0.0,0.0,0.0,0.0,0.0,0.0,0.0,0.0,0.0,0.0,0.0,0.0,0.0,0.0,0.0,0.0,0.0,0.0,0.0,0.0,0.0,0.0,-0.0194,-0.0344,-0.0344,0.0,0.0,0.0,0.0,0.0,0.0,0.0,0.0,0.0,0.0,0.0,0.0,0.0,0.0,0.0,0.0,0.0,0.0,0.0,0.0,0.0,0.0,0.0,0.0,0.0,0.0,0.0,0.0,0.0,0.0,0.0,0.0,0.0,0.0,0.0,0.0,0.5475,0.5648,0.5817,0.5702,0.5812,0.5915,0.6034,0.614,0.6259,0.6281,0.6336,0.6407,0.6407,0.6376,0.6399,0.6306,0.6382,0.0,0.0,0.0,0.0,0.5885,0.497,0.4019,0.2914,0.1928,0.0942,0.0,0.0,0.0,0.0,0.0,0.0,0.0,0.0,0.0,0.0,0.0,0.0,0.0,0.0,0.0,0.0,0.0,0.0,0.0,0.0,0.0,0.0,0.0,0.0,0.0,0.0,0.0,0.0,0.0,0.0,0.0,0.0,0.0,0.0,0.0,0.0,0.0,0.0,0.0,0.0,0.0,0.0,0.0,0.0,0.0,0.0,0.0,0.0,0.0,0.0,0.0,-0.0049,-0.0049,-0.0049,-0.0049,0.0,0.0,0.0,0.0,0.0,0.0,0.0,0.0,0.0,0.0,0.0,0.0,0.0,0.0,0.0,0.0,0.0,0.0,0.0,0.0,0.0,0.0,0.0,0.0,0.0,0.0,0.0,0.0,0.0,0.0,0.0,0.0,0.0,0.0,0.5814,0.5869,0.5907,0.5915,0.5961,0.0,0.0,0.6279,0.6333,0.6325,0.6317,0.635,0.635,0.6401,0.6365,0.6361,0.635,0.6274,0.6097,0.6081,0.5999,0.5822,0.536,0.4658,0.3628,0.3135,0.2464,0.1525,0.0,0.0,0.0718,0.0,0.0,0.0,0.0,0.0,0.0,0.0,0.0,0.0,0.0,0.0,0.0,0.0,0.0,0.0,0.0,0.0,0.0,0.0,0.0,0.0,0.0,0.0,0.0,0.0,0.0,0.0,0.0,0.0,0.0,0.0,0.0,0.0,0.0,0.0,0.0,0.0,0.0,0.0,0.0,0.0,0.0,0.0,0.0,0.0,0.0,0.0,0.0,0.0,0.0,0.0,0.0,0.0,0.0,0.0,0.0,0.0,0.0,0.0,0.0,0.0,0.0,0.0,0.0,0.0,0.0,0.0,0.0,0.0,0.0,0.0,0.0,0.0,0.0,0.0,0.0,0.0,0.0,0.0,0.0,0.0,0.0,0.0,0.0,0.0,0.6072,0.6029,0.6002,0.6072,0.6108,0.6157,0.6303,0.6363,0.6404,0.6317,0.6306,0.6306,0.6306,0.6382,0.6376,0.6401,0.632,0.6254,0.6056,0.5956,0.5852,0.5694,0.5508,0.506,0.43,0.4119,0.3628,0.0,0.0,0.0,0.0,0.0,0.0,0.0,0.0,0.0,0.0,0.0,0.0,0.0,0.0,0.0,0.0,0.0,0.0,0.0,0.0,0.0,0.0,0.0,0.0,0.0,0.0,0.0,0.0,0.0,0.0,0.0,0.0,0.0,0.0,0.0,0.0,0.0,0.0,0.0,0.0,0.0,0.0,0.0,0.0,0.0,0.0,0.0,0.0,0.0,0.0,0.0,0.0,0.0,0.0,0.0,0.0,0.0,0.0,0.0,0.0,0.0,0.0,0.0,0.0,0.0,0.0,0.0,0.0,0.0,0.0,0.0,0.0,0.0,0.0,0.0,0.0,0.0,0.0,0.0,0.0,0.0,0.0,0.0,0.0,0.0,0.0,0.0,0.0,0.0,0.6105,0.6165,0.6251,0.0,0.0,0.6306,0.6317,0.6363,0.6381,0.6373,0.6371,0.6371,0.6371,0.6379,0.6396,0.6293,0.6322,0.6168,0.5934,0.5909,0.5852,0.5694,0.4882,0.4389,0.43,0.3449,0.3001,0.0,0.0,0.151,0.0,0.0,0.0,0.0,0.0,0.0,0.0,0.0,0.0,0.0,0.0,0.0,0.0,0.0,0.0,0.0,0.0,0.0,0.0,0.0,0.0,0.0,0.0,0.0,0.0,0.0,0.0,0.0,0.0,0.0,0.0,0.0,0.0,0.0,0.0,0.0,0.0,0.0,0.0,0.0,0.0,0.0,0.0,0.0,0.0,0.0,0.0,0.0,0.0,0.0,0.0,0.0,0.0,0.0,0.0,0.0,0.0,0.0,0.0,0.0,0.0,0.0,0.0,0.0,0.0,0.0,0.0,0.0,0.0,0.0,0.0,0.0,0.0,0.0,0.0,0.0,0.0,0.0,0.0,0.0,0.0,0.0,0.0,0.0,0.0,0.0,0.0,0.0,0.0,0.0,0.0,0.0,0.0,0.6407,0.6387,0.6387,0.6377,0.6361,0.6379,0.6309,0.6238,0.6314,0.6132,0.6007,0.5909,0.5839,0.5737,0.5691,0.5329,0.5151,0.5151,0.4792,0.4567,0.0,0.0,0.0,0.0,0.0,0.0,0.0,0.0,0.0,0.0,0.0,0.0,0.0,0.0,0.0,0.0,0.0,0.0,0.0,0.0,0.0,0.0,0.0,0.0,0.0,0.0,0.0,0.0,0.0,0.0,0.0,0.0,0.0,0.0,0.0,0.0,0.0,0.0,0.0,0.0,0.0,0.0,0.0,0.0,0.0,0.0,0.0,0.0,0.0,0.0,0.0,0.0,0.0,0.0,0.0,0.0,0.0,0.0,0.0,0.0,0.0,0.0,0.0,0.0,0.0,0.0,0.0,0.0,0.0,0.0,0.0,0.0,0.0,0.0,0.0,0.0,0.0,0.0,0.0,0.0,0.0,0.0,0.0,0.0,0.0,0.0,0.0,0.0,0.0,0.6387,0.0,0.6342,0.0,0.6372,0.6344,0.6373,0.6387,0.6387,0.6387,0.6339,0.6298,0.638,0.6206,0.6121,0.6254,0.6024,0.5904,0.5904,0.5753,0.5688,0.5688,0.5688,0.0,0.5688,0.5688,0.5688,0.5688,0.4748,0.0,0.0,0.0,0.0,0.0,0.0,0.0,0.0,0.0,0.0,0.0,0.0,0.0,0.0,0.0,0.0,0.0,0.0,0.0,0.0,0.0,0.0,0.0,0.0,0.0,0.0,0.0,0.0,0.0,0.0,0.0,0.0,0.0,0.0,0.0,0.0,0.0,0.0,0.0,0.0,0.0,0.0,0.0,0.0,0.0,0.0,0.0,0.0,0.0,0.0,0.0,0.0,0.0,0.0,0.0,0.0,0.0,0.0,0.0,0.0,0.0,0.0,0.0,0.0,0.0,0.0,0.0,0.0,0.0,0.0,0.0,0.0,0.0,0.0,0.0,0.0,0.0,0.0,0.0,0.0,0.0,0.0,0.0,0.0,0.0,0.0,0.0,0.6387,0.6384,0.6384,0.6387,0.6384,0.6384,0.6387,0.6387,0.6387,0.6387,0.6339,0.6317,0.632,0.6159,0.6086,0.6086,0.5975,0.5904,0.5904,0.5753,0.5688,0.0,0.0,0.5688,0.5688,0.5688,0.5688,0.5688,0.0,0.0,0.4251,0.0,0.0879,0.0,0.0,0.0,0.0,0.0,0.0,0.0,0.0,0.0,0.0,0.0,0.0,0.0,0.0,0.0,0.0,0.0,0.0,0.0,0.0,0.0,0.0,0.0,0.0,0.0,0.0,0.0,0.0,0.0,0.0,0.0,0.0,0.0,0.0,0.0,0.0,0.0,0.0,0.0,0.0,0.0,0.0,0.0,0.0,0.0,0.0,0.0,0.0,0.0,0.0,0.0,0.0,0.0,0.0,0.0,0.0,0.0,0.0,0.0,0.0,0.0,0.0,0.0,0.0,0.0,0.0,0.0,0.0,0.0,0.0,0.0,0.0,0.0,0.0,0.0,0.0,0.0,0.0,0.0,0.0,0.0,0.0,0.0,0.6387,0.6387,0.6387,0.6387,0.6387,0.6387,0.6387,0.6387,0.6387,0.6387,0.6339,0.6317,0.6317,0.6083,0.5961,0.0,0.5855,0.5742,0.0,0.571,0.5688,0.5688,0.5688,0.5688,0.5688,0.5688,0.5688,0.5688,0.0,0.0,0.0,0.1996,0.1248,0.0942,0.0269,0.0,0.0,0.0,0.0,0.0,0.0,0.0,0.0,0.0,0.0,0.0,0.0,0.0,0.0,0.0,0.0,0.0,0.0,0.0,0.0,0.0,0.0,0.0,0.0,0.0,0.0,0.0,0.0,0.0,0.0,0.0,0.0,0.0,0.0,0.0,0.0,0.0,0.0,0.0,0.0,0.0,0.0,0.0,0.0,0.0,0.0,0.0,0.0,0.0,0.0,0.0,0.0,0.0,0.0,0.0,0.0,0.0,0.0,0.0,0.0,0.0,0.0,0.0,0.0,0.0,0.0,0.0,0.0,0.0,0.0,0.0,0.0,0.0,0.0,0.0,0.0,0.0,0.0,0.0,0.0,0.0,0.6387,0.6387,0.6387,0.6387,0.6387,0.6387,0.6387,0.6387,0.6387,0.6387,0.6374,0.6317,0.6322,0.6132,0.0,0.5912,0.5798,0.5688,0.5688,0.5688,0.5688,0.5688,0.5688,0.5688,0.5688,0.5688,0.0,0.5688,0.5104,0.4344,0.3403,0.2778,0.2107,0.139,0.0808,0.0314,0.0,0.0,0.0,0.0,0.0,0.0,0.0,0.0,0.0,0.0,0.0,0.0,0.0,0.0,0.0,0.0,0.0,0.0,0.0,0.0,0.0,0.0,0.0,0.0,0.0,0.0,0.0,0.0,0.0,0.0,0.0,0.0,0.0,0.0,0.0,0.0,0.0,0.0,0.0,0.0,0.0,0.0,0.0,0.0,0.0,0.0,0.0,0.0,0.0,0.0,0.0,0.0,0.0,0.0,0.0,0.0,0.0,0.0,0.0,0.0,0.0,0.0,0.0,0.0,0.0,0.0,0.0,0.0,0.0,0.0,0.0,0.0,0.0,0.0,0.0,0.0,0.0,0.0,0.0,0.0,0.6387,0.6387,0.6387,0.0,0.6387,0.0,0.6387,0.6387,0.6387,0.6387,0.6387,0.6396,0.629,0.6314,0.6165,0.5934,0.0,0.0,0.0,0.5688,0.5688,0.5688,0.5688,0.5688,0.5688,0.5688,0.5688,0.5688,0.5688,0.524,0.4389,0.4344,0.3314,0.148,0.1436,0.0898,0.0,0.0,0.0,0.0,0.0,0.0,0.0,0.0,0.0,0.0,0.0,0.0,0.0,0.0,0.0,0.0,0.0,0.0,0.0,0.0,0.0,0.0,0.0,0.0,0.0,0.0,0.0,0.0,0.0,0.0,0.0,0.0,0.0,0.0,0.0,0.0,0.0,0.0,0.0,0.0,0.0,0.0,0.0,0.0,0.0,0.0,0.0,0.0,0.0,0.0,0.0,0.0,0.0,0.0,0.0,0.0,0.0,0.0,0.0,0.0,0.0,0.0,0.0,0.0,0.0,0.0,0.0,0.0,0.0,0.0,0.0,0.0,0.0,0.0,0.0,0.0,0.0,0.0,0.0,0.0,0.0,0.0,0.6387,0.6387,0.6387,0.6387,0.6387,0.6387,0.6387,0.6387,0.6387,0.6376,0.6399,0.6236,0.6105,0.6048,0.5931,0.5825,0.5694,0.5688,0.5688,0.5688,0.5688,0.5688,0.5688,0.5688,0.5688,0.5688,0.5688,0.5599,0.5374,0.4612,0.3673,0.251,0.1749,0.0898,0.0,0.0,0.0,0.0,0.0,0.0,0.0,0.0,0.0,0.0,0.0,0.0,0.0,0.0,0.0,0.0,0.0,0.0,0.0,0.0,0.0,0.0,0.0,0.0,0.0,0.0,0.0,0.0,0.0,0.0,0.0,0.0,0.0,0.0,0.0,0.0,0.0,0.0,0.0,0.0,0.0,0.0,0.0,0.0,0.0,0.0,0.0,0.0,0.0,0.0,0.0,0.0,0.0,0.0,0.0,0.0,0.0,0.0,0.0,0.0,0.0,0.0,0.0,0.0,0.0,0.0,0.0,0.0,0.0,0.0,0.0,0.0,0.0,0.0,0.0,0.0,0.0,0.0,0.0,0.0,0.6387,0.6387,0.6387,0.6387,0.6387,0.6387,0.6387,0.6387,0.6387,0.6387,0.6387,0.6387,0.6387,0.6323,0.6203,0.6094,0.5926,0.5801,0.5694,0.5688,0.5688,0.5688,0.5688,0.5688,0.5688,0.5688,0.5688,0.5688,0.5688,0.5688,0.5688,0.5196,0.4433,0.3494,0.2509,0.1524,0.0629,0.018,0.0,0.0,0.0,0.0,0.0,0.0,0.0,0.0,0.0,0.0,0.0,0.0,0.0,0.0,0.0,0.0,0.0,0.0,0.0,0.0,0.0,0.0,0.0,0.0,0.0,0.0,0.0,0.0,0.0,0.0,0.0,0.0,0.0,0.0,0.0,0.0,0.0,0.0,0.0,0.0,0.0,0.0,0.0,0.0,0.0,0.0,0.0,0.0,0.0,0.0,0.0,0.0,0.0,0.0,0.0,0.0,0.0,0.0,0.0,0.0,0.0,0.0,0.0,0.0,0.0,0.0,0.0,0.0,0.0,0.0,0.0,0.0,0.0,0.0,0.0,0.0,0.0,0.0,0.6387,0.6387,0.6387,0.6387,0.6387,0.6387,0.6387,0.6387,0.6387,0.6387,0.6387,0.6387,0.6387,0.6371,0.6323,0.6105,0.5885,0.5707,0.5691,0.5688,0.5688,0.5688,0.5688,0.5688,0.5688,0.5688,0.5688,0.5688,0.5688,0.5688,0.5688,0.5688,0.5196,0.4253,0.3449,0.2465,0.1345,0.0539,0.0135,0.0,0.0,0.0,0.0,0.0,0.0,0.0,0.0,0.0,0.0,0.0,0.0,0.0,0.0,0.0,0.0,0.0,0.0,0.0,0.0,0.0,0.0,0.0,0.0,0.0,0.0,0.0,0.0,0.0,0.0,0.0,0.0,0.0,0.0,0.0,0.0,0.0,0.0,0.0,0.0,0.0,0.0,0.0,0.0,0.0,0.0,0.0,0.0,0.0,0.0,0.0,0.0,0.0,0.0,0.0,0.0,0.0,0.0,0.0,0.0,0.0,0.0,0.0,0.0,0.0,0.0,0.0,0.0,0.0,0.0,0.0,0.0,0.0,0.0,0.0,0.0,0.0,0.6387,0.6387,0.6387,0.6387,0.6387,0.6387,0.6387,0.6387,0.6387,0.6387,0.6387,0.6387,0.6387,0.635,0.6238,0.61,0.5958,0.5836,0.5694,0.5688,0.5688,0.5688,0.5688,0.5688,0.5688,0.5688,0.5688,0.5688,0.5688,0.5688,0.5688,0.5688,0.5196,0.43,0.4164,0.309,0.1391,0.1256,0.0718,0.0,0.0,0.0,0.0,0.0,0.0,0.0,0.0,0.0,0.0,0.0,0.0,0.0,0.0,0.0,0.0,0.0,0.0,0.0,0.0,0.0,0.0,0.0,0.0,0.0,0.0,0.0,0.0,0.0,0.0,0.0,0.0,0.0,0.0,0.0,0.0,0.0,0.0,0.0,0.0,0.0,0.0,0.0,0.0,0.0,0.0,0.0,0.0,0.0,0.0,0.0,0.0,0.0,0.0,0.0,0.0,0.0,0.0,0.0,0.0,0.0,0.0,0.0,0.0,0.0,0.0,0.0,0.0,0.0,0.0,0.0,0.0,0.0,0.0,0.0,0.0,0.0,0.6387,0.6387,0.6387,0.6387,0.6387,0.6387,0.6387,0.6387,0.6387,0.6387,0.6387,0.6363,0.6352,0.6298,0.624,0.6005,0.5934,0.5855,0.5696,0.5688,0.5688,0.5688,0.5688,0.5688,0.5688,0.5688,0.5688,0.5688,0.5688,0.5688,0.5688,0.5688,0.5466,0.5015,0.4523,0.3537,0.2152,0.1614,0.0853,0.0,0.0,0.0,0.0,0.0,0.0,0.0,0.0,0.0,0.0,0.0,0.0,0.0,0.0,0.0,0.0,0.0,0.0,0.0,0.0,0.0,0.0,0.0,0.0,0.0,0.0,0.0,0.0,0.0,0.0,0.0,0.0,0.0,0.0,0.0,0.0,0.0,0.0,0.0,0.0,0.0,0.0,0.0,0.0,0.0,0.0,0.0,0.0,0.0,0.0,0.0,0.0,0.0,0.0,0.0,0.0,0.0,0.0,0.0,0.0,0.0,0.0,0.0,0.0,0.0,0.0,0.0,0.0,0.0,0.0,0.0,0.0,0.0,0.0,0.0,0.0,0.0,0.6381,0.6387,0.6387,0.6387,0.6387,0.6387,0.6387,0.6387,0.6387,0.6387,0.6365,0.6366,0.6328,0.6292,0.614,0.592,0.5904,0.5855,0.5696,0.5688,0.5688,0.5688,0.5688,0.5688,0.5688,0.5688,0.5688,0.5688,0.5688,0.5688,0.5688,0.5688,0.5688,0.5688,0.4926,0.4119,0.3179,0.2419,0.1391,0.0314,0.0314,0.018,0.0,0.0,0.0,0.0,0.0,0.0,0.0,0.0,0.0,0.0,0.0,0.0,0.0,0.0,0.0,0.0,0.0,0.0,0.0,0.0,0.0,0.0,0.0,0.0,0.0,0.0,0.0,0.0,0.0,0.0,0.0,0.0,0.0,0.0,0.0,0.0,0.0,0.0,0.0,0.0,0.0,0.0,0.0,0.0,0.0,0.0,0.0,0.0,0.0,0.0,0.0,0.0,0.0,0.0,0.0,0.0,0.0,0.0,0.0,0.0,0.0,0.0,0.0,0.0,0.0,0.0,0.0,0.0,0.0,0.0,0.0,0.0,0.0,0.0,0.6365,0.6387,0.6387,0.6387,0.6387,0.6387,0.6387,0.6387,0.6387,0.6387,0.6344,0.6328,0.632,0.6168,0.6045,0.5915,0.5904,0.5855,0.5696,0.5688,0.5688,0.5688,0.5688,0.5688,0.5688,0.5688,0.5688,0.5688,0.5688,0.5688,0.5688,0.5688,0.5688,0.5688,0.5644,0.506,0.421,0.4119,0.3001,0.1301,0.1301,0.0763,0.0,0.0,0.0,0.0,0.0,0.0,0.0,0.0,0.0,0.0,0.0,0.0,0.0,0.0,0.0,0.0,0.0,0.0,0.0,0.0,0.0,0.0,0.0,0.0,0.0,0.0,0.0,0.0,0.0,0.0,0.0,0.0,0.0,0.0,0.0,0.0,0.0,0.0,0.0,0.0,0.0,0.0,0.0,0.0,0.0,0.0,0.0,0.0,0.0,0.0,0.0,0.0,0.0,0.0,0.0,0.0,0.0,0.0,0.0,0.0,0.0,0.0,0.0,0.0,0.0,0.0,0.0,0.0,0.0,0.0,0.0,0.0,0.0,0.0,0.6309,0.6333,0.6352,0.6373,0.6387,0.6387,0.6387,0.6387,0.6387,0.6387,0.6399,0.6317,0.617,0.6113,0.6007,0.5814,0.5798,0.5734,0.5691,0.5688,0.5688,0.5688,0.5688,0.5688,0.5688,0.5688,0.5688,0.5688,0.5688,0.5688,0.5688,0.5688,0.5688,0.5688,0.5688,0.5196,0.43,0.43,0.3179,0.1391,0.1391,0.0853,0.0,0.0,0.0,0.0,0.0,0.0,0.0,0.0,0.0,0.0,0.0,0.0,0.0,0.0,0.0,0.0,0.0,0.0,0.0,0.0,0.0,0.0,0.0,0.0,0.0,0.0,0.0,0.0,0.0,0.0,0.0,0.0,0.0,0.0,0.0,0.0,0.0,0.0,0.0,0.0,0.0,0.0,0.0,0.0,0.0,0.0,0.0,0.0,0.0,0.0,0.0,0.0,0.0,0.0,0.0,0.0,0.0,0.0,0.0,0.0,0.0,0.0,0.0,0.0,0.0,0.0,0.0,0.0,0.0,0.0,0.0,0.0,0.0,0.0,0.6288,0.6386,0.6436,0.6468,0.6512,0.6537,0.6637,0.6589,0.6537,0.6637,0.6653,0.6499,0.6247,0.6225,0.6081,0.5754,0.5721,0.5726,0.5691,0.5688,0.5688,0.5688,0.5688,0.5688,0.5688,0.5688,0.5688,0.5688,0.5688,0.5688,0.5688,0.5688,0.5688,0.5688,0.5688,0.5329,0.4748,0.4748,0.3628,0.1883,0.1883,0.1122,0.0,0.0,0.0,0.0,0.0,0.0,0.0,0.0,0.0,0.0,0.0,0.0,0.0,0.0,0.0,0.0,0.0,0.0,0.0,0.0,0.0,0.0,0.0,0.0,0.0,0.0,0.0,0.0,0.0,0.0,0.0,0.0,0.0,0.0,0.0,0.0,0.0,0.0,0.0,0.0,0.0,0.0,0.0,0.0,0.0,0.0,0.0,0.0,0.0,0.0,0.0,0.0,0.0,0.0,0.0,0.0,0.0,0.0,0.0,0.0,0.0,0.0,0.0,0.0,0.0,0.0,0.0,0.0,0.0,0.0,0.0,0.0,0.0,0.0,0.6364,0.6562,0.67,0.6703,0.6758,0.6892,0.7138,0.6992,0.6892,0.7188,0.7119,0.6933,0.6567,0.6502,0.6264,0.5754,0.5836,0.5852,0.5696,0.5688,0.5688,0.5688,0.5688,0.5688,0.5688,0.5688,0.5688,0.5688,0.5688,0.5688,0.5688,0.5688,0.5688,0.5688,0.5688,0.5688,0.5688,0.5688,0.4612,0.2911,0.2911,0.1749,0.0,0.0,0.0,0.0,0.0,0.0,0.0,0.0,0.0,0.0,0.0,0.0,0.0,0.0,0.0,0.0,0.0,0.0,0.0,0.0,0.0,0.0,0.0,0.0,0.0,0.0,0.0,0.0,0.0,0.0,0.0,0.0,0.0,0.0,0.0,0.0,0.0,0.0,0.0,0.0,0.0,0.0,0.0,0.0,0.0,0.0,0.0,0.0,0.0,0.0,0.0,0.0,0.0,0.0,0.0,0.0,0.0,0.0,0.0,0.0,0.0,0.0,0.0,0.0,0.0,0.0,0.0,0.0,0.0,0.0,0.0,0.0,0.0,0.0,0.6861,0.6958,0.7015,0.7063,0.7065,0.7089,0.7188,0.7138,0.7089,0.7188,0.7122,0.6894,0.652,0.643,0.6176,0.5746,0.5721,0.5726,0.5691,0.5688,0.5688,0.5688,0.5688,0.5688,0.5688,0.5688,0.5688,0.5688,0.5688,0.5688,0.5688,0.5688,0.5688,0.5688,0.5688,0.5688,0.5688,0.5688,0.5015,0.3896,0.3896,0.2732,0.1077,0.1749,0.1166,0.009,0.0763,0.0539,0.0,0.0,0.0,0.0,0.0,0.0,0.0,0.0,0.0,0.0,0.0,0.0,0.0,0.0,0.0,0.0,0.0,0.0,0.0,0.0,0.0,0.0,0.0,0.0,0.0,0.0,0.0,0.0,0.0,0.0,0.0,0.0,0.0,0.0,0.0,0.0,0.0,0.0,0.0,0.0,0.0,0.0,0.0,0.0,0.0,0.0,0.0,0.0,0.0,0.0,0.0,0.0,0.0,0.0,0.0,0.0,0.0,0.0,0.0,0.0,0.0,0.0,0.0,0.0,0.0,0.0,0.0,0.0,0.7095,0.7193,0.7259,0.7294,0.7353,0.7391,0.7487,0.7441,0.7391,0.7487,0.7467,0.7265,0.6933,0.68,0.654,0.6133,0.5936,0.5863,0.5863,0.5777,0.5688,0.5688,0.5688,0.5688,0.5688,0.5688,0.5688,0.5688,0.5688,0.5688,0.5688,0.5688,0.5688,0.5688,0.5688,0.5688,0.5688,0.5688,0.5151,0.43,0.43,0.3358,0.2062,0.2689,0.1928,0.0629,0.1211,0.0808,0.0,0.0,0.0,0.0,0.0,0.0,0.0,0.0,0.0,0.0,0.0,0.0,0.0,0.0,0.0,0.0,0.0,0.0,0.0,0.0,0.0,0.0,0.0,0.0,0.0,0.0,0.0,0.0,0.0,0.0,0.0,0.0,0.0,0.0,0.0,0.0,0.0,0.0,0.0,0.0,0.0,0.0,0.0,0.0,0.0,0.0,0.0,0.0,0.0,0.0,0.0,0.0,0.0,0.0,0.0,0.0,0.0,0.0,0.0,0.0,0.0,0.0,0.0,0.0,0.0,0.0,0.0,0.0,0.7276,0.7407,0.7547,0.7547,0.7609,0.7693,0.7942,0.7793,0.7746,0.7992,0.7978,0.7868,0.7544,0.7408,0.719,0.6707,0.629,0.6083,0.6083,0.5822,0.5688,0.5688,0.5688,0.5688,0.5688,0.5688,0.5688,0.5688,0.5688,0.5688,0.5688,0.5688,0.5688,0.5688,0.5688,0.5688,0.5688,0.5699,0.5203,0.4433,0.4442,0.3859,0.3045,0.3135,0.2465,0.1524,0.1524,0.0942,0.009,0.0045,0.0,0.0,0.0,0.0,0.0,0.0,0.0,0.0,0.0,0.0,0.0,0.0,0.0,0.0,0.0,0.0,0.0,0.0,0.0,0.0,0.0,0.0,0.0,0.0,0.0,0.0,0.0,0.0,0.0,0.0,0.0,0.0,0.0,0.0,0.0,0.0,0.0,0.0,0.0,0.0,0.0,0.0,0.0,0.0,0.0,0.0,0.0,0.0,0.0,0.0,0.0,0.0,0.0,0.0,0.0,0.0,0.0,0.0,0.0,0.0,0.0,0.0,0.0,0.0,0.0,0.0,0.7802,0.7868,0.7892,0.7892,0.7918,0.7942,0.7988,0.7939,0.7942,0.7988,0.7887,0.7754,0.753,0.7234,0.6891,0.6419,0.6026,0.5777,0.5777,0.5733,0.5688,0.5688,0.5688,0.5688,0.5688,0.5688,0.5688,0.5688,0.5688,0.5688,0.5688,0.5688,0.5688,0.5688,0.5688,0.5688,0.5694,0.5828,0.5679,0.5426,0.5511,0.4949,0.4074,0.479,0.403,0.2553,0.2553,0.1928,0.099,0.0229,0.0,0.0,0.0,0.0,0.0,0.0,0.0,0.0,0.0,0.0,0.0,0.0,0.0,0.0,0.0,0.0,0.0,0.0,0.0,0.0,0.0,0.0,0.0,0.0,0.0,0.0,0.0,0.0,0.0,0.0,0.0,0.0,0.0,0.0,0.0,0.0,0.0,0.0,0.0,0.0,0.0,0.0,0.0,0.0,0.0,0.0,0.0,0.0,0.0,0.0,0.0,0.0,0.0,0.0,0.0,0.0,0.0,0.0,0.0,0.0,0.0,0.0,0.0,0.0,0.0,0.0,0.7988,0.7988,0.7988,0.7988,0.7988,0.7988,0.7988,0.7988,0.7988,0.7988,0.7921,0.7847,0.7676,0.7429,0.7102,0.6734,0.6391,0.6219,0.6219,0.6083,0.6038,0.6038,0.6038,0.5994,0.5908,0.5908,0.5822,0.5688,0.5688,0.5688,0.5688,0.5688,0.5688,0.5688,0.5688,0.5718,0.5817,0.5877,0.5901,0.5907,0.5966,0.5676,0.5209,0.5718,0.4656,0.295,0.295,0.1971,0.0638,0.0184,0.0,0.0,0.0,0.0,0.0,0.0,0.0,0.0,0.0,0.0,0.0,0.0,0.0,0.0,0.0,0.0,0.0,0.0,0.0,0.0,0.0,0.0,0.0,0.0,0.0,0.0,0.0,0.0,0.0,0.0,0.0,0.0,0.0,0.0,0.0,0.0,0.0,0.0,0.0,0.0,0.0,0.0,0.0,0.0,0.0,0.0,0.0,0.0,0.0,0.0,0.0,0.0,0.0,0.0,0.0,0.0,0.0,0.0,0.0,0.0,0.0,0.0,0.0,0.0,0.0,0.0,0.7988,0.7988,0.7988,0.7988,0.7988,0.7988,0.7988,0.7988,0.7988,0.7988,0.7988,0.7941,0.7865,0.7675,0.7456,0.7081,0.69,0.6773,0.6751,0.652,0.6384,0.6384,0.6384,0.6355,0.6204,0.6162,0.5972,0.5688,0.571,0.5707,0.5691,0.5729,0.5737,0.5718,0.5739,0.5847,0.5934,0.5956,0.6013,0.6086,0.6108,0.6105,0.6086,0.6086,0.5036,0.3517,0.3327,0.1976,0.0279,0.028,0.014,0.0,0.0,0.0,0.0,0.0,0.0,0.0,0.0,0.0,0.0,0.0,0.0,0.0,0.0,0.0,0.0,0.0,0.0,0.0,0.0,0.0,0.0,0.0,0.0,0.0,0.0,0.0,0.0,0.0,0.0,0.0,0.0,0.0,0.0,0.0,0.0,0.0,0.0,0.0,0.0,0.0,0.0,0.0,0.0,0.0224,0.0224,0.0,0.0218,0.0215,0.0,0.0211,0.0209,0.0,0.0204,0.0203,0.0,0.0,0.0101,0.0252,0.0051,0.0101,0.0252,0.0051,0.0051,0.0051,0.7988,0.7988,0.7988,0.7988,0.7988,0.7988,0.7988,0.7988,0.7988,0.7988,0.7988,0.7982,0.7961,0.7684,0.7331,0.6872,0.677,0.665,0.6482,0.6432,0.6384,0.6384,0.6384,0.6487,0.6609,0.6387,0.6062,0.5688,0.5833,0.5831,0.5694,0.5942,0.5983,0.5885,0.5991,0.6045,0.6067,0.6173,0.6168,0.6094,0.6248,0.6181,0.6086,0.6086,0.5942,0.5561,0.4752,0.3132,0.1378,0.1402,0.0779,0.0,0.0,0.0,0.0,0.0,0.0,0.0,0.0,0.0,0.0,0.0,0.0,0.0,0.0,0.0,0.0,0.0,0.0,0.0,0.0,0.0,0.0,0.0,0.0,0.0,0.0,0.0,0.0,0.0,0.0,0.0,0.0,0.0,0.0,0.0,0.0,0.0,0.0,0.0,0.0,0.0,0.0,0.0,0.0,0.1008,0.1008,0.0,0.1059,0.0994,0.0055,0.1086,0.0961,0.0052,0.1086,0.0973,0.0,0.0,0.0555,0.1311,0.0353,0.0555,0.1261,0.0353,0.0152,0.0354,0.7988,0.7988,0.7988,0.7988,0.7988,0.7988,0.7988,0.7988,0.7988,0.7988,0.7988,0.7958,0.7874,0.761,0.7316,0.6989,0.6936,0.6934,0.695,0.6953,0.6989,0.7073,0.6995,0.6976,0.6978,0.6771,0.6606,0.6391,0.6119,0.5977,0.5931,0.6037,0.6056,0.6007,0.6062,0.6124,0.624,0.6295,0.6274,0.6287,0.6342,0.6331,0.6282,0.6282,0.5889,0.5247,0.422,0.3286,0.242,0.1808,0.1274,0.0787,0.0201,0.0,0.0,0.0,0.0,0.0,0.0,0.0,0.0,0.0,0.0,0.0,0.0,0.0,0.0,0.0,0.0,0.0,0.0,0.0,0.0,0.0,0.0,0.0,0.0,0.0,0.0,0.0,0.0,0.0,0.0,0.0,0.0,0.0,0.0,0.0,0.0,0.0,0.0,0.0,0.0,0.0,0.0,0.0504,0.0504,0.0,0.1232,0.1172,0.0055,0.1262,0.1131,0.0053,0.125,0.1437,0.0908,0.0908,0.1513,0.2368,0.1311,0.126,0.1763,0.131,0.1662,0.2415]}]]